<?xml version="1.0" encoding="UTF-8" standalone="no" ?>
<gpx xmlns="http://www.topografix.com/GPX/1/1" xmlns:xsi="http://www.w3.org/2001/XMLSchema-instance" xsi:schemaLocation="http://www.topografix.com/GPX/1/1 http://www.topografix.com/GPX/1/1/gpx.xsd" version="1.1" creator="VisuGPX - https://www.visugpx.com">
  <metadata>
    <name>Le Malpasset </name>
    <desc><![CDATA[Balade facile, côtoyant fours à cades et vignobles]]></desc>
  </metadata>
  <trk>
    <name><![CDATA[Le Malpasset _1]]></name>
    <trkseg>
      <trkpt lat="43.20609" lon="5.70768">
        <ele>107</ele>
        <time>2021-04-21T08:23:31Z</time>
      </trkpt>
      <trkpt lat="43.20605" lon="5.70764">
        <ele>107.1</ele>
        <time>2021-04-21T08:24:23Z</time>
      </trkpt>
      <trkpt lat="43.20607" lon="5.70759">
        <ele>107.4</ele>
        <time>2021-04-21T08:25:15Z</time>
      </trkpt>
      <trkpt lat="43.20608" lon="5.70765">
        <ele>107.1</ele>
        <time>2021-04-21T08:26:01Z</time>
      </trkpt>
      <trkpt lat="43.20612" lon="5.70762">
        <ele>107.4</ele>
        <time>2021-04-21T08:28:11Z</time>
      </trkpt>
      <trkpt lat="43.20613" lon="5.70754">
        <ele>107.8</ele>
        <time>2021-04-21T08:28:17Z</time>
      </trkpt>
      <trkpt lat="43.20612" lon="5.70747">
        <ele>108.1</ele>
        <time>2021-04-21T08:28:23Z</time>
      </trkpt>
      <trkpt lat="43.20615" lon="5.7074">
        <ele>108.4</ele>
        <time>2021-04-21T08:28:29Z</time>
      </trkpt>
      <trkpt lat="43.20617" lon="5.70734">
        <ele>108.7</ele>
        <time>2021-04-21T08:28:37Z</time>
      </trkpt>
      <trkpt lat="43.2062" lon="5.70726">
        <ele>109.1</ele>
        <time>2021-04-21T08:28:45Z</time>
      </trkpt>
      <trkpt lat="43.20621" lon="5.70719">
        <ele>109.4</ele>
        <time>2021-04-21T08:28:51Z</time>
      </trkpt>
      <trkpt lat="43.2062" lon="5.70713">
        <ele>109.6</ele>
        <time>2021-04-21T08:28:55Z</time>
      </trkpt>
      <trkpt lat="43.2062" lon="5.70704">
        <ele>109.8</ele>
        <time>2021-04-21T08:29:01Z</time>
      </trkpt>
      <trkpt lat="43.2062" lon="5.70698">
        <ele>110</ele>
        <time>2021-04-21T08:29:05Z</time>
      </trkpt>
      <trkpt lat="43.2062" lon="5.70689">
        <ele>110.3</ele>
        <time>2021-04-21T08:29:11Z</time>
      </trkpt>
      <trkpt lat="43.20621" lon="5.70683">
        <ele>110.6</ele>
        <time>2021-04-21T08:29:15Z</time>
      </trkpt>
      <trkpt lat="43.2062" lon="5.70673">
        <ele>110.9</ele>
        <time>2021-04-21T08:29:21Z</time>
      </trkpt>
      <trkpt lat="43.20621" lon="5.70667">
        <ele>111.1</ele>
        <time>2021-04-21T08:29:25Z</time>
      </trkpt>
      <trkpt lat="43.20622" lon="5.7066">
        <ele>111.3</ele>
        <time>2021-04-21T08:29:29Z</time>
      </trkpt>
      <trkpt lat="43.20624" lon="5.70652">
        <ele>111.5</ele>
        <time>2021-04-21T08:29:35Z</time>
      </trkpt>
      <trkpt lat="43.20626" lon="5.70645">
        <ele>111.9</ele>
        <time>2021-04-21T08:29:41Z</time>
      </trkpt>
      <trkpt lat="43.20629" lon="5.70637">
        <ele>112.2</ele>
        <time>2021-04-21T08:29:47Z</time>
      </trkpt>
      <trkpt lat="43.20632" lon="5.7063">
        <ele>112.6</ele>
        <time>2021-04-21T08:29:53Z</time>
      </trkpt>
      <trkpt lat="43.20636" lon="5.70624">
        <ele>113.1</ele>
        <time>2021-04-21T08:29:59Z</time>
      </trkpt>
      <trkpt lat="43.20637" lon="5.70618">
        <ele>113.3</ele>
        <time>2021-04-21T08:30:03Z</time>
      </trkpt>
      <trkpt lat="43.20639" lon="5.70609">
        <ele>113.6</ele>
        <time>2021-04-21T08:30:09Z</time>
      </trkpt>
      <trkpt lat="43.20639" lon="5.70601">
        <ele>113.7</ele>
        <time>2021-04-21T08:30:15Z</time>
      </trkpt>
      <trkpt lat="43.20639" lon="5.70593">
        <ele>113.8</ele>
        <time>2021-04-21T08:30:21Z</time>
      </trkpt>
      <trkpt lat="43.20638" lon="5.70583">
        <ele>113.9</ele>
        <time>2021-04-21T08:30:27Z</time>
      </trkpt>
      <trkpt lat="43.20638" lon="5.70575">
        <ele>114</ele>
        <time>2021-04-21T08:30:33Z</time>
      </trkpt>
      <trkpt lat="43.20638" lon="5.70566">
        <ele>114.1</ele>
        <time>2021-04-21T08:30:39Z</time>
      </trkpt>
      <trkpt lat="43.20638" lon="5.70558">
        <ele>114.1</ele>
        <time>2021-04-21T08:30:45Z</time>
      </trkpt>
      <trkpt lat="43.20638" lon="5.7055">
        <ele>114.1</ele>
        <time>2021-04-21T08:30:51Z</time>
      </trkpt>
      <trkpt lat="43.20639" lon="5.70542">
        <ele>114.3</ele>
        <time>2021-04-21T08:30:57Z</time>
      </trkpt>
      <trkpt lat="43.20641" lon="5.70534">
        <ele>114.6</ele>
        <time>2021-04-21T08:31:03Z</time>
      </trkpt>
      <trkpt lat="43.20644" lon="5.70527">
        <ele>115</ele>
        <time>2021-04-21T08:31:09Z</time>
      </trkpt>
      <trkpt lat="43.20647" lon="5.70522">
        <ele>115.2</ele>
        <time>2021-04-21T08:31:13Z</time>
      </trkpt>
      <trkpt lat="43.20649" lon="5.70517">
        <ele>115.5</ele>
        <time>2021-04-21T08:31:17Z</time>
      </trkpt>
      <trkpt lat="43.20653" lon="5.70509">
        <ele>115.8</ele>
        <time>2021-04-21T08:31:23Z</time>
      </trkpt>
      <trkpt lat="43.20656" lon="5.70502">
        <ele>116.1</ele>
        <time>2021-04-21T08:31:29Z</time>
      </trkpt>
      <trkpt lat="43.2066" lon="5.70495">
        <ele>116.5</ele>
        <time>2021-04-21T08:31:35Z</time>
      </trkpt>
      <trkpt lat="43.20663" lon="5.70488">
        <ele>117</ele>
        <time>2021-04-21T08:31:41Z</time>
      </trkpt>
      <trkpt lat="43.20666" lon="5.70484">
        <ele>117.3</ele>
        <time>2021-04-21T08:31:45Z</time>
      </trkpt>
      <trkpt lat="43.2067" lon="5.70477">
        <ele>117.9</ele>
        <time>2021-04-21T08:31:51Z</time>
      </trkpt>
      <trkpt lat="43.20674" lon="5.70471">
        <ele>118.4</ele>
        <time>2021-04-21T08:31:57Z</time>
      </trkpt>
      <trkpt lat="43.20678" lon="5.70467">
        <ele>118.9</ele>
        <time>2021-04-21T08:32:03Z</time>
      </trkpt>
      <trkpt lat="43.20683" lon="5.70463">
        <ele>119.4</ele>
        <time>2021-04-21T08:32:09Z</time>
      </trkpt>
      <trkpt lat="43.20687" lon="5.70459">
        <ele>120</ele>
        <time>2021-04-21T08:32:15Z</time>
      </trkpt>
      <trkpt lat="43.20693" lon="5.70457">
        <ele>120.5</ele>
        <time>2021-04-21T08:32:21Z</time>
      </trkpt>
      <trkpt lat="43.20698" lon="5.70454">
        <ele>121.1</ele>
        <time>2021-04-21T08:32:27Z</time>
      </trkpt>
      <trkpt lat="43.20705" lon="5.70452">
        <ele>121.8</ele>
        <time>2021-04-21T08:32:35Z</time>
      </trkpt>
      <trkpt lat="43.2071" lon="5.70449">
        <ele>122.3</ele>
        <time>2021-04-21T08:32:41Z</time>
      </trkpt>
      <trkpt lat="43.20714" lon="5.7045">
        <ele>122.8</ele>
        <time>2021-04-21T08:32:47Z</time>
      </trkpt>
      <trkpt lat="43.20719" lon="5.70453">
        <ele>123.2</ele>
        <time>2021-04-21T08:32:53Z</time>
      </trkpt>
      <trkpt lat="43.20725" lon="5.70455">
        <ele>123.7</ele>
        <time>2021-04-21T08:32:59Z</time>
      </trkpt>
      <trkpt lat="43.20731" lon="5.70456">
        <ele>124.3</ele>
        <time>2021-04-21T08:33:05Z</time>
      </trkpt>
      <trkpt lat="43.20737" lon="5.70459">
        <ele>124.7</ele>
        <time>2021-04-21T08:33:11Z</time>
      </trkpt>
      <trkpt lat="43.20743" lon="5.70461">
        <ele>125.2</ele>
        <time>2021-04-21T08:33:17Z</time>
      </trkpt>
      <trkpt lat="43.20749" lon="5.70464">
        <ele>125.7</ele>
        <time>2021-04-21T08:33:23Z</time>
      </trkpt>
      <trkpt lat="43.20755" lon="5.70466">
        <ele>126.4</ele>
        <time>2021-04-21T08:33:29Z</time>
      </trkpt>
      <trkpt lat="43.2076" lon="5.70467">
        <ele>127.1</ele>
        <time>2021-04-21T08:33:35Z</time>
      </trkpt>
      <trkpt lat="43.20767" lon="5.70468">
        <ele>127.9</ele>
        <time>2021-04-21T08:33:41Z</time>
      </trkpt>
      <trkpt lat="43.20772" lon="5.70469">
        <ele>128.6</ele>
        <time>2021-04-21T08:33:47Z</time>
      </trkpt>
      <trkpt lat="43.20777" lon="5.70471">
        <ele>129.2</ele>
        <time>2021-04-21T08:33:53Z</time>
      </trkpt>
      <trkpt lat="43.20782" lon="5.70473">
        <ele>129.8</ele>
        <time>2021-04-21T08:33:59Z</time>
      </trkpt>
      <trkpt lat="43.20789" lon="5.70473">
        <ele>130.6</ele>
        <time>2021-04-21T08:34:05Z</time>
      </trkpt>
      <trkpt lat="43.20794" lon="5.70472">
        <ele>131.4</ele>
        <time>2021-04-21T08:34:11Z</time>
      </trkpt>
      <trkpt lat="43.20801" lon="5.7047">
        <ele>132.2</ele>
        <time>2021-04-21T08:34:17Z</time>
      </trkpt>
      <trkpt lat="43.20807" lon="5.70468">
        <ele>133.1</ele>
        <time>2021-04-21T08:34:23Z</time>
      </trkpt>
      <trkpt lat="43.20813" lon="5.70465">
        <ele>134</ele>
        <time>2021-04-21T08:34:29Z</time>
      </trkpt>
      <trkpt lat="43.20817" lon="5.70462">
        <ele>134.7</ele>
        <time>2021-04-21T08:34:35Z</time>
      </trkpt>
      <trkpt lat="43.20822" lon="5.70458">
        <ele>135.5</ele>
        <time>2021-04-21T08:34:41Z</time>
      </trkpt>
      <trkpt lat="43.20826" lon="5.70454">
        <ele>136.3</ele>
        <time>2021-04-21T08:34:47Z</time>
      </trkpt>
      <trkpt lat="43.20831" lon="5.70449">
        <ele>137.2</ele>
        <time>2021-04-21T08:34:53Z</time>
      </trkpt>
      <trkpt lat="43.20836" lon="5.70445">
        <ele>137.8</ele>
        <time>2021-04-21T08:34:59Z</time>
      </trkpt>
      <trkpt lat="43.20842" lon="5.70441">
        <ele>138.3</ele>
        <time>2021-04-21T08:35:05Z</time>
      </trkpt>
      <trkpt lat="43.20846" lon="5.70437">
        <ele>138.8</ele>
        <time>2021-04-21T08:35:11Z</time>
      </trkpt>
      <trkpt lat="43.20851" lon="5.70433">
        <ele>139.3</ele>
        <time>2021-04-21T08:35:17Z</time>
      </trkpt>
      <trkpt lat="43.20857" lon="5.70429">
        <ele>140</ele>
        <time>2021-04-21T08:35:23Z</time>
      </trkpt>
      <trkpt lat="43.20862" lon="5.70423">
        <ele>140.6</ele>
        <time>2021-04-21T08:35:29Z</time>
      </trkpt>
      <trkpt lat="43.20866" lon="5.70418">
        <ele>141.3</ele>
        <time>2021-04-21T08:35:35Z</time>
      </trkpt>
      <trkpt lat="43.20871" lon="5.70413">
        <ele>141.7</ele>
        <time>2021-04-21T08:35:41Z</time>
      </trkpt>
      <trkpt lat="43.20876" lon="5.70409">
        <ele>142.1</ele>
        <time>2021-04-21T08:35:47Z</time>
      </trkpt>
      <trkpt lat="43.2088" lon="5.70407">
        <ele>142.5</ele>
        <time>2021-04-21T08:35:53Z</time>
      </trkpt>
      <trkpt lat="43.20886" lon="5.70405">
        <ele>143</ele>
        <time>2021-04-21T08:35:59Z</time>
      </trkpt>
      <trkpt lat="43.20891" lon="5.70402">
        <ele>143.4</ele>
        <time>2021-04-21T08:36:05Z</time>
      </trkpt>
      <trkpt lat="43.20896" lon="5.704">
        <ele>143.8</ele>
        <time>2021-04-21T08:36:11Z</time>
      </trkpt>
      <trkpt lat="43.20902" lon="5.704">
        <ele>144.3</ele>
        <time>2021-04-21T08:36:17Z</time>
      </trkpt>
      <trkpt lat="43.20908" lon="5.70398">
        <ele>144.7</ele>
        <time>2021-04-21T08:36:23Z</time>
      </trkpt>
      <trkpt lat="43.20913" lon="5.70398">
        <ele>145.2</ele>
        <time>2021-04-21T08:36:29Z</time>
      </trkpt>
      <trkpt lat="43.20919" lon="5.70394">
        <ele>145.7</ele>
        <time>2021-04-21T08:36:35Z</time>
      </trkpt>
      <trkpt lat="43.20923" lon="5.7039">
        <ele>146.2</ele>
        <time>2021-04-21T08:36:39Z</time>
      </trkpt>
      <trkpt lat="43.20929" lon="5.70386">
        <ele>146.7</ele>
        <time>2021-04-21T08:36:45Z</time>
      </trkpt>
      <trkpt lat="43.20933" lon="5.70382">
        <ele>147.2</ele>
        <time>2021-04-21T08:36:49Z</time>
      </trkpt>
      <trkpt lat="43.20937" lon="5.70378">
        <ele>147.7</ele>
        <time>2021-04-21T08:36:53Z</time>
      </trkpt>
      <trkpt lat="43.20941" lon="5.70374">
        <ele>148.1</ele>
        <time>2021-04-21T08:36:57Z</time>
      </trkpt>
      <trkpt lat="43.20946" lon="5.70369">
        <ele>148.6</ele>
        <time>2021-04-21T08:37:03Z</time>
      </trkpt>
      <trkpt lat="43.2095" lon="5.70364">
        <ele>149.2</ele>
        <time>2021-04-21T08:37:09Z</time>
      </trkpt>
      <trkpt lat="43.20955" lon="5.70361">
        <ele>149.7</ele>
        <time>2021-04-21T08:37:15Z</time>
      </trkpt>
      <trkpt lat="43.20961" lon="5.70359">
        <ele>150.3</ele>
        <time>2021-04-21T08:37:23Z</time>
      </trkpt>
      <trkpt lat="43.20967" lon="5.70356">
        <ele>150.9</ele>
        <time>2021-04-21T08:37:29Z</time>
      </trkpt>
      <trkpt lat="43.20973" lon="5.70354">
        <ele>151.6</ele>
        <time>2021-04-21T08:37:35Z</time>
      </trkpt>
      <trkpt lat="43.20979" lon="5.70353">
        <ele>152.1</ele>
        <time>2021-04-21T08:37:41Z</time>
      </trkpt>
      <trkpt lat="43.20986" lon="5.70353">
        <ele>152.7</ele>
        <time>2021-04-21T08:37:47Z</time>
      </trkpt>
      <trkpt lat="43.2099" lon="5.70353">
        <ele>153.1</ele>
        <time>2021-04-21T08:37:51Z</time>
      </trkpt>
      <trkpt lat="43.20995" lon="5.70354">
        <ele>153.5</ele>
        <time>2021-04-21T08:37:55Z</time>
      </trkpt>
      <trkpt lat="43.21001" lon="5.70354">
        <ele>154.1</ele>
        <time>2021-04-21T08:38:01Z</time>
      </trkpt>
      <trkpt lat="43.21008" lon="5.70354">
        <ele>154.4</ele>
        <time>2021-04-21T08:38:07Z</time>
      </trkpt>
      <trkpt lat="43.21012" lon="5.70354">
        <ele>154.7</ele>
        <time>2021-04-21T08:38:11Z</time>
      </trkpt>
      <trkpt lat="43.21018" lon="5.70352">
        <ele>155.1</ele>
        <time>2021-04-21T08:38:17Z</time>
      </trkpt>
      <trkpt lat="43.21024" lon="5.70352">
        <ele>155.4</ele>
        <time>2021-04-21T08:38:23Z</time>
      </trkpt>
      <trkpt lat="43.21029" lon="5.7035">
        <ele>155.8</ele>
        <time>2021-04-21T08:38:27Z</time>
      </trkpt>
      <trkpt lat="43.21033" lon="5.70348">
        <ele>156.1</ele>
        <time>2021-04-21T08:38:31Z</time>
      </trkpt>
      <trkpt lat="43.21039" lon="5.70344">
        <ele>156.7</ele>
        <time>2021-04-21T08:38:37Z</time>
      </trkpt>
      <trkpt lat="43.21044" lon="5.70339">
        <ele>157.3</ele>
        <time>2021-04-21T08:38:43Z</time>
      </trkpt>
      <trkpt lat="43.21049" lon="5.70336">
        <ele>157.7</ele>
        <time>2021-04-21T08:38:47Z</time>
      </trkpt>
      <trkpt lat="43.21053" lon="5.70332">
        <ele>158.2</ele>
        <time>2021-04-21T08:38:51Z</time>
      </trkpt>
      <trkpt lat="43.21056" lon="5.70329">
        <ele>158.4</ele>
        <time>2021-04-21T08:38:55Z</time>
      </trkpt>
      <trkpt lat="43.21061" lon="5.70324">
        <ele>158.7</ele>
        <time>2021-04-21T08:39:01Z</time>
      </trkpt>
      <trkpt lat="43.21065" lon="5.70322">
        <ele>159</ele>
        <time>2021-04-21T08:39:07Z</time>
      </trkpt>
      <trkpt lat="43.21069" lon="5.7032">
        <ele>159.3</ele>
        <time>2021-04-21T08:39:11Z</time>
      </trkpt>
      <trkpt lat="43.21074" lon="5.70317">
        <ele>159.6</ele>
        <time>2021-04-21T08:39:17Z</time>
      </trkpt>
      <trkpt lat="43.2108" lon="5.70315">
        <ele>160</ele>
        <time>2021-04-21T08:39:23Z</time>
      </trkpt>
      <trkpt lat="43.21087" lon="5.70312">
        <ele>160.5</ele>
        <time>2021-04-21T08:39:29Z</time>
      </trkpt>
      <trkpt lat="43.21093" lon="5.70311">
        <ele>160.9</ele>
        <time>2021-04-21T08:39:35Z</time>
      </trkpt>
      <trkpt lat="43.21099" lon="5.70311">
        <ele>161.3</ele>
        <time>2021-04-21T08:39:41Z</time>
      </trkpt>
      <trkpt lat="43.21104" lon="5.70308">
        <ele>161.6</ele>
        <time>2021-04-21T08:39:47Z</time>
      </trkpt>
      <trkpt lat="43.21111" lon="5.70305">
        <ele>162.1</ele>
        <time>2021-04-21T08:39:53Z</time>
      </trkpt>
      <trkpt lat="43.21117" lon="5.70302">
        <ele>162.5</ele>
        <time>2021-04-21T08:39:59Z</time>
      </trkpt>
      <trkpt lat="43.21122" lon="5.70298">
        <ele>162.9</ele>
        <time>2021-04-21T08:40:05Z</time>
      </trkpt>
      <trkpt lat="43.21126" lon="5.70294">
        <ele>163.3</ele>
        <time>2021-04-21T08:40:09Z</time>
      </trkpt>
      <trkpt lat="43.21132" lon="5.7029">
        <ele>163.7</ele>
        <time>2021-04-21T08:40:15Z</time>
      </trkpt>
      <trkpt lat="43.21138" lon="5.70286">
        <ele>164.2</ele>
        <time>2021-04-21T08:40:21Z</time>
      </trkpt>
      <trkpt lat="43.21143" lon="5.70282">
        <ele>164.7</ele>
        <time>2021-04-21T08:40:27Z</time>
      </trkpt>
      <trkpt lat="43.21147" lon="5.7028">
        <ele>165</ele>
        <time>2021-04-21T08:40:31Z</time>
      </trkpt>
      <trkpt lat="43.21152" lon="5.70277">
        <ele>165.4</ele>
        <time>2021-04-21T08:40:37Z</time>
      </trkpt>
      <trkpt lat="43.21157" lon="5.70275">
        <ele>165.7</ele>
        <time>2021-04-21T08:41:13Z</time>
      </trkpt>
      <trkpt lat="43.21161" lon="5.70271">
        <ele>166.1</ele>
        <time>2021-04-21T08:41:19Z</time>
      </trkpt>
      <trkpt lat="43.21165" lon="5.70267">
        <ele>166.5</ele>
        <time>2021-04-21T08:41:25Z</time>
      </trkpt>
      <trkpt lat="43.2117" lon="5.70264">
        <ele>166.8</ele>
        <time>2021-04-21T08:41:31Z</time>
      </trkpt>
      <trkpt lat="43.21176" lon="5.7026">
        <ele>167.1</ele>
        <time>2021-04-21T08:41:37Z</time>
      </trkpt>
      <trkpt lat="43.2118" lon="5.70257">
        <ele>167.4</ele>
        <time>2021-04-21T08:41:41Z</time>
      </trkpt>
      <trkpt lat="43.21184" lon="5.70253">
        <ele>167.7</ele>
        <time>2021-04-21T08:41:45Z</time>
      </trkpt>
      <trkpt lat="43.21189" lon="5.7025">
        <ele>168</ele>
        <time>2021-04-21T08:41:51Z</time>
      </trkpt>
      <trkpt lat="43.21195" lon="5.70246">
        <ele>168.2</ele>
        <time>2021-04-21T08:41:57Z</time>
      </trkpt>
      <trkpt lat="43.212" lon="5.70242">
        <ele>168.4</ele>
        <time>2021-04-21T08:42:03Z</time>
      </trkpt>
      <trkpt lat="43.21206" lon="5.70239">
        <ele>168.6</ele>
        <time>2021-04-21T08:42:09Z</time>
      </trkpt>
      <trkpt lat="43.21211" lon="5.70237">
        <ele>168.9</ele>
        <time>2021-04-21T08:42:15Z</time>
      </trkpt>
      <trkpt lat="43.21217" lon="5.70233">
        <ele>169.1</ele>
        <time>2021-04-21T08:42:21Z</time>
      </trkpt>
      <trkpt lat="43.21223" lon="5.70231">
        <ele>169.5</ele>
        <time>2021-04-21T08:42:27Z</time>
      </trkpt>
      <trkpt lat="43.21228" lon="5.70228">
        <ele>169.8</ele>
        <time>2021-04-21T08:42:31Z</time>
      </trkpt>
      <trkpt lat="43.21232" lon="5.70226">
        <ele>170</ele>
        <time>2021-04-21T08:42:35Z</time>
      </trkpt>
      <trkpt lat="43.21238" lon="5.70223">
        <ele>170.4</ele>
        <time>2021-04-21T08:42:41Z</time>
      </trkpt>
      <trkpt lat="43.21243" lon="5.7022">
        <ele>170.8</ele>
        <time>2021-04-21T08:42:47Z</time>
      </trkpt>
      <trkpt lat="43.21248" lon="5.70216">
        <ele>171.2</ele>
        <time>2021-04-21T08:42:53Z</time>
      </trkpt>
      <trkpt lat="43.21254" lon="5.70213">
        <ele>171.2</ele>
        <time>2021-04-21T08:42:59Z</time>
      </trkpt>
      <trkpt lat="43.2126" lon="5.7021">
        <ele>171</ele>
        <time>2021-04-21T08:43:05Z</time>
      </trkpt>
      <trkpt lat="43.21264" lon="5.70206">
        <ele>170.9</ele>
        <time>2021-04-21T08:43:09Z</time>
      </trkpt>
      <trkpt lat="43.21267" lon="5.70203">
        <ele>170.9</ele>
        <time>2021-04-21T08:43:13Z</time>
      </trkpt>
      <trkpt lat="43.21272" lon="5.702">
        <ele>170.9</ele>
        <time>2021-04-21T08:43:17Z</time>
      </trkpt>
      <trkpt lat="43.21276" lon="5.70197">
        <ele>171.1</ele>
        <time>2021-04-21T08:43:21Z</time>
      </trkpt>
      <trkpt lat="43.21282" lon="5.70193">
        <ele>171.2</ele>
        <time>2021-04-21T08:43:27Z</time>
      </trkpt>
      <trkpt lat="43.21286" lon="5.7019">
        <ele>171.5</ele>
        <time>2021-04-21T08:43:31Z</time>
      </trkpt>
      <trkpt lat="43.21291" lon="5.70187">
        <ele>171.8</ele>
        <time>2021-04-21T08:43:37Z</time>
      </trkpt>
      <trkpt lat="43.21297" lon="5.70182">
        <ele>172.4</ele>
        <time>2021-04-21T08:43:43Z</time>
      </trkpt>
      <trkpt lat="43.213" lon="5.70178">
        <ele>173</ele>
        <time>2021-04-21T08:43:47Z</time>
      </trkpt>
      <trkpt lat="43.21304" lon="5.70173">
        <ele>173.8</ele>
        <time>2021-04-21T08:43:51Z</time>
      </trkpt>
      <trkpt lat="43.21308" lon="5.70168">
        <ele>174.6</ele>
        <time>2021-04-21T08:43:55Z</time>
      </trkpt>
      <trkpt lat="43.21311" lon="5.70164">
        <ele>175</ele>
        <time>2021-04-21T08:43:59Z</time>
      </trkpt>
      <trkpt lat="43.21315" lon="5.7016">
        <ele>175.2</ele>
        <time>2021-04-21T08:44:03Z</time>
      </trkpt>
      <trkpt lat="43.21318" lon="5.70156">
        <ele>175.5</ele>
        <time>2021-04-21T08:44:07Z</time>
      </trkpt>
      <trkpt lat="43.21323" lon="5.7015">
        <ele>175.9</ele>
        <time>2021-04-21T08:44:13Z</time>
      </trkpt>
      <trkpt lat="43.21327" lon="5.70144">
        <ele>176.4</ele>
        <time>2021-04-21T08:44:19Z</time>
      </trkpt>
      <trkpt lat="43.21332" lon="5.70138">
        <ele>176.9</ele>
        <time>2021-04-21T08:44:25Z</time>
      </trkpt>
      <trkpt lat="43.21337" lon="5.70133">
        <ele>177</ele>
        <time>2021-04-21T08:44:31Z</time>
      </trkpt>
      <trkpt lat="43.21341" lon="5.70129">
        <ele>177</ele>
        <time>2021-04-21T08:44:35Z</time>
      </trkpt>
      <trkpt lat="43.21345" lon="5.70124">
        <ele>177</ele>
        <time>2021-04-21T08:44:41Z</time>
      </trkpt>
      <trkpt lat="43.2135" lon="5.70119">
        <ele>177.1</ele>
        <time>2021-04-21T08:44:47Z</time>
      </trkpt>
      <trkpt lat="43.21355" lon="5.70114">
        <ele>177.2</ele>
        <time>2021-04-21T08:44:53Z</time>
      </trkpt>
      <trkpt lat="43.21359" lon="5.70108">
        <ele>177.5</ele>
        <time>2021-04-21T08:44:59Z</time>
      </trkpt>
      <trkpt lat="43.21362" lon="5.70101">
        <ele>178</ele>
        <time>2021-04-21T08:45:05Z</time>
      </trkpt>
      <trkpt lat="43.21366" lon="5.70093">
        <ele>178.6</ele>
        <time>2021-04-21T08:45:11Z</time>
      </trkpt>
      <trkpt lat="43.21368" lon="5.70088">
        <ele>179</ele>
        <time>2021-04-21T08:45:15Z</time>
      </trkpt>
      <trkpt lat="43.2137" lon="5.70083">
        <ele>179.5</ele>
        <time>2021-04-21T08:45:19Z</time>
      </trkpt>
      <trkpt lat="43.21372" lon="5.70077">
        <ele>179.6</ele>
        <time>2021-04-21T08:45:23Z</time>
      </trkpt>
      <trkpt lat="43.21374" lon="5.70071">
        <ele>179.8</ele>
        <time>2021-04-21T08:45:27Z</time>
      </trkpt>
      <trkpt lat="43.21377" lon="5.70066">
        <ele>180.1</ele>
        <time>2021-04-21T08:45:31Z</time>
      </trkpt>
      <trkpt lat="43.21379" lon="5.70061">
        <ele>180.3</ele>
        <time>2021-04-21T08:45:35Z</time>
      </trkpt>
      <trkpt lat="43.21383" lon="5.70057">
        <ele>180.5</ele>
        <time>2021-04-21T08:45:39Z</time>
      </trkpt>
      <trkpt lat="43.21387" lon="5.70051">
        <ele>180.9</ele>
        <time>2021-04-21T08:45:45Z</time>
      </trkpt>
      <trkpt lat="43.21391" lon="5.70045">
        <ele>181.3</ele>
        <time>2021-04-21T08:45:51Z</time>
      </trkpt>
      <trkpt lat="43.21396" lon="5.70039">
        <ele>181.7</ele>
        <time>2021-04-21T08:45:57Z</time>
      </trkpt>
      <trkpt lat="43.21401" lon="5.70033">
        <ele>182.3</ele>
        <time>2021-04-21T08:46:03Z</time>
      </trkpt>
      <trkpt lat="43.21405" lon="5.70028">
        <ele>182.7</ele>
        <time>2021-04-21T08:46:07Z</time>
      </trkpt>
      <trkpt lat="43.21408" lon="5.70022">
        <ele>183.2</ele>
        <time>2021-04-21T08:46:13Z</time>
      </trkpt>
      <trkpt lat="43.21412" lon="5.70018">
        <ele>183.6</ele>
        <time>2021-04-21T08:46:23Z</time>
      </trkpt>
      <trkpt lat="43.21417" lon="5.70015">
        <ele>184.1</ele>
        <time>2021-04-21T08:46:29Z</time>
      </trkpt>
      <trkpt lat="43.21421" lon="5.7001">
        <ele>184.5</ele>
        <time>2021-04-21T08:46:35Z</time>
      </trkpt>
      <trkpt lat="43.21424" lon="5.70005">
        <ele>184.9</ele>
        <time>2021-04-21T08:46:39Z</time>
      </trkpt>
      <trkpt lat="43.21426" lon="5.69998">
        <ele>185.4</ele>
        <time>2021-04-21T08:46:45Z</time>
      </trkpt>
      <trkpt lat="43.21428" lon="5.69991">
        <ele>185.8</ele>
        <time>2021-04-21T08:46:51Z</time>
      </trkpt>
      <trkpt lat="43.21429" lon="5.69985">
        <ele>186.2</ele>
        <time>2021-04-21T08:46:57Z</time>
      </trkpt>
      <trkpt lat="43.21432" lon="5.69977">
        <ele>186.7</ele>
        <time>2021-04-21T08:47:03Z</time>
      </trkpt>
      <trkpt lat="43.21433" lon="5.69971">
        <ele>187.2</ele>
        <time>2021-04-21T08:47:09Z</time>
      </trkpt>
      <trkpt lat="43.21436" lon="5.69964">
        <ele>187.7</ele>
        <time>2021-04-21T08:47:15Z</time>
      </trkpt>
      <trkpt lat="43.21439" lon="5.69958">
        <ele>188.3</ele>
        <time>2021-04-21T08:47:21Z</time>
      </trkpt>
      <trkpt lat="43.21442" lon="5.69951">
        <ele>188.8</ele>
        <time>2021-04-21T08:47:27Z</time>
      </trkpt>
      <trkpt lat="43.21445" lon="5.69945">
        <ele>189.4</ele>
        <time>2021-04-21T08:47:33Z</time>
      </trkpt>
      <trkpt lat="43.21449" lon="5.69939">
        <ele>190.1</ele>
        <time>2021-04-21T08:47:39Z</time>
      </trkpt>
      <trkpt lat="43.21453" lon="5.69935">
        <ele>190.7</ele>
        <time>2021-04-21T08:47:45Z</time>
      </trkpt>
      <trkpt lat="43.21457" lon="5.69931">
        <ele>191.3</ele>
        <time>2021-04-21T08:47:51Z</time>
      </trkpt>
      <trkpt lat="43.21461" lon="5.69926">
        <ele>191.9</ele>
        <time>2021-04-21T08:47:57Z</time>
      </trkpt>
      <trkpt lat="43.21465" lon="5.69922">
        <ele>192.6</ele>
        <time>2021-04-21T08:48:03Z</time>
      </trkpt>
      <trkpt lat="43.2147" lon="5.69919">
        <ele>193.3</ele>
        <time>2021-04-21T08:48:09Z</time>
      </trkpt>
      <trkpt lat="43.21475" lon="5.69914">
        <ele>194</ele>
        <time>2021-04-21T08:48:15Z</time>
      </trkpt>
      <trkpt lat="43.21479" lon="5.69911">
        <ele>194.6</ele>
        <time>2021-04-21T08:48:19Z</time>
      </trkpt>
      <trkpt lat="43.21484" lon="5.69905">
        <ele>195.3</ele>
        <time>2021-04-21T08:48:25Z</time>
      </trkpt>
      <trkpt lat="43.21487" lon="5.69897">
        <ele>196</ele>
        <time>2021-04-21T08:48:31Z</time>
      </trkpt>
      <trkpt lat="43.2149" lon="5.69891">
        <ele>196.6</ele>
        <time>2021-04-21T08:48:37Z</time>
      </trkpt>
      <trkpt lat="43.21492" lon="5.69884">
        <ele>197.2</ele>
        <time>2021-04-21T08:48:43Z</time>
      </trkpt>
      <trkpt lat="43.21495" lon="5.69877">
        <ele>197.9</ele>
        <time>2021-04-21T08:48:51Z</time>
      </trkpt>
      <trkpt lat="43.21497" lon="5.69869">
        <ele>198.5</ele>
        <time>2021-04-21T08:48:57Z</time>
      </trkpt>
      <trkpt lat="43.21501" lon="5.69862">
        <ele>199.3</ele>
        <time>2021-04-21T08:49:03Z</time>
      </trkpt>
      <trkpt lat="43.21504" lon="5.69856">
        <ele>200.1</ele>
        <time>2021-04-21T08:49:09Z</time>
      </trkpt>
      <trkpt lat="43.21507" lon="5.69851">
        <ele>200.7</ele>
        <time>2021-04-21T08:49:15Z</time>
      </trkpt>
      <trkpt lat="43.21511" lon="5.69848">
        <ele>201.3</ele>
        <time>2021-04-21T08:49:21Z</time>
      </trkpt>
      <trkpt lat="43.21516" lon="5.69845">
        <ele>202</ele>
        <time>2021-04-21T08:49:27Z</time>
      </trkpt>
      <trkpt lat="43.21521" lon="5.69844">
        <ele>202.6</ele>
        <time>2021-04-21T08:49:33Z</time>
      </trkpt>
      <trkpt lat="43.21526" lon="5.69843">
        <ele>203.2</ele>
        <time>2021-04-21T08:49:39Z</time>
      </trkpt>
      <trkpt lat="43.21531" lon="5.69842">
        <ele>203.8</ele>
        <time>2021-04-21T08:49:45Z</time>
      </trkpt>
      <trkpt lat="43.21537" lon="5.69841">
        <ele>204.5</ele>
        <time>2021-04-21T08:49:55Z</time>
      </trkpt>
      <trkpt lat="43.21542" lon="5.69839">
        <ele>205.1</ele>
        <time>2021-04-21T08:50:01Z</time>
      </trkpt>
      <trkpt lat="43.21547" lon="5.6984">
        <ele>205.7</ele>
        <time>2021-04-21T08:50:07Z</time>
      </trkpt>
      <trkpt lat="43.21552" lon="5.69839">
        <ele>206.2</ele>
        <time>2021-04-21T08:50:13Z</time>
      </trkpt>
      <trkpt lat="43.21557" lon="5.69836">
        <ele>207</ele>
        <time>2021-04-21T08:50:21Z</time>
      </trkpt>
      <trkpt lat="43.21562" lon="5.69835">
        <ele>207.6</ele>
        <time>2021-04-21T08:50:27Z</time>
      </trkpt>
      <trkpt lat="43.21568" lon="5.69834">
        <ele>208.2</ele>
        <time>2021-04-21T08:50:35Z</time>
      </trkpt>
      <trkpt lat="43.21572" lon="5.69833">
        <ele>208.8</ele>
        <time>2021-04-21T08:50:41Z</time>
      </trkpt>
      <trkpt lat="43.21577" lon="5.69834">
        <ele>209.3</ele>
        <time>2021-04-21T08:50:47Z</time>
      </trkpt>
      <trkpt lat="43.21583" lon="5.69833">
        <ele>209.9</ele>
        <time>2021-04-21T08:50:53Z</time>
      </trkpt>
      <trkpt lat="43.21587" lon="5.69834">
        <ele>210.3</ele>
        <time>2021-04-21T08:50:59Z</time>
      </trkpt>
      <trkpt lat="43.21592" lon="5.69834">
        <ele>210.8</ele>
        <time>2021-04-21T08:51:05Z</time>
      </trkpt>
      <trkpt lat="43.21597" lon="5.69833">
        <ele>211.3</ele>
        <time>2021-04-21T08:51:11Z</time>
      </trkpt>
      <trkpt lat="43.21602" lon="5.69832">
        <ele>211.8</ele>
        <time>2021-04-21T08:51:17Z</time>
      </trkpt>
      <trkpt lat="43.21608" lon="5.69831">
        <ele>212.3</ele>
        <time>2021-04-21T08:51:23Z</time>
      </trkpt>
      <trkpt lat="43.21613" lon="5.69831">
        <ele>212.8</ele>
        <time>2021-04-21T08:51:31Z</time>
      </trkpt>
      <trkpt lat="43.21617" lon="5.69831">
        <ele>213.2</ele>
        <time>2021-04-21T08:51:45Z</time>
      </trkpt>
      <trkpt lat="43.21613" lon="5.69833">
        <ele>212.8</ele>
        <time>2021-04-21T08:54:07Z</time>
      </trkpt>
      <trkpt lat="43.21618" lon="5.69832">
        <ele>213.3</ele>
        <time>2021-04-21T08:55:03Z</time>
      </trkpt>
      <trkpt lat="43.21622" lon="5.69827">
        <ele>213.7</ele>
        <time>2021-04-21T08:55:13Z</time>
      </trkpt>
      <trkpt lat="43.21627" lon="5.69826">
        <ele>214</ele>
        <time>2021-04-21T08:55:19Z</time>
      </trkpt>
      <trkpt lat="43.21632" lon="5.69824">
        <ele>214.4</ele>
        <time>2021-04-21T08:55:23Z</time>
      </trkpt>
      <trkpt lat="43.21638" lon="5.69823">
        <ele>214.9</ele>
        <time>2021-04-21T08:55:29Z</time>
      </trkpt>
      <trkpt lat="43.21644" lon="5.69822">
        <ele>215.3</ele>
        <time>2021-04-21T08:55:35Z</time>
      </trkpt>
      <trkpt lat="43.21649" lon="5.69821">
        <ele>215.7</ele>
        <time>2021-04-21T08:55:41Z</time>
      </trkpt>
      <trkpt lat="43.21654" lon="5.69819">
        <ele>216</ele>
        <time>2021-04-21T08:55:47Z</time>
      </trkpt>
      <trkpt lat="43.21659" lon="5.69818">
        <ele>216.3</ele>
        <time>2021-04-21T08:55:53Z</time>
      </trkpt>
      <trkpt lat="43.21664" lon="5.69818">
        <ele>216.7</ele>
        <time>2021-04-21T08:55:59Z</time>
      </trkpt>
      <trkpt lat="43.2167" lon="5.69819">
        <ele>216.9</ele>
        <time>2021-04-21T08:56:05Z</time>
      </trkpt>
      <trkpt lat="43.21675" lon="5.69821">
        <ele>216.9</ele>
        <time>2021-04-21T08:56:11Z</time>
      </trkpt>
      <trkpt lat="43.21681" lon="5.69823">
        <ele>217</ele>
        <time>2021-04-21T08:56:17Z</time>
      </trkpt>
      <trkpt lat="43.21686" lon="5.69825">
        <ele>217</ele>
        <time>2021-04-21T08:56:23Z</time>
      </trkpt>
      <trkpt lat="43.21691" lon="5.69828">
        <ele>217.1</ele>
        <time>2021-04-21T08:56:29Z</time>
      </trkpt>
      <trkpt lat="43.21698" lon="5.69831">
        <ele>217.1</ele>
        <time>2021-04-21T08:56:35Z</time>
      </trkpt>
      <trkpt lat="43.21704" lon="5.69834">
        <ele>217.1</ele>
        <time>2021-04-21T08:56:41Z</time>
      </trkpt>
      <trkpt lat="43.2171" lon="5.69837">
        <ele>217</ele>
        <time>2021-04-21T08:56:47Z</time>
      </trkpt>
      <trkpt lat="43.21715" lon="5.6984">
        <ele>217</ele>
        <time>2021-04-21T08:56:53Z</time>
      </trkpt>
      <trkpt lat="43.2172" lon="5.69843">
        <ele>217</ele>
        <time>2021-04-21T08:56:59Z</time>
      </trkpt>
      <trkpt lat="43.21725" lon="5.69846">
        <ele>217.1</ele>
        <time>2021-04-21T08:57:05Z</time>
      </trkpt>
      <trkpt lat="43.21731" lon="5.69848">
        <ele>217.2</ele>
        <time>2021-04-21T08:57:11Z</time>
      </trkpt>
      <trkpt lat="43.21736" lon="5.6985">
        <ele>217.4</ele>
        <time>2021-04-21T08:57:17Z</time>
      </trkpt>
      <trkpt lat="43.21742" lon="5.69853">
        <ele>217.6</ele>
        <time>2021-04-21T08:57:23Z</time>
      </trkpt>
      <trkpt lat="43.21748" lon="5.69856">
        <ele>217.9</ele>
        <time>2021-04-21T08:57:29Z</time>
      </trkpt>
      <trkpt lat="43.21754" lon="5.69858">
        <ele>218.4</ele>
        <time>2021-04-21T08:57:35Z</time>
      </trkpt>
      <trkpt lat="43.21759" lon="5.69861">
        <ele>219.1</ele>
        <time>2021-04-21T08:57:41Z</time>
      </trkpt>
      <trkpt lat="43.21765" lon="5.69864">
        <ele>219.8</ele>
        <time>2021-04-21T08:57:47Z</time>
      </trkpt>
      <trkpt lat="43.21771" lon="5.69867">
        <ele>220.6</ele>
        <time>2021-04-21T08:57:53Z</time>
      </trkpt>
      <trkpt lat="43.21777" lon="5.69869">
        <ele>221.2</ele>
        <time>2021-04-21T08:57:59Z</time>
      </trkpt>
      <trkpt lat="43.21783" lon="5.69871">
        <ele>221.9</ele>
        <time>2021-04-21T08:58:05Z</time>
      </trkpt>
      <trkpt lat="43.21788" lon="5.69873">
        <ele>222.5</ele>
        <time>2021-04-21T08:58:11Z</time>
      </trkpt>
      <trkpt lat="43.21794" lon="5.69875">
        <ele>223.2</ele>
        <time>2021-04-21T08:58:17Z</time>
      </trkpt>
      <trkpt lat="43.21799" lon="5.69878">
        <ele>223.9</ele>
        <time>2021-04-21T08:58:23Z</time>
      </trkpt>
      <trkpt lat="43.21804" lon="5.6988">
        <ele>224.5</ele>
        <time>2021-04-21T08:58:29Z</time>
      </trkpt>
      <trkpt lat="43.21809" lon="5.69883">
        <ele>225.3</ele>
        <time>2021-04-21T08:58:35Z</time>
      </trkpt>
      <trkpt lat="43.21814" lon="5.69884">
        <ele>225.9</ele>
        <time>2021-04-21T08:58:41Z</time>
      </trkpt>
      <trkpt lat="43.2182" lon="5.69886">
        <ele>226.6</ele>
        <time>2021-04-21T08:58:47Z</time>
      </trkpt>
      <trkpt lat="43.21826" lon="5.69888">
        <ele>227.2</ele>
        <time>2021-04-21T08:58:53Z</time>
      </trkpt>
      <trkpt lat="43.21831" lon="5.69889">
        <ele>227.8</ele>
        <time>2021-04-21T08:58:59Z</time>
      </trkpt>
      <trkpt lat="43.21837" lon="5.6989">
        <ele>228.3</ele>
        <time>2021-04-21T08:59:05Z</time>
      </trkpt>
      <trkpt lat="43.21843" lon="5.69891">
        <ele>228.7</ele>
        <time>2021-04-21T08:59:11Z</time>
      </trkpt>
      <trkpt lat="43.21848" lon="5.69893">
        <ele>229.1</ele>
        <time>2021-04-21T08:59:17Z</time>
      </trkpt>
      <trkpt lat="43.21854" lon="5.69894">
        <ele>229.5</ele>
        <time>2021-04-21T08:59:23Z</time>
      </trkpt>
      <trkpt lat="43.21859" lon="5.69896">
        <ele>230</ele>
        <time>2021-04-21T08:59:29Z</time>
      </trkpt>
      <trkpt lat="43.21865" lon="5.69897">
        <ele>230.3</ele>
        <time>2021-04-21T08:59:35Z</time>
      </trkpt>
      <trkpt lat="43.2187" lon="5.69898">
        <ele>230.7</ele>
        <time>2021-04-21T08:59:41Z</time>
      </trkpt>
      <trkpt lat="43.21876" lon="5.699">
        <ele>231.1</ele>
        <time>2021-04-21T08:59:47Z</time>
      </trkpt>
      <trkpt lat="43.21882" lon="5.69901">
        <ele>231.5</ele>
        <time>2021-04-21T08:59:53Z</time>
      </trkpt>
      <trkpt lat="43.21888" lon="5.69903">
        <ele>232</ele>
        <time>2021-04-21T08:59:59Z</time>
      </trkpt>
      <trkpt lat="43.21893" lon="5.69906">
        <ele>232.6</ele>
        <time>2021-04-21T09:00:05Z</time>
      </trkpt>
      <trkpt lat="43.21898" lon="5.69908">
        <ele>233.1</ele>
        <time>2021-04-21T09:00:11Z</time>
      </trkpt>
      <trkpt lat="43.21904" lon="5.69911">
        <ele>233.8</ele>
        <time>2021-04-21T09:00:17Z</time>
      </trkpt>
      <trkpt lat="43.2191" lon="5.69915">
        <ele>234.4</ele>
        <time>2021-04-21T09:00:23Z</time>
      </trkpt>
      <trkpt lat="43.21913" lon="5.69918">
        <ele>234.9</ele>
        <time>2021-04-21T09:00:33Z</time>
      </trkpt>
      <trkpt lat="43.21918" lon="5.69921">
        <ele>235.1</ele>
        <time>2021-04-21T09:01:13Z</time>
      </trkpt>
      <trkpt lat="43.21922" lon="5.6992">
        <ele>235.1</ele>
        <time>2021-04-21T09:01:49Z</time>
      </trkpt>
      <trkpt lat="43.21924" lon="5.69928">
        <ele>235.4</ele>
        <time>2021-04-21T09:02:59Z</time>
      </trkpt>
      <trkpt lat="43.21926" lon="5.69935">
        <ele>235.7</ele>
        <time>2021-04-21T09:03:05Z</time>
      </trkpt>
      <trkpt lat="43.2193" lon="5.69942">
        <ele>236.1</ele>
        <time>2021-04-21T09:03:11Z</time>
      </trkpt>
      <trkpt lat="43.21933" lon="5.69948">
        <ele>236.6</ele>
        <time>2021-04-21T09:03:17Z</time>
      </trkpt>
      <trkpt lat="43.21937" lon="5.69954">
        <ele>237.1</ele>
        <time>2021-04-21T09:03:23Z</time>
      </trkpt>
      <trkpt lat="43.21942" lon="5.69959">
        <ele>237.7</ele>
        <time>2021-04-21T09:03:29Z</time>
      </trkpt>
      <trkpt lat="43.21946" lon="5.69963">
        <ele>238.3</ele>
        <time>2021-04-21T09:03:35Z</time>
      </trkpt>
      <trkpt lat="43.21951" lon="5.69967">
        <ele>238.9</ele>
        <time>2021-04-21T09:03:41Z</time>
      </trkpt>
      <trkpt lat="43.21955" lon="5.6997">
        <ele>239.5</ele>
        <time>2021-04-21T09:03:47Z</time>
      </trkpt>
      <trkpt lat="43.2196" lon="5.69973">
        <ele>240.2</ele>
        <time>2021-04-21T09:03:53Z</time>
      </trkpt>
      <trkpt lat="43.21966" lon="5.69975">
        <ele>240.9</ele>
        <time>2021-04-21T09:03:59Z</time>
      </trkpt>
      <trkpt lat="43.21971" lon="5.69977">
        <ele>241.7</ele>
        <time>2021-04-21T09:04:05Z</time>
      </trkpt>
      <trkpt lat="43.21976" lon="5.6998">
        <ele>242.5</ele>
        <time>2021-04-21T09:04:11Z</time>
      </trkpt>
      <trkpt lat="43.2198" lon="5.69983">
        <ele>243.3</ele>
        <time>2021-04-21T09:04:17Z</time>
      </trkpt>
      <trkpt lat="43.21985" lon="5.69985">
        <ele>244.1</ele>
        <time>2021-04-21T09:04:23Z</time>
      </trkpt>
      <trkpt lat="43.2199" lon="5.69986">
        <ele>244.8</ele>
        <time>2021-04-21T09:04:29Z</time>
      </trkpt>
      <trkpt lat="43.21997" lon="5.69987">
        <ele>245.5</ele>
        <time>2021-04-21T09:04:35Z</time>
      </trkpt>
      <trkpt lat="43.22003" lon="5.69987">
        <ele>246.3</ele>
        <time>2021-04-21T09:04:41Z</time>
      </trkpt>
      <trkpt lat="43.22008" lon="5.69987">
        <ele>247.1</ele>
        <time>2021-04-21T09:04:47Z</time>
      </trkpt>
      <trkpt lat="43.22014" lon="5.69988">
        <ele>247.9</ele>
        <time>2021-04-21T09:04:53Z</time>
      </trkpt>
      <trkpt lat="43.22019" lon="5.69989">
        <ele>248.6</ele>
        <time>2021-04-21T09:04:59Z</time>
      </trkpt>
      <trkpt lat="43.22025" lon="5.69988">
        <ele>249.3</ele>
        <time>2021-04-21T09:05:05Z</time>
      </trkpt>
      <trkpt lat="43.22031" lon="5.69989">
        <ele>250.2</ele>
        <time>2021-04-21T09:05:11Z</time>
      </trkpt>
      <trkpt lat="43.22036" lon="5.69989">
        <ele>250.8</ele>
        <time>2021-04-21T09:05:19Z</time>
      </trkpt>
      <trkpt lat="43.22039" lon="5.69995">
        <ele>252.2</ele>
        <time>2021-04-21T09:05:35Z</time>
      </trkpt>
      <trkpt lat="43.22044" lon="5.69989">
        <ele>251.7</ele>
        <time>2021-04-21T09:08:01Z</time>
      </trkpt>
      <trkpt lat="43.2205" lon="5.69987">
        <ele>252.1</ele>
        <time>2021-04-21T09:08:09Z</time>
      </trkpt>
      <trkpt lat="43.22056" lon="5.69988">
        <ele>253</ele>
        <time>2021-04-21T09:08:15Z</time>
      </trkpt>
      <trkpt lat="43.22061" lon="5.69987">
        <ele>253.5</ele>
        <time>2021-04-21T09:08:21Z</time>
      </trkpt>
      <trkpt lat="43.22067" lon="5.69986">
        <ele>253.9</ele>
        <time>2021-04-21T09:08:27Z</time>
      </trkpt>
      <trkpt lat="43.22072" lon="5.69984">
        <ele>254.3</ele>
        <time>2021-04-21T09:08:33Z</time>
      </trkpt>
      <trkpt lat="43.22078" lon="5.69983">
        <ele>254.8</ele>
        <time>2021-04-21T09:08:39Z</time>
      </trkpt>
      <trkpt lat="43.22083" lon="5.69984">
        <ele>255.5</ele>
        <time>2021-04-21T09:08:45Z</time>
      </trkpt>
      <trkpt lat="43.22089" lon="5.69983">
        <ele>255.6</ele>
        <time>2021-04-21T09:08:51Z</time>
      </trkpt>
      <trkpt lat="43.22095" lon="5.69982">
        <ele>255.9</ele>
        <time>2021-04-21T09:08:57Z</time>
      </trkpt>
      <trkpt lat="43.221" lon="5.69982">
        <ele>256</ele>
        <time>2021-04-21T09:09:01Z</time>
      </trkpt>
      <trkpt lat="43.22105" lon="5.69983">
        <ele>256.5</ele>
        <time>2021-04-21T09:09:07Z</time>
      </trkpt>
      <trkpt lat="43.2211" lon="5.69982">
        <ele>256.7</ele>
        <time>2021-04-21T09:09:11Z</time>
      </trkpt>
      <trkpt lat="43.22115" lon="5.69982">
        <ele>256.8</ele>
        <time>2021-04-21T09:09:17Z</time>
      </trkpt>
      <trkpt lat="43.2212" lon="5.69983">
        <ele>257.4</ele>
        <time>2021-04-21T09:09:25Z</time>
      </trkpt>
      <trkpt lat="43.22126" lon="5.69984">
        <ele>257.9</ele>
        <time>2021-04-21T09:09:31Z</time>
      </trkpt>
      <trkpt lat="43.22131" lon="5.69985">
        <ele>258.3</ele>
        <time>2021-04-21T09:09:37Z</time>
      </trkpt>
      <trkpt lat="43.22136" lon="5.69988">
        <ele>259</ele>
        <time>2021-04-21T09:09:45Z</time>
      </trkpt>
      <trkpt lat="43.22141" lon="5.6999">
        <ele>259.5</ele>
        <time>2021-04-21T09:09:53Z</time>
      </trkpt>
      <trkpt lat="43.22146" lon="5.69992">
        <ele>260.1</ele>
        <time>2021-04-21T09:09:59Z</time>
      </trkpt>
      <trkpt lat="43.22151" lon="5.69994">
        <ele>260.6</ele>
        <time>2021-04-21T09:10:07Z</time>
      </trkpt>
      <trkpt lat="43.22156" lon="5.69995">
        <ele>261</ele>
        <time>2021-04-21T09:10:13Z</time>
      </trkpt>
      <trkpt lat="43.22161" lon="5.69993">
        <ele>260.9</ele>
        <time>2021-04-21T09:10:19Z</time>
      </trkpt>
      <trkpt lat="43.22167" lon="5.6999">
        <ele>260.8</ele>
        <time>2021-04-21T09:10:25Z</time>
      </trkpt>
      <trkpt lat="43.22172" lon="5.69988">
        <ele>260.4</ele>
        <time>2021-04-21T09:10:31Z</time>
      </trkpt>
      <trkpt lat="43.22177" lon="5.69984">
        <ele>259.8</ele>
        <time>2021-04-21T09:10:37Z</time>
      </trkpt>
      <trkpt lat="43.22182" lon="5.69981">
        <ele>259.4</ele>
        <time>2021-04-21T09:10:43Z</time>
      </trkpt>
      <trkpt lat="43.22187" lon="5.69979">
        <ele>259.1</ele>
        <time>2021-04-21T09:10:47Z</time>
      </trkpt>
      <trkpt lat="43.22191" lon="5.69976">
        <ele>258.8</ele>
        <time>2021-04-21T09:10:51Z</time>
      </trkpt>
      <trkpt lat="43.22197" lon="5.69974">
        <ele>258.5</ele>
        <time>2021-04-21T09:10:57Z</time>
      </trkpt>
      <trkpt lat="43.22203" lon="5.69972">
        <ele>258.3</ele>
        <time>2021-04-21T09:11:03Z</time>
      </trkpt>
      <trkpt lat="43.2221" lon="5.69971">
        <ele>258.3</ele>
        <time>2021-04-21T09:11:09Z</time>
      </trkpt>
      <trkpt lat="43.22216" lon="5.69972">
        <ele>258.3</ele>
        <time>2021-04-21T09:11:15Z</time>
      </trkpt>
      <trkpt lat="43.22221" lon="5.69973">
        <ele>258.3</ele>
        <time>2021-04-21T09:11:19Z</time>
      </trkpt>
      <trkpt lat="43.22226" lon="5.69972">
        <ele>258.2</ele>
        <time>2021-04-21T09:11:23Z</time>
      </trkpt>
      <trkpt lat="43.22231" lon="5.69972">
        <ele>258.1</ele>
        <time>2021-04-21T09:11:27Z</time>
      </trkpt>
      <trkpt lat="43.22236" lon="5.69971">
        <ele>258</ele>
        <time>2021-04-21T09:11:31Z</time>
      </trkpt>
      <trkpt lat="43.22242" lon="5.69969">
        <ele>257.9</ele>
        <time>2021-04-21T09:11:37Z</time>
      </trkpt>
      <trkpt lat="43.22248" lon="5.69968">
        <ele>257.9</ele>
        <time>2021-04-21T09:11:43Z</time>
      </trkpt>
      <trkpt lat="43.22255" lon="5.69967">
        <ele>258.2</ele>
        <time>2021-04-21T09:11:49Z</time>
      </trkpt>
      <trkpt lat="43.22259" lon="5.69965">
        <ele>258.6</ele>
        <time>2021-04-21T09:11:53Z</time>
      </trkpt>
      <trkpt lat="43.22266" lon="5.69963">
        <ele>259.2</ele>
        <time>2021-04-21T09:11:59Z</time>
      </trkpt>
      <trkpt lat="43.2227" lon="5.69962">
        <ele>259.6</ele>
        <time>2021-04-21T09:12:03Z</time>
      </trkpt>
      <trkpt lat="43.22275" lon="5.69961">
        <ele>260.1</ele>
        <time>2021-04-21T09:12:07Z</time>
      </trkpt>
      <trkpt lat="43.22282" lon="5.69959">
        <ele>260.7</ele>
        <time>2021-04-21T09:12:13Z</time>
      </trkpt>
      <trkpt lat="43.22288" lon="5.69958">
        <ele>261.4</ele>
        <time>2021-04-21T09:12:19Z</time>
      </trkpt>
      <trkpt lat="43.22294" lon="5.69958">
        <ele>262</ele>
        <time>2021-04-21T09:12:25Z</time>
      </trkpt>
      <trkpt lat="43.22298" lon="5.69959">
        <ele>262.4</ele>
        <time>2021-04-21T09:12:31Z</time>
      </trkpt>
      <trkpt lat="43.22302" lon="5.69962">
        <ele>262.7</ele>
        <time>2021-04-21T09:12:43Z</time>
      </trkpt>
      <trkpt lat="43.22308" lon="5.69964">
        <ele>263.2</ele>
        <time>2021-04-21T09:12:51Z</time>
      </trkpt>
      <trkpt lat="43.22314" lon="5.69967">
        <ele>263.6</ele>
        <time>2021-04-21T09:12:57Z</time>
      </trkpt>
      <trkpt lat="43.22319" lon="5.69971">
        <ele>263.9</ele>
        <time>2021-04-21T09:13:03Z</time>
      </trkpt>
      <trkpt lat="43.22324" lon="5.69974">
        <ele>264.1</ele>
        <time>2021-04-21T09:13:13Z</time>
      </trkpt>
      <trkpt lat="43.22329" lon="5.69978">
        <ele>264.2</ele>
        <time>2021-04-21T09:13:19Z</time>
      </trkpt>
      <trkpt lat="43.22334" lon="5.69981">
        <ele>264.5</ele>
        <time>2021-04-21T09:13:25Z</time>
      </trkpt>
      <trkpt lat="43.2234" lon="5.69983">
        <ele>265</ele>
        <time>2021-04-21T09:13:31Z</time>
      </trkpt>
      <trkpt lat="43.22344" lon="5.69987">
        <ele>265.2</ele>
        <time>2021-04-21T09:13:37Z</time>
      </trkpt>
      <trkpt lat="43.2235" lon="5.69991">
        <ele>265.6</ele>
        <time>2021-04-21T09:13:43Z</time>
      </trkpt>
      <trkpt lat="43.22356" lon="5.69992">
        <ele>266.1</ele>
        <time>2021-04-21T09:13:49Z</time>
      </trkpt>
      <trkpt lat="43.22361" lon="5.69994">
        <ele>266.4</ele>
        <time>2021-04-21T09:13:53Z</time>
      </trkpt>
      <trkpt lat="43.22365" lon="5.69995">
        <ele>266.8</ele>
        <time>2021-04-21T09:13:57Z</time>
      </trkpt>
      <trkpt lat="43.22372" lon="5.69995">
        <ele>267.4</ele>
        <time>2021-04-21T09:14:03Z</time>
      </trkpt>
      <trkpt lat="43.22377" lon="5.69995">
        <ele>268</ele>
        <time>2021-04-21T09:14:09Z</time>
      </trkpt>
      <trkpt lat="43.22384" lon="5.69994">
        <ele>268.9</ele>
        <time>2021-04-21T09:14:15Z</time>
      </trkpt>
      <trkpt lat="43.2239" lon="5.69994">
        <ele>269.5</ele>
        <time>2021-04-21T09:14:21Z</time>
      </trkpt>
      <trkpt lat="43.22397" lon="5.69996">
        <ele>269.9</ele>
        <time>2021-04-21T09:14:27Z</time>
      </trkpt>
      <trkpt lat="43.22401" lon="5.69998">
        <ele>269.8</ele>
        <time>2021-04-21T09:14:31Z</time>
      </trkpt>
      <trkpt lat="43.22406" lon="5.70003">
        <ele>269.3</ele>
        <time>2021-04-21T09:14:37Z</time>
      </trkpt>
      <trkpt lat="43.2241" lon="5.70007">
        <ele>269</ele>
        <time>2021-04-21T09:14:41Z</time>
      </trkpt>
      <trkpt lat="43.22415" lon="5.7001">
        <ele>268.7</ele>
        <time>2021-04-21T09:14:45Z</time>
      </trkpt>
      <trkpt lat="43.2242" lon="5.70014">
        <ele>268.4</ele>
        <time>2021-04-21T09:14:51Z</time>
      </trkpt>
      <trkpt lat="43.22425" lon="5.70017">
        <ele>268.2</ele>
        <time>2021-04-21T09:14:55Z</time>
      </trkpt>
      <trkpt lat="43.22429" lon="5.70019">
        <ele>268.3</ele>
        <time>2021-04-21T09:14:59Z</time>
      </trkpt>
      <trkpt lat="43.22434" lon="5.70022">
        <ele>268.3</ele>
        <time>2021-04-21T09:15:03Z</time>
      </trkpt>
      <trkpt lat="43.22438" lon="5.70023">
        <ele>268.5</ele>
        <time>2021-04-21T09:15:07Z</time>
      </trkpt>
      <trkpt lat="43.22443" lon="5.70024">
        <ele>268.8</ele>
        <time>2021-04-21T09:15:11Z</time>
      </trkpt>
      <trkpt lat="43.22449" lon="5.70026">
        <ele>269.4</ele>
        <time>2021-04-21T09:15:17Z</time>
      </trkpt>
      <trkpt lat="43.22454" lon="5.70025">
        <ele>269.9</ele>
        <time>2021-04-21T09:15:21Z</time>
      </trkpt>
      <trkpt lat="43.22459" lon="5.70025">
        <ele>270.5</ele>
        <time>2021-04-21T09:15:25Z</time>
      </trkpt>
      <trkpt lat="43.22465" lon="5.70023">
        <ele>271.4</ele>
        <time>2021-04-21T09:15:31Z</time>
      </trkpt>
      <trkpt lat="43.22472" lon="5.70022">
        <ele>272.1</ele>
        <time>2021-04-21T09:15:37Z</time>
      </trkpt>
      <trkpt lat="43.22476" lon="5.70021">
        <ele>272.6</ele>
        <time>2021-04-21T09:15:41Z</time>
      </trkpt>
      <trkpt lat="43.22483" lon="5.70021">
        <ele>273.3</ele>
        <time>2021-04-21T09:15:47Z</time>
      </trkpt>
      <trkpt lat="43.22489" lon="5.70019">
        <ele>274</ele>
        <time>2021-04-21T09:15:53Z</time>
      </trkpt>
      <trkpt lat="43.22494" lon="5.70019">
        <ele>274.4</ele>
        <time>2021-04-21T09:15:57Z</time>
      </trkpt>
      <trkpt lat="43.22499" lon="5.70019">
        <ele>274.9</ele>
        <time>2021-04-21T09:16:01Z</time>
      </trkpt>
      <trkpt lat="43.22504" lon="5.70019">
        <ele>275.8</ele>
        <time>2021-04-21T09:16:07Z</time>
      </trkpt>
      <trkpt lat="43.22509" lon="5.70018">
        <ele>276.8</ele>
        <time>2021-04-21T09:16:13Z</time>
      </trkpt>
      <trkpt lat="43.22514" lon="5.70018">
        <ele>277.8</ele>
        <time>2021-04-21T09:16:21Z</time>
      </trkpt>
      <trkpt lat="43.22519" lon="5.7002">
        <ele>278.8</ele>
        <time>2021-04-21T09:16:39Z</time>
      </trkpt>
      <trkpt lat="43.22514" lon="5.70019">
        <ele>277.9</ele>
        <time>2021-04-21T09:17:15Z</time>
      </trkpt>
      <trkpt lat="43.22513" lon="5.70027">
        <ele>277.7</ele>
        <time>2021-04-21T09:17:25Z</time>
      </trkpt>
      <trkpt lat="43.22514" lon="5.70034">
        <ele>277.9</ele>
        <time>2021-04-21T09:18:41Z</time>
      </trkpt>
      <trkpt lat="43.22512" lon="5.7004">
        <ele>277.5</ele>
        <time>2021-04-21T09:18:47Z</time>
      </trkpt>
      <trkpt lat="43.22508" lon="5.70046">
        <ele>276.7</ele>
        <time>2021-04-21T09:18:53Z</time>
      </trkpt>
      <trkpt lat="43.22504" lon="5.70052">
        <ele>275.8</ele>
        <time>2021-04-21T09:18:59Z</time>
      </trkpt>
      <trkpt lat="43.225" lon="5.70057">
        <ele>274.9</ele>
        <time>2021-04-21T09:19:05Z</time>
      </trkpt>
      <trkpt lat="43.22495" lon="5.70063">
        <ele>273.9</ele>
        <time>2021-04-21T09:19:11Z</time>
      </trkpt>
      <trkpt lat="43.22491" lon="5.70069">
        <ele>273</ele>
        <time>2021-04-21T09:19:17Z</time>
      </trkpt>
      <trkpt lat="43.22486" lon="5.70074">
        <ele>271.9</ele>
        <time>2021-04-21T09:19:23Z</time>
      </trkpt>
      <trkpt lat="43.22482" lon="5.70079">
        <ele>270.8</ele>
        <time>2021-04-21T09:19:29Z</time>
      </trkpt>
      <trkpt lat="43.22478" lon="5.70082">
        <ele>269.4</ele>
        <time>2021-04-21T09:19:35Z</time>
      </trkpt>
      <trkpt lat="43.22473" lon="5.70088">
        <ele>268.6</ele>
        <time>2021-04-21T09:19:41Z</time>
      </trkpt>
      <trkpt lat="43.22469" lon="5.70094">
        <ele>268.1</ele>
        <time>2021-04-21T09:19:47Z</time>
      </trkpt>
      <trkpt lat="43.22466" lon="5.70099">
        <ele>267.7</ele>
        <time>2021-04-21T09:19:53Z</time>
      </trkpt>
      <trkpt lat="43.22463" lon="5.70105">
        <ele>267.4</ele>
        <time>2021-04-21T09:20:05Z</time>
      </trkpt>
      <trkpt lat="43.2246" lon="5.70111">
        <ele>267.1</ele>
        <time>2021-04-21T09:20:11Z</time>
      </trkpt>
      <trkpt lat="43.22456" lon="5.70117">
        <ele>266.7</ele>
        <time>2021-04-21T09:20:17Z</time>
      </trkpt>
      <trkpt lat="43.22451" lon="5.70122">
        <ele>266.1</ele>
        <time>2021-04-21T09:20:23Z</time>
      </trkpt>
      <trkpt lat="43.22446" lon="5.70128">
        <ele>265.5</ele>
        <time>2021-04-21T09:20:29Z</time>
      </trkpt>
      <trkpt lat="43.22441" lon="5.70132">
        <ele>264.7</ele>
        <time>2021-04-21T09:20:35Z</time>
      </trkpt>
      <trkpt lat="43.22436" lon="5.70135">
        <ele>264</ele>
        <time>2021-04-21T09:20:41Z</time>
      </trkpt>
      <trkpt lat="43.22432" lon="5.7014">
        <ele>263.6</ele>
        <time>2021-04-21T09:20:49Z</time>
      </trkpt>
      <trkpt lat="43.22427" lon="5.70143">
        <ele>262.7</ele>
        <time>2021-04-21T09:20:55Z</time>
      </trkpt>
      <trkpt lat="43.22421" lon="5.70145">
        <ele>261.5</ele>
        <time>2021-04-21T09:21:01Z</time>
      </trkpt>
      <trkpt lat="43.22416" lon="5.70146">
        <ele>260.7</ele>
        <time>2021-04-21T09:21:05Z</time>
      </trkpt>
      <trkpt lat="43.22411" lon="5.7015">
        <ele>260.2</ele>
        <time>2021-04-21T09:21:11Z</time>
      </trkpt>
      <trkpt lat="43.22407" lon="5.70152">
        <ele>259.6</ele>
        <time>2021-04-21T09:21:15Z</time>
      </trkpt>
      <trkpt lat="43.22402" lon="5.70154">
        <ele>259</ele>
        <time>2021-04-21T09:21:19Z</time>
      </trkpt>
      <trkpt lat="43.22397" lon="5.70156">
        <ele>258.2</ele>
        <time>2021-04-21T09:21:25Z</time>
      </trkpt>
      <trkpt lat="43.22391" lon="5.70158">
        <ele>257.2</ele>
        <time>2021-04-21T09:21:31Z</time>
      </trkpt>
      <trkpt lat="43.22386" lon="5.70163">
        <ele>256.7</ele>
        <time>2021-04-21T09:21:37Z</time>
      </trkpt>
      <trkpt lat="43.2238" lon="5.70164">
        <ele>255.8</ele>
        <time>2021-04-21T09:21:43Z</time>
      </trkpt>
      <trkpt lat="43.22375" lon="5.70165">
        <ele>254.9</ele>
        <time>2021-04-21T09:21:49Z</time>
      </trkpt>
      <trkpt lat="43.22371" lon="5.70166">
        <ele>254.1</ele>
        <time>2021-04-21T09:21:53Z</time>
      </trkpt>
      <trkpt lat="43.22364" lon="5.70166">
        <ele>252.8</ele>
        <time>2021-04-21T09:21:59Z</time>
      </trkpt>
      <trkpt lat="43.22357" lon="5.70167">
        <ele>251.6</ele>
        <time>2021-04-21T09:22:05Z</time>
      </trkpt>
      <trkpt lat="43.22351" lon="5.70167">
        <ele>250.4</ele>
        <time>2021-04-21T09:22:11Z</time>
      </trkpt>
      <trkpt lat="43.22346" lon="5.70168">
        <ele>249.5</ele>
        <time>2021-04-21T09:22:17Z</time>
      </trkpt>
      <trkpt lat="43.2234" lon="5.70168">
        <ele>248.4</ele>
        <time>2021-04-21T09:22:23Z</time>
      </trkpt>
      <trkpt lat="43.22334" lon="5.70169">
        <ele>247.3</ele>
        <time>2021-04-21T09:22:29Z</time>
      </trkpt>
      <trkpt lat="43.22329" lon="5.7017">
        <ele>246.3</ele>
        <time>2021-04-21T09:22:35Z</time>
      </trkpt>
      <trkpt lat="43.22325" lon="5.70172">
        <ele>245.3</ele>
        <time>2021-04-21T09:22:41Z</time>
      </trkpt>
      <trkpt lat="43.2232" lon="5.70173">
        <ele>244.3</ele>
        <time>2021-04-21T09:22:47Z</time>
      </trkpt>
      <trkpt lat="43.22316" lon="5.70176">
        <ele>243.3</ele>
        <time>2021-04-21T09:22:55Z</time>
      </trkpt>
      <trkpt lat="43.2231" lon="5.70178">
        <ele>241.9</ele>
        <time>2021-04-21T09:23:03Z</time>
      </trkpt>
      <trkpt lat="43.22305" lon="5.70179">
        <ele>240.7</ele>
        <time>2021-04-21T09:23:11Z</time>
      </trkpt>
      <trkpt lat="43.223" lon="5.70179">
        <ele>239.6</ele>
        <time>2021-04-21T09:23:19Z</time>
      </trkpt>
      <trkpt lat="43.22295" lon="5.70179">
        <ele>238.4</ele>
        <time>2021-04-21T09:23:29Z</time>
      </trkpt>
      <trkpt lat="43.22291" lon="5.7018">
        <ele>237.3</ele>
        <time>2021-04-21T09:23:39Z</time>
      </trkpt>
      <trkpt lat="43.22286" lon="5.70182">
        <ele>236.3</ele>
        <time>2021-04-21T09:23:47Z</time>
      </trkpt>
      <trkpt lat="43.22281" lon="5.70182">
        <ele>235</ele>
        <time>2021-04-21T09:23:55Z</time>
      </trkpt>
      <trkpt lat="43.22277" lon="5.70185">
        <ele>234</ele>
        <time>2021-04-21T09:24:03Z</time>
      </trkpt>
      <trkpt lat="43.22272" lon="5.70189">
        <ele>232.9</ele>
        <time>2021-04-21T09:24:11Z</time>
      </trkpt>
      <trkpt lat="43.22268" lon="5.70195">
        <ele>232</ele>
        <time>2021-04-21T09:24:19Z</time>
      </trkpt>
      <trkpt lat="43.22266" lon="5.70201">
        <ele>231.6</ele>
        <time>2021-04-21T09:24:25Z</time>
      </trkpt>
      <trkpt lat="43.22263" lon="5.70208">
        <ele>231.1</ele>
        <time>2021-04-21T09:24:31Z</time>
      </trkpt>
      <trkpt lat="43.22262" lon="5.70216">
        <ele>230.9</ele>
        <time>2021-04-21T09:24:37Z</time>
      </trkpt>
      <trkpt lat="43.22261" lon="5.70225">
        <ele>230.8</ele>
        <time>2021-04-21T09:24:43Z</time>
      </trkpt>
      <trkpt lat="43.22259" lon="5.70234">
        <ele>230.3</ele>
        <time>2021-04-21T09:24:49Z</time>
      </trkpt>
      <trkpt lat="43.22258" lon="5.70242">
        <ele>230.2</ele>
        <time>2021-04-21T09:24:55Z</time>
      </trkpt>
      <trkpt lat="43.22258" lon="5.70251">
        <ele>230.4</ele>
        <time>2021-04-21T09:25:01Z</time>
      </trkpt>
      <trkpt lat="43.22259" lon="5.70259">
        <ele>230.7</ele>
        <time>2021-04-21T09:25:07Z</time>
      </trkpt>
      <trkpt lat="43.22259" lon="5.70267">
        <ele>230.7</ele>
        <time>2021-04-21T09:25:13Z</time>
      </trkpt>
      <trkpt lat="43.2226" lon="5.70275">
        <ele>230.7</ele>
        <time>2021-04-21T09:25:19Z</time>
      </trkpt>
      <trkpt lat="43.22258" lon="5.70284">
        <ele>230.3</ele>
        <time>2021-04-21T09:25:25Z</time>
      </trkpt>
      <trkpt lat="43.22258" lon="5.70292">
        <ele>230.1</ele>
        <time>2021-04-21T09:25:31Z</time>
      </trkpt>
      <trkpt lat="43.22254" lon="5.70298">
        <ele>229.2</ele>
        <time>2021-04-21T09:25:37Z</time>
      </trkpt>
      <trkpt lat="43.22251" lon="5.70304">
        <ele>228.3</ele>
        <time>2021-04-21T09:25:43Z</time>
      </trkpt>
      <trkpt lat="43.22249" lon="5.7031">
        <ele>227.8</ele>
        <time>2021-04-21T09:25:49Z</time>
      </trkpt>
      <trkpt lat="43.22248" lon="5.70318">
        <ele>227.4</ele>
        <time>2021-04-21T09:25:55Z</time>
      </trkpt>
      <trkpt lat="43.22245" lon="5.70326">
        <ele>226.6</ele>
        <time>2021-04-21T09:26:01Z</time>
      </trkpt>
      <trkpt lat="43.22243" lon="5.70333">
        <ele>225.7</ele>
        <time>2021-04-21T09:26:07Z</time>
      </trkpt>
      <trkpt lat="43.22239" lon="5.70341">
        <ele>224.6</ele>
        <time>2021-04-21T09:26:13Z</time>
      </trkpt>
      <trkpt lat="43.22237" lon="5.70348">
        <ele>223.8</ele>
        <time>2021-04-21T09:26:19Z</time>
      </trkpt>
      <trkpt lat="43.22234" lon="5.70356">
        <ele>222.8</ele>
        <time>2021-04-21T09:26:25Z</time>
      </trkpt>
      <trkpt lat="43.22232" lon="5.70364">
        <ele>222</ele>
        <time>2021-04-21T09:26:31Z</time>
      </trkpt>
      <trkpt lat="43.2223" lon="5.70371">
        <ele>221.2</ele>
        <time>2021-04-21T09:26:37Z</time>
      </trkpt>
      <trkpt lat="43.22227" lon="5.70379">
        <ele>220.4</ele>
        <time>2021-04-21T09:26:43Z</time>
      </trkpt>
      <trkpt lat="43.22225" lon="5.70387">
        <ele>219.4</ele>
        <time>2021-04-21T09:26:49Z</time>
      </trkpt>
      <trkpt lat="43.22223" lon="5.70393">
        <ele>218.8</ele>
        <time>2021-04-21T09:26:53Z</time>
      </trkpt>
      <trkpt lat="43.22221" lon="5.704">
        <ele>218.1</ele>
        <time>2021-04-21T09:26:59Z</time>
      </trkpt>
      <trkpt lat="43.2222" lon="5.70408">
        <ele>217.6</ele>
        <time>2021-04-21T09:27:05Z</time>
      </trkpt>
      <trkpt lat="43.22218" lon="5.70417">
        <ele>216.9</ele>
        <time>2021-04-21T09:27:11Z</time>
      </trkpt>
      <trkpt lat="43.22215" lon="5.70425">
        <ele>215.3</ele>
        <time>2021-04-21T09:27:17Z</time>
      </trkpt>
      <trkpt lat="43.22213" lon="5.70433">
        <ele>214.2</ele>
        <time>2021-04-21T09:27:23Z</time>
      </trkpt>
      <trkpt lat="43.22211" lon="5.7044">
        <ele>213.1</ele>
        <time>2021-04-21T09:27:29Z</time>
      </trkpt>
      <trkpt lat="43.22209" lon="5.70449">
        <ele>212</ele>
        <time>2021-04-21T09:27:35Z</time>
      </trkpt>
      <trkpt lat="43.22206" lon="5.70457">
        <ele>210.8</ele>
        <time>2021-04-21T09:27:41Z</time>
      </trkpt>
      <trkpt lat="43.22204" lon="5.70463">
        <ele>210.1</ele>
        <time>2021-04-21T09:27:47Z</time>
      </trkpt>
      <trkpt lat="43.22203" lon="5.70469">
        <ele>209.5</ele>
        <time>2021-04-21T09:27:53Z</time>
      </trkpt>
      <trkpt lat="43.22201" lon="5.70475">
        <ele>208.9</ele>
        <time>2021-04-21T09:27:59Z</time>
      </trkpt>
      <trkpt lat="43.22198" lon="5.70483">
        <ele>208.1</ele>
        <time>2021-04-21T09:28:05Z</time>
      </trkpt>
      <trkpt lat="43.22198" lon="5.7049">
        <ele>207.8</ele>
        <time>2021-04-21T09:28:11Z</time>
      </trkpt>
      <trkpt lat="43.22198" lon="5.70496">
        <ele>207.6</ele>
        <time>2021-04-21T09:28:25Z</time>
      </trkpt>
      <trkpt lat="43.22195" lon="5.70502">
        <ele>206.9</ele>
        <time>2021-04-21T09:29:27Z</time>
      </trkpt>
      <trkpt lat="43.2219" lon="5.70507">
        <ele>205.7</ele>
        <time>2021-04-21T09:29:33Z</time>
      </trkpt>
      <trkpt lat="43.22187" lon="5.70512">
        <ele>204.8</ele>
        <time>2021-04-21T09:29:39Z</time>
      </trkpt>
      <trkpt lat="43.22182" lon="5.70517">
        <ele>203.9</ele>
        <time>2021-04-21T09:29:45Z</time>
      </trkpt>
      <trkpt lat="43.22177" lon="5.7052">
        <ele>203.2</ele>
        <time>2021-04-21T09:29:51Z</time>
      </trkpt>
      <trkpt lat="43.22173" lon="5.70525">
        <ele>202.5</ele>
        <time>2021-04-21T09:29:57Z</time>
      </trkpt>
      <trkpt lat="43.22168" lon="5.70531">
        <ele>201.8</ele>
        <time>2021-04-21T09:30:03Z</time>
      </trkpt>
      <trkpt lat="43.22163" lon="5.70536">
        <ele>200.7</ele>
        <time>2021-04-21T09:30:09Z</time>
      </trkpt>
      <trkpt lat="43.22159" lon="5.70541">
        <ele>199.3</ele>
        <time>2021-04-21T09:30:15Z</time>
      </trkpt>
      <trkpt lat="43.22154" lon="5.70547">
        <ele>197.8</ele>
        <time>2021-04-21T09:30:21Z</time>
      </trkpt>
      <trkpt lat="43.22155" lon="5.70554">
        <ele>197.5</ele>
        <time>2021-04-21T09:30:25Z</time>
      </trkpt>
      <trkpt lat="43.22158" lon="5.70559">
        <ele>197.9</ele>
        <time>2021-04-21T09:30:29Z</time>
      </trkpt>
      <trkpt lat="43.22163" lon="5.7056">
        <ele>199</ele>
        <time>2021-04-21T09:30:33Z</time>
      </trkpt>
      <trkpt lat="43.22169" lon="5.70559">
        <ele>199.8</ele>
        <time>2021-04-21T09:30:37Z</time>
      </trkpt>
      <trkpt lat="43.22174" lon="5.70557">
        <ele>199.9</ele>
        <time>2021-04-21T09:30:41Z</time>
      </trkpt>
      <trkpt lat="43.2218" lon="5.70555">
        <ele>200</ele>
        <time>2021-04-21T09:30:45Z</time>
      </trkpt>
      <trkpt lat="43.22185" lon="5.70553">
        <ele>200.3</ele>
        <time>2021-04-21T09:30:49Z</time>
      </trkpt>
      <trkpt lat="43.22189" lon="5.70551">
        <ele>200.5</ele>
        <time>2021-04-21T09:30:53Z</time>
      </trkpt>
      <trkpt lat="43.22195" lon="5.70548">
        <ele>200.8</ele>
        <time>2021-04-21T09:30:57Z</time>
      </trkpt>
      <trkpt lat="43.22199" lon="5.70546">
        <ele>201.2</ele>
        <time>2021-04-21T09:31:01Z</time>
      </trkpt>
      <trkpt lat="43.22204" lon="5.70545">
        <ele>201.4</ele>
        <time>2021-04-21T09:31:05Z</time>
      </trkpt>
      <trkpt lat="43.2221" lon="5.70545">
        <ele>201.5</ele>
        <time>2021-04-21T09:31:11Z</time>
      </trkpt>
      <trkpt lat="43.22216" lon="5.70543">
        <ele>202</ele>
        <time>2021-04-21T09:31:17Z</time>
      </trkpt>
      <trkpt lat="43.22222" lon="5.7054">
        <ele>202.6</ele>
        <time>2021-04-21T09:31:23Z</time>
      </trkpt>
      <trkpt lat="43.22228" lon="5.70537">
        <ele>203.4</ele>
        <time>2021-04-21T09:31:29Z</time>
      </trkpt>
      <trkpt lat="43.22233" lon="5.70535">
        <ele>204.1</ele>
        <time>2021-04-21T09:31:35Z</time>
      </trkpt>
      <trkpt lat="43.22239" lon="5.70531">
        <ele>205.1</ele>
        <time>2021-04-21T09:31:41Z</time>
      </trkpt>
      <trkpt lat="43.22245" lon="5.70527">
        <ele>206.3</ele>
        <time>2021-04-21T09:31:47Z</time>
      </trkpt>
      <trkpt lat="43.2225" lon="5.70523">
        <ele>207.4</ele>
        <time>2021-04-21T09:31:53Z</time>
      </trkpt>
      <trkpt lat="43.22254" lon="5.70517">
        <ele>208.4</ele>
        <time>2021-04-21T09:31:59Z</time>
      </trkpt>
      <trkpt lat="43.22258" lon="5.70513">
        <ele>209</ele>
        <time>2021-04-21T09:32:03Z</time>
      </trkpt>
      <trkpt lat="43.22262" lon="5.70509">
        <ele>209.5</ele>
        <time>2021-04-21T09:32:09Z</time>
      </trkpt>
      <trkpt lat="43.22268" lon="5.70506">
        <ele>209.4</ele>
        <time>2021-04-21T09:32:15Z</time>
      </trkpt>
      <trkpt lat="43.22273" lon="5.70506">
        <ele>208.9</ele>
        <time>2021-04-21T09:32:19Z</time>
      </trkpt>
      <trkpt lat="43.22278" lon="5.70504">
        <ele>208.5</ele>
        <time>2021-04-21T09:32:23Z</time>
      </trkpt>
      <trkpt lat="43.22284" lon="5.70503">
        <ele>207.9</ele>
        <time>2021-04-21T09:32:29Z</time>
      </trkpt>
      <trkpt lat="43.2229" lon="5.70504">
        <ele>207.2</ele>
        <time>2021-04-21T09:32:35Z</time>
      </trkpt>
      <trkpt lat="43.22295" lon="5.70503">
        <ele>206.7</ele>
        <time>2021-04-21T09:32:41Z</time>
      </trkpt>
      <trkpt lat="43.22299" lon="5.70504">
        <ele>205.9</ele>
        <time>2021-04-21T09:32:51Z</time>
      </trkpt>
      <trkpt lat="43.22304" lon="5.70503">
        <ele>205.5</ele>
        <time>2021-04-21T09:33:51Z</time>
      </trkpt>
      <trkpt lat="43.22309" lon="5.70501">
        <ele>205</ele>
        <time>2021-04-21T09:33:59Z</time>
      </trkpt>
      <trkpt lat="43.22314" lon="5.705">
        <ele>204.5</ele>
        <time>2021-04-21T09:34:05Z</time>
      </trkpt>
      <trkpt lat="43.22319" lon="5.70498">
        <ele>204.4</ele>
        <time>2021-04-21T09:34:11Z</time>
      </trkpt>
      <trkpt lat="43.22325" lon="5.70495">
        <ele>204.7</ele>
        <time>2021-04-21T09:34:17Z</time>
      </trkpt>
      <trkpt lat="43.22329" lon="5.70492">
        <ele>204.8</ele>
        <time>2021-04-21T09:34:23Z</time>
      </trkpt>
      <trkpt lat="43.22335" lon="5.70487">
        <ele>206.1</ele>
        <time>2021-04-21T09:34:29Z</time>
      </trkpt>
      <trkpt lat="43.22339" lon="5.7048">
        <ele>208</ele>
        <time>2021-04-21T09:34:35Z</time>
      </trkpt>
      <trkpt lat="43.22342" lon="5.70475">
        <ele>209.4</ele>
        <time>2021-04-21T09:34:41Z</time>
      </trkpt>
      <trkpt lat="43.22346" lon="5.7047">
        <ele>210.5</ele>
        <time>2021-04-21T09:34:45Z</time>
      </trkpt>
      <trkpt lat="43.22349" lon="5.70465">
        <ele>211.6</ele>
        <time>2021-04-21T09:34:49Z</time>
      </trkpt>
      <trkpt lat="43.22353" lon="5.70461">
        <ele>212.5</ele>
        <time>2021-04-21T09:34:55Z</time>
      </trkpt>
      <trkpt lat="43.22357" lon="5.70454">
        <ele>213.8</ele>
        <time>2021-04-21T09:35:01Z</time>
      </trkpt>
      <trkpt lat="43.2236" lon="5.70449">
        <ele>214.8</ele>
        <time>2021-04-21T09:35:05Z</time>
      </trkpt>
      <trkpt lat="43.22364" lon="5.70444">
        <ele>215.3</ele>
        <time>2021-04-21T09:35:11Z</time>
      </trkpt>
      <trkpt lat="43.22369" lon="5.7044">
        <ele>215.6</ele>
        <time>2021-04-21T09:35:17Z</time>
      </trkpt>
      <trkpt lat="43.22375" lon="5.70436">
        <ele>215.5</ele>
        <time>2021-04-21T09:35:23Z</time>
      </trkpt>
      <trkpt lat="43.22381" lon="5.70433">
        <ele>215.2</ele>
        <time>2021-04-21T09:35:29Z</time>
      </trkpt>
      <trkpt lat="43.22385" lon="5.70431">
        <ele>214.8</ele>
        <time>2021-04-21T09:35:33Z</time>
      </trkpt>
      <trkpt lat="43.22391" lon="5.70431">
        <ele>213.9</ele>
        <time>2021-04-21T09:35:39Z</time>
      </trkpt>
      <trkpt lat="43.22397" lon="5.7043">
        <ele>213</ele>
        <time>2021-04-21T09:35:45Z</time>
      </trkpt>
      <trkpt lat="43.22404" lon="5.70431">
        <ele>211.8</ele>
        <time>2021-04-21T09:35:51Z</time>
      </trkpt>
      <trkpt lat="43.22408" lon="5.70432">
        <ele>211</ele>
        <time>2021-04-21T09:35:55Z</time>
      </trkpt>
      <trkpt lat="43.22413" lon="5.70432">
        <ele>210.1</ele>
        <time>2021-04-21T09:35:59Z</time>
      </trkpt>
      <trkpt lat="43.22417" lon="5.70433">
        <ele>209.5</ele>
        <time>2021-04-21T09:36:03Z</time>
      </trkpt>
      <trkpt lat="43.22424" lon="5.70435">
        <ele>209.5</ele>
        <time>2021-04-21T09:36:09Z</time>
      </trkpt>
      <trkpt lat="43.22428" lon="5.70437">
        <ele>209.5</ele>
        <time>2021-04-21T09:36:13Z</time>
      </trkpt>
      <trkpt lat="43.22433" lon="5.70439">
        <ele>209.6</ele>
        <time>2021-04-21T09:36:17Z</time>
      </trkpt>
      <trkpt lat="43.22437" lon="5.7044">
        <ele>209.7</ele>
        <time>2021-04-21T09:36:21Z</time>
      </trkpt>
      <trkpt lat="43.22443" lon="5.70443">
        <ele>209.9</ele>
        <time>2021-04-21T09:36:27Z</time>
      </trkpt>
      <trkpt lat="43.22448" lon="5.70445">
        <ele>210.1</ele>
        <time>2021-04-21T09:36:33Z</time>
      </trkpt>
      <trkpt lat="43.22453" lon="5.70445">
        <ele>210.4</ele>
        <time>2021-04-21T09:36:39Z</time>
      </trkpt>
      <trkpt lat="43.22459" lon="5.70446">
        <ele>210.7</ele>
        <time>2021-04-21T09:36:45Z</time>
      </trkpt>
      <trkpt lat="43.22464" lon="5.70448">
        <ele>211</ele>
        <time>2021-04-21T09:36:51Z</time>
      </trkpt>
      <trkpt lat="43.22469" lon="5.70451">
        <ele>211.3</ele>
        <time>2021-04-21T09:36:57Z</time>
      </trkpt>
      <trkpt lat="43.22475" lon="5.70451">
        <ele>211.7</ele>
        <time>2021-04-21T09:37:03Z</time>
      </trkpt>
      <trkpt lat="43.2248" lon="5.70451">
        <ele>212.1</ele>
        <time>2021-04-21T09:37:09Z</time>
      </trkpt>
      <trkpt lat="43.22484" lon="5.7045">
        <ele>212.3</ele>
        <time>2021-04-21T09:37:15Z</time>
      </trkpt>
      <trkpt lat="43.2249" lon="5.7045">
        <ele>212.7</ele>
        <time>2021-04-21T09:37:21Z</time>
      </trkpt>
      <trkpt lat="43.22496" lon="5.70449">
        <ele>213.1</ele>
        <time>2021-04-21T09:37:27Z</time>
      </trkpt>
      <trkpt lat="43.22502" lon="5.70447">
        <ele>213.4</ele>
        <time>2021-04-21T09:37:33Z</time>
      </trkpt>
      <trkpt lat="43.22507" lon="5.70446">
        <ele>214</ele>
        <time>2021-04-21T09:37:41Z</time>
      </trkpt>
      <trkpt lat="43.22512" lon="5.70446">
        <ele>214.5</ele>
        <time>2021-04-21T09:37:49Z</time>
      </trkpt>
      <trkpt lat="43.22517" lon="5.70445">
        <ele>215</ele>
        <time>2021-04-21T09:37:55Z</time>
      </trkpt>
      <trkpt lat="43.22522" lon="5.70445">
        <ele>215.5</ele>
        <time>2021-04-21T09:38:01Z</time>
      </trkpt>
      <trkpt lat="43.22527" lon="5.70445">
        <ele>216.1</ele>
        <time>2021-04-21T09:38:07Z</time>
      </trkpt>
      <trkpt lat="43.22533" lon="5.70448">
        <ele>217</ele>
        <time>2021-04-21T09:38:15Z</time>
      </trkpt>
      <trkpt lat="43.22538" lon="5.70449">
        <ele>217.7</ele>
        <time>2021-04-21T09:38:19Z</time>
      </trkpt>
      <trkpt lat="43.22543" lon="5.70451">
        <ele>218.5</ele>
        <time>2021-04-21T09:38:25Z</time>
      </trkpt>
      <trkpt lat="43.22548" lon="5.70453">
        <ele>219.4</ele>
        <time>2021-04-21T09:38:33Z</time>
      </trkpt>
      <trkpt lat="43.22553" lon="5.70458">
        <ele>220.5</ele>
        <time>2021-04-21T09:38:43Z</time>
      </trkpt>
      <trkpt lat="43.22556" lon="5.70462">
        <ele>221.5</ele>
        <time>2021-04-21T09:38:51Z</time>
      </trkpt>
      <trkpt lat="43.22557" lon="5.70469">
        <ele>222.7</ele>
        <time>2021-04-21T09:38:59Z</time>
      </trkpt>
      <trkpt lat="43.22557" lon="5.70477">
        <ele>223.6</ele>
        <time>2021-04-21T09:39:07Z</time>
      </trkpt>
      <trkpt lat="43.22557" lon="5.70483">
        <ele>224.4</ele>
        <time>2021-04-21T09:40:33Z</time>
      </trkpt>
      <trkpt lat="43.22561" lon="5.7048">
        <ele>224.6</ele>
        <time>2021-04-21T09:40:55Z</time>
      </trkpt>
      <trkpt lat="43.22567" lon="5.70483">
        <ele>225.8</ele>
        <time>2021-04-21T09:44:21Z</time>
      </trkpt>
      <trkpt lat="43.22574" lon="5.70476">
        <ele>225.9</ele>
        <time>2021-04-21T09:44:27Z</time>
      </trkpt>
      <trkpt lat="43.22572" lon="5.70469">
        <ele>224.6</ele>
        <time>2021-04-21T09:44:35Z</time>
      </trkpt>
      <trkpt lat="43.2257" lon="5.70462">
        <ele>223.4</ele>
        <time>2021-04-21T09:44:43Z</time>
      </trkpt>
      <trkpt lat="43.22566" lon="5.70456">
        <ele>222</ele>
        <time>2021-04-21T09:44:53Z</time>
      </trkpt>
      <trkpt lat="43.22566" lon="5.7045">
        <ele>221.2</ele>
        <time>2021-04-21T09:44:59Z</time>
      </trkpt>
      <trkpt lat="43.22568" lon="5.70444">
        <ele>220.5</ele>
        <time>2021-04-21T09:45:05Z</time>
      </trkpt>
      <trkpt lat="43.22571" lon="5.70437">
        <ele>219.9</ele>
        <time>2021-04-21T09:45:11Z</time>
      </trkpt>
      <trkpt lat="43.22573" lon="5.7043">
        <ele>219.1</ele>
        <time>2021-04-21T09:45:19Z</time>
      </trkpt>
      <trkpt lat="43.22578" lon="5.70428">
        <ele>219.2</ele>
        <time>2021-04-21T09:45:27Z</time>
      </trkpt>
      <trkpt lat="43.22583" lon="5.70423">
        <ele>218.9</ele>
        <time>2021-04-21T09:45:33Z</time>
      </trkpt>
      <trkpt lat="43.22587" lon="5.70419">
        <ele>219.5</ele>
        <time>2021-04-21T09:45:41Z</time>
      </trkpt>
      <trkpt lat="43.22593" lon="5.70415">
        <ele>221</ele>
        <time>2021-04-21T09:45:47Z</time>
      </trkpt>
      <trkpt lat="43.22598" lon="5.70414">
        <ele>222.8</ele>
        <time>2021-04-21T09:45:57Z</time>
      </trkpt>
      <trkpt lat="43.22603" lon="5.70412">
        <ele>224.2</ele>
        <time>2021-04-21T09:46:03Z</time>
      </trkpt>
      <trkpt lat="43.22607" lon="5.70409">
        <ele>225.5</ele>
        <time>2021-04-21T09:46:11Z</time>
      </trkpt>
      <trkpt lat="43.22612" lon="5.70407">
        <ele>226.7</ele>
        <time>2021-04-21T09:46:17Z</time>
      </trkpt>
      <trkpt lat="43.22616" lon="5.70404">
        <ele>227.8</ele>
        <time>2021-04-21T09:46:23Z</time>
      </trkpt>
      <trkpt lat="43.22622" lon="5.70401">
        <ele>229.1</ele>
        <time>2021-04-21T09:46:29Z</time>
      </trkpt>
      <trkpt lat="43.22627" lon="5.70398">
        <ele>229.9</ele>
        <time>2021-04-21T09:46:35Z</time>
      </trkpt>
      <trkpt lat="43.22632" lon="5.70395">
        <ele>230.7</ele>
        <time>2021-04-21T09:46:41Z</time>
      </trkpt>
      <trkpt lat="43.22637" lon="5.70393">
        <ele>231.8</ele>
        <time>2021-04-21T09:46:47Z</time>
      </trkpt>
      <trkpt lat="43.22641" lon="5.70391">
        <ele>232.3</ele>
        <time>2021-04-21T09:46:53Z</time>
      </trkpt>
      <trkpt lat="43.22646" lon="5.70387">
        <ele>232.5</ele>
        <time>2021-04-21T09:47:01Z</time>
      </trkpt>
      <trkpt lat="43.22651" lon="5.70384">
        <ele>233</ele>
        <time>2021-04-21T09:47:07Z</time>
      </trkpt>
      <trkpt lat="43.22657" lon="5.70382">
        <ele>233.6</ele>
        <time>2021-04-21T09:47:13Z</time>
      </trkpt>
      <trkpt lat="43.22662" lon="5.70378">
        <ele>233.5</ele>
        <time>2021-04-21T09:47:19Z</time>
      </trkpt>
      <trkpt lat="43.22667" lon="5.70374">
        <ele>233.3</ele>
        <time>2021-04-21T09:47:25Z</time>
      </trkpt>
      <trkpt lat="43.22673" lon="5.70369">
        <ele>233.8</ele>
        <time>2021-04-21T09:47:31Z</time>
      </trkpt>
      <trkpt lat="43.22677" lon="5.70364">
        <ele>233.9</ele>
        <time>2021-04-21T09:47:37Z</time>
      </trkpt>
      <trkpt lat="43.22681" lon="5.7036">
        <ele>234.2</ele>
        <time>2021-04-21T09:47:43Z</time>
      </trkpt>
      <trkpt lat="43.22685" lon="5.70357">
        <ele>234.5</ele>
        <time>2021-04-21T09:47:47Z</time>
      </trkpt>
      <trkpt lat="43.22688" lon="5.7035">
        <ele>233.7</ele>
        <time>2021-04-21T09:47:51Z</time>
      </trkpt>
      <trkpt lat="43.22692" lon="5.70345">
        <ele>233.8</ele>
        <time>2021-04-21T09:47:57Z</time>
      </trkpt>
      <trkpt lat="43.22697" lon="5.70344">
        <ele>234.8</ele>
        <time>2021-04-21T09:48:09Z</time>
      </trkpt>
      <trkpt lat="43.227" lon="5.70339">
        <ele>234.5</ele>
        <time>2021-04-21T09:48:15Z</time>
      </trkpt>
      <trkpt lat="43.22704" lon="5.70333">
        <ele>234.1</ele>
        <time>2021-04-21T09:48:21Z</time>
      </trkpt>
      <trkpt lat="43.22708" lon="5.70327">
        <ele>234.8</ele>
        <time>2021-04-21T09:48:27Z</time>
      </trkpt>
      <trkpt lat="43.22713" lon="5.70322">
        <ele>235.7</ele>
        <time>2021-04-21T09:48:33Z</time>
      </trkpt>
      <trkpt lat="43.22716" lon="5.70316">
        <ele>236.2</ele>
        <time>2021-04-21T09:48:39Z</time>
      </trkpt>
      <trkpt lat="43.2272" lon="5.70311">
        <ele>236.6</ele>
        <time>2021-04-21T09:48:45Z</time>
      </trkpt>
      <trkpt lat="43.22725" lon="5.70307">
        <ele>236.9</ele>
        <time>2021-04-21T09:48:51Z</time>
      </trkpt>
      <trkpt lat="43.22729" lon="5.70303">
        <ele>237.1</ele>
        <time>2021-04-21T09:48:59Z</time>
      </trkpt>
      <trkpt lat="43.22732" lon="5.70298">
        <ele>237</ele>
        <time>2021-04-21T09:49:05Z</time>
      </trkpt>
      <trkpt lat="43.22735" lon="5.70292">
        <ele>236.4</ele>
        <time>2021-04-21T09:49:11Z</time>
      </trkpt>
      <trkpt lat="43.2274" lon="5.70291">
        <ele>236.9</ele>
        <time>2021-04-21T09:49:19Z</time>
      </trkpt>
      <trkpt lat="43.22744" lon="5.70288">
        <ele>236.8</ele>
        <time>2021-04-21T09:49:27Z</time>
      </trkpt>
      <trkpt lat="43.22748" lon="5.70284">
        <ele>236.5</ele>
        <time>2021-04-21T09:49:35Z</time>
      </trkpt>
      <trkpt lat="43.22753" lon="5.70282">
        <ele>236.8</ele>
        <time>2021-04-21T09:49:41Z</time>
      </trkpt>
      <trkpt lat="43.22758" lon="5.70279">
        <ele>237.5</ele>
        <time>2021-04-21T09:49:47Z</time>
      </trkpt>
      <trkpt lat="43.22763" lon="5.70275">
        <ele>237.9</ele>
        <time>2021-04-21T09:49:53Z</time>
      </trkpt>
      <trkpt lat="43.22767" lon="5.70271">
        <ele>238.2</ele>
        <time>2021-04-21T09:50:01Z</time>
      </trkpt>
      <trkpt lat="43.22772" lon="5.70266">
        <ele>238.6</ele>
        <time>2021-04-21T09:50:11Z</time>
      </trkpt>
      <trkpt lat="43.22777" lon="5.70266">
        <ele>240</ele>
        <time>2021-04-21T09:50:19Z</time>
      </trkpt>
      <trkpt lat="43.22781" lon="5.70266">
        <ele>241.5</ele>
        <time>2021-04-21T09:50:27Z</time>
      </trkpt>
      <trkpt lat="43.22787" lon="5.70267">
        <ele>243.3</ele>
        <time>2021-04-21T09:50:33Z</time>
      </trkpt>
      <trkpt lat="43.22792" lon="5.70268">
        <ele>245.1</ele>
        <time>2021-04-21T09:50:41Z</time>
      </trkpt>
      <trkpt lat="43.22797" lon="5.70271">
        <ele>247.4</ele>
        <time>2021-04-21T09:50:51Z</time>
      </trkpt>
      <trkpt lat="43.22802" lon="5.70275">
        <ele>249.4</ele>
        <time>2021-04-21T09:50:57Z</time>
      </trkpt>
      <trkpt lat="43.22805" lon="5.7028">
        <ele>251.4</ele>
        <time>2021-04-21T09:51:05Z</time>
      </trkpt>
      <trkpt lat="43.2281" lon="5.70281">
        <ele>253.3</ele>
        <time>2021-04-21T09:51:11Z</time>
      </trkpt>
      <trkpt lat="43.22815" lon="5.70281">
        <ele>254.6</ele>
        <time>2021-04-21T09:51:15Z</time>
      </trkpt>
      <trkpt lat="43.22821" lon="5.7028">
        <ele>256</ele>
        <time>2021-04-21T09:51:21Z</time>
      </trkpt>
      <trkpt lat="43.22824" lon="5.70275">
        <ele>256</ele>
        <time>2021-04-21T09:51:29Z</time>
      </trkpt>
      <trkpt lat="43.22828" lon="5.70268">
        <ele>255.7</ele>
        <time>2021-04-21T09:51:35Z</time>
      </trkpt>
      <trkpt lat="43.22827" lon="5.70261">
        <ele>254.2</ele>
        <time>2021-04-21T09:51:41Z</time>
      </trkpt>
      <trkpt lat="43.22826" lon="5.70254">
        <ele>252.5</ele>
        <time>2021-04-21T09:51:49Z</time>
      </trkpt>
      <trkpt lat="43.22824" lon="5.70247">
        <ele>250.6</ele>
        <time>2021-04-21T09:55:15Z</time>
      </trkpt>
      <trkpt lat="43.22826" lon="5.7024">
        <ele>250.6</ele>
        <time>2021-04-21T09:55:21Z</time>
      </trkpt>
      <trkpt lat="43.22828" lon="5.70234">
        <ele>250.4</ele>
        <time>2021-04-21T09:55:27Z</time>
      </trkpt>
      <trkpt lat="43.2283" lon="5.70228">
        <ele>250.3</ele>
        <time>2021-04-21T09:55:35Z</time>
      </trkpt>
      <trkpt lat="43.22834" lon="5.70222">
        <ele>250.5</ele>
        <time>2021-04-21T09:55:43Z</time>
      </trkpt>
      <trkpt lat="43.22838" lon="5.70217">
        <ele>251</ele>
        <time>2021-04-21T09:55:49Z</time>
      </trkpt>
      <trkpt lat="43.22843" lon="5.70213">
        <ele>252.1</ele>
        <time>2021-04-21T09:55:55Z</time>
      </trkpt>
      <trkpt lat="43.22847" lon="5.70209">
        <ele>252.8</ele>
        <time>2021-04-21T09:56:01Z</time>
      </trkpt>
      <trkpt lat="43.22851" lon="5.70203">
        <ele>253.2</ele>
        <time>2021-04-21T09:56:07Z</time>
      </trkpt>
      <trkpt lat="43.22856" lon="5.70198">
        <ele>254</ele>
        <time>2021-04-21T09:56:15Z</time>
      </trkpt>
      <trkpt lat="43.22859" lon="5.70195">
        <ele>254.7</ele>
        <time>2021-04-21T09:56:23Z</time>
      </trkpt>
      <trkpt lat="43.22865" lon="5.70192">
        <ele>255.9</ele>
        <time>2021-04-21T09:56:31Z</time>
      </trkpt>
      <trkpt lat="43.2287" lon="5.70189">
        <ele>256.9</ele>
        <time>2021-04-21T09:56:39Z</time>
      </trkpt>
      <trkpt lat="43.22874" lon="5.70185">
        <ele>257.7</ele>
        <time>2021-04-21T09:56:51Z</time>
      </trkpt>
      <trkpt lat="43.22879" lon="5.70182">
        <ele>258.7</ele>
        <time>2021-04-21T09:56:59Z</time>
      </trkpt>
      <trkpt lat="43.22884" lon="5.7018">
        <ele>259.6</ele>
        <time>2021-04-21T09:57:07Z</time>
      </trkpt>
      <trkpt lat="43.22889" lon="5.70178">
        <ele>260.9</ele>
        <time>2021-04-21T09:57:15Z</time>
      </trkpt>
      <trkpt lat="43.22894" lon="5.70175">
        <ele>261.9</ele>
        <time>2021-04-21T09:57:23Z</time>
      </trkpt>
      <trkpt lat="43.22899" lon="5.70174">
        <ele>263.3</ele>
        <time>2021-04-21T09:57:31Z</time>
      </trkpt>
      <trkpt lat="43.22905" lon="5.70172">
        <ele>264.5</ele>
        <time>2021-04-21T09:57:39Z</time>
      </trkpt>
      <trkpt lat="43.2291" lon="5.70173">
        <ele>266.3</ele>
        <time>2021-04-21T09:57:47Z</time>
      </trkpt>
      <trkpt lat="43.22916" lon="5.70172">
        <ele>267.8</ele>
        <time>2021-04-21T09:57:55Z</time>
      </trkpt>
      <trkpt lat="43.22921" lon="5.70174">
        <ele>269.5</ele>
        <time>2021-04-21T09:58:03Z</time>
      </trkpt>
      <trkpt lat="43.22927" lon="5.70172">
        <ele>270.7</ele>
        <time>2021-04-21T09:58:11Z</time>
      </trkpt>
      <trkpt lat="43.22932" lon="5.7017">
        <ele>271.8</ele>
        <time>2021-04-21T09:58:17Z</time>
      </trkpt>
      <trkpt lat="43.22937" lon="5.70169">
        <ele>272.7</ele>
        <time>2021-04-21T09:58:23Z</time>
      </trkpt>
      <trkpt lat="43.22941" lon="5.70167">
        <ele>273.7</ele>
        <time>2021-04-21T09:58:29Z</time>
      </trkpt>
      <trkpt lat="43.22946" lon="5.70165">
        <ele>274.5</ele>
        <time>2021-04-21T09:58:35Z</time>
      </trkpt>
      <trkpt lat="43.22951" lon="5.70163">
        <ele>275.5</ele>
        <time>2021-04-21T09:58:41Z</time>
      </trkpt>
      <trkpt lat="43.22956" lon="5.70161">
        <ele>276.5</ele>
        <time>2021-04-21T09:58:47Z</time>
      </trkpt>
      <trkpt lat="43.2296" lon="5.70158">
        <ele>277.1</ele>
        <time>2021-04-21T09:58:53Z</time>
      </trkpt>
      <trkpt lat="43.22964" lon="5.70156">
        <ele>278</ele>
        <time>2021-04-21T09:58:59Z</time>
      </trkpt>
      <trkpt lat="43.22969" lon="5.70156">
        <ele>279.3</ele>
        <time>2021-04-21T09:59:09Z</time>
      </trkpt>
      <trkpt lat="43.22974" lon="5.70157">
        <ele>280.7</ele>
        <time>2021-04-21T09:59:15Z</time>
      </trkpt>
      <trkpt lat="43.22979" lon="5.70154">
        <ele>281.7</ele>
        <time>2021-04-21T09:59:25Z</time>
      </trkpt>
      <trkpt lat="43.22984" lon="5.70151">
        <ele>282.7</ele>
        <time>2021-04-21T09:59:33Z</time>
      </trkpt>
      <trkpt lat="43.22987" lon="5.70146">
        <ele>282.9</ele>
        <time>2021-04-21T09:59:39Z</time>
      </trkpt>
      <trkpt lat="43.22991" lon="5.7014">
        <ele>283.2</ele>
        <time>2021-04-21T09:59:45Z</time>
      </trkpt>
      <trkpt lat="43.22994" lon="5.70135">
        <ele>283.5</ele>
        <time>2021-04-21T09:59:51Z</time>
      </trkpt>
      <trkpt lat="43.22996" lon="5.70129">
        <ele>283.1</ele>
        <time>2021-04-21T09:59:59Z</time>
      </trkpt>
      <trkpt lat="43.22995" lon="5.70122">
        <ele>282.2</ele>
        <time>2021-04-21T10:00:17Z</time>
      </trkpt>
      <trkpt lat="43.22994" lon="5.70115">
        <ele>281</ele>
        <time>2021-04-21T10:00:27Z</time>
      </trkpt>
      <trkpt lat="43.22996" lon="5.70109">
        <ele>280.9</ele>
        <time>2021-04-21T10:00:35Z</time>
      </trkpt>
      <trkpt lat="43.22998" lon="5.70101">
        <ele>280.4</ele>
        <time>2021-04-21T10:09:55Z</time>
      </trkpt>
      <trkpt lat="43.23001" lon="5.70098">
        <ele>281.1</ele>
        <time>2021-04-21T10:10:07Z</time>
      </trkpt>
      <trkpt lat="43.23006" lon="5.70095">
        <ele>281.9</ele>
        <time>2021-04-21T10:10:11Z</time>
      </trkpt>
      <trkpt lat="43.23012" lon="5.70093">
        <ele>283.2</ele>
        <time>2021-04-21T10:10:17Z</time>
      </trkpt>
      <trkpt lat="43.23018" lon="5.70092">
        <ele>284.7</ele>
        <time>2021-04-21T10:10:23Z</time>
      </trkpt>
      <trkpt lat="43.23024" lon="5.7009">
        <ele>285.8</ele>
        <time>2021-04-21T10:10:29Z</time>
      </trkpt>
      <trkpt lat="43.23028" lon="5.70088">
        <ele>286.8</ele>
        <time>2021-04-21T10:10:35Z</time>
      </trkpt>
      <trkpt lat="43.23033" lon="5.70086">
        <ele>287.8</ele>
        <time>2021-04-21T10:10:41Z</time>
      </trkpt>
      <trkpt lat="43.23039" lon="5.70085">
        <ele>289</ele>
        <time>2021-04-21T10:10:49Z</time>
      </trkpt>
      <trkpt lat="43.23044" lon="5.70081">
        <ele>289.6</ele>
        <time>2021-04-21T10:10:57Z</time>
      </trkpt>
      <trkpt lat="43.2305" lon="5.70078">
        <ele>290.6</ele>
        <time>2021-04-21T10:11:05Z</time>
      </trkpt>
      <trkpt lat="43.23055" lon="5.70076">
        <ele>291.5</ele>
        <time>2021-04-21T10:11:15Z</time>
      </trkpt>
      <trkpt lat="43.2306" lon="5.70074">
        <ele>292.3</ele>
        <time>2021-04-21T10:11:21Z</time>
      </trkpt>
      <trkpt lat="43.23065" lon="5.7007">
        <ele>292.7</ele>
        <time>2021-04-21T10:11:27Z</time>
      </trkpt>
      <trkpt lat="43.23069" lon="5.70065">
        <ele>293</ele>
        <time>2021-04-21T10:11:35Z</time>
      </trkpt>
      <trkpt lat="43.23073" lon="5.70059">
        <ele>292.7</ele>
        <time>2021-04-21T10:11:41Z</time>
      </trkpt>
      <trkpt lat="43.23078" lon="5.70055">
        <ele>293.2</ele>
        <time>2021-04-21T10:11:49Z</time>
      </trkpt>
      <trkpt lat="43.23082" lon="5.70058">
        <ele>294.7</ele>
        <time>2021-04-21T10:11:57Z</time>
      </trkpt>
      <trkpt lat="43.23086" lon="5.70059">
        <ele>295.8</ele>
        <time>2021-04-21T10:12:05Z</time>
      </trkpt>
      <trkpt lat="43.23091" lon="5.70059">
        <ele>296.6</ele>
        <time>2021-04-21T10:12:11Z</time>
      </trkpt>
      <trkpt lat="43.23096" lon="5.7006">
        <ele>297.7</ele>
        <time>2021-04-21T10:12:19Z</time>
      </trkpt>
      <trkpt lat="43.23101" lon="5.70061">
        <ele>298.6</ele>
        <time>2021-04-21T10:12:25Z</time>
      </trkpt>
      <trkpt lat="43.23105" lon="5.70062">
        <ele>299.5</ele>
        <time>2021-04-21T10:12:31Z</time>
      </trkpt>
      <trkpt lat="43.2311" lon="5.70066">
        <ele>301</ele>
        <time>2021-04-21T10:12:39Z</time>
      </trkpt>
      <trkpt lat="43.23116" lon="5.70068">
        <ele>302.1</ele>
        <time>2021-04-21T10:12:47Z</time>
      </trkpt>
      <trkpt lat="43.23121" lon="5.7007">
        <ele>303.3</ele>
        <time>2021-04-21T10:12:53Z</time>
      </trkpt>
      <trkpt lat="43.23125" lon="5.7007">
        <ele>304</ele>
        <time>2021-04-21T10:12:59Z</time>
      </trkpt>
      <trkpt lat="43.2313" lon="5.70067">
        <ele>304.2</ele>
        <time>2021-04-21T10:13:05Z</time>
      </trkpt>
      <trkpt lat="43.23135" lon="5.70066">
        <ele>304.8</ele>
        <time>2021-04-21T10:13:11Z</time>
      </trkpt>
      <trkpt lat="43.23141" lon="5.70066">
        <ele>305.9</ele>
        <time>2021-04-21T10:13:17Z</time>
      </trkpt>
      <trkpt lat="43.23146" lon="5.70065">
        <ele>306.5</ele>
        <time>2021-04-21T10:13:23Z</time>
      </trkpt>
      <trkpt lat="43.23152" lon="5.70066">
        <ele>307.5</ele>
        <time>2021-04-21T10:13:29Z</time>
      </trkpt>
      <trkpt lat="43.23157" lon="5.70066">
        <ele>308.5</ele>
        <time>2021-04-21T10:13:35Z</time>
      </trkpt>
      <trkpt lat="43.23162" lon="5.70066">
        <ele>309.1</ele>
        <time>2021-04-21T10:13:39Z</time>
      </trkpt>
      <trkpt lat="43.23169" lon="5.70067">
        <ele>310.3</ele>
        <time>2021-04-21T10:13:47Z</time>
      </trkpt>
      <trkpt lat="43.23174" lon="5.70065">
        <ele>311</ele>
        <time>2021-04-21T10:13:51Z</time>
      </trkpt>
      <trkpt lat="43.23179" lon="5.70064">
        <ele>311.7</ele>
        <time>2021-04-21T10:14:01Z</time>
      </trkpt>
      <trkpt lat="43.23184" lon="5.70063">
        <ele>312.5</ele>
        <time>2021-04-21T10:14:07Z</time>
      </trkpt>
      <trkpt lat="43.2319" lon="5.70061">
        <ele>313.3</ele>
        <time>2021-04-21T10:14:13Z</time>
      </trkpt>
      <trkpt lat="43.23195" lon="5.70058">
        <ele>313.9</ele>
        <time>2021-04-21T10:14:19Z</time>
      </trkpt>
      <trkpt lat="43.232" lon="5.70056">
        <ele>314.6</ele>
        <time>2021-04-21T10:14:27Z</time>
      </trkpt>
      <trkpt lat="43.23206" lon="5.70054">
        <ele>315.5</ele>
        <time>2021-04-21T10:14:35Z</time>
      </trkpt>
      <trkpt lat="43.23211" lon="5.7005">
        <ele>316</ele>
        <time>2021-04-21T10:14:43Z</time>
      </trkpt>
      <trkpt lat="43.23217" lon="5.70049">
        <ele>317.1</ele>
        <time>2021-04-21T10:14:51Z</time>
      </trkpt>
      <trkpt lat="43.23221" lon="5.70042">
        <ele>317.1</ele>
        <time>2021-04-21T10:14:57Z</time>
      </trkpt>
      <trkpt lat="43.23224" lon="5.70038">
        <ele>317.4</ele>
        <time>2021-04-21T10:15:03Z</time>
      </trkpt>
      <trkpt lat="43.23229" lon="5.70036">
        <ele>318.1</ele>
        <time>2021-04-21T10:15:11Z</time>
      </trkpt>
      <trkpt lat="43.23234" lon="5.70032">
        <ele>318.8</ele>
        <time>2021-04-21T10:15:17Z</time>
      </trkpt>
      <trkpt lat="43.23236" lon="5.70027">
        <ele>318.8</ele>
        <time>2021-04-21T10:15:23Z</time>
      </trkpt>
      <trkpt lat="43.23237" lon="5.7002">
        <ele>318.5</ele>
        <time>2021-04-21T10:15:37Z</time>
      </trkpt>
      <trkpt lat="43.23238" lon="5.70012">
        <ele>318.3</ele>
        <time>2021-04-21T10:15:49Z</time>
      </trkpt>
      <trkpt lat="43.23238" lon="5.70005">
        <ele>317.8</ele>
        <time>2021-04-21T10:15:57Z</time>
      </trkpt>
      <trkpt lat="43.23239" lon="5.69997">
        <ele>317.4</ele>
        <time>2021-04-21T10:16:03Z</time>
      </trkpt>
      <trkpt lat="43.23241" lon="5.6999">
        <ele>317.1</ele>
        <time>2021-04-21T10:16:09Z</time>
      </trkpt>
      <trkpt lat="43.23242" lon="5.69981">
        <ele>316.5</ele>
        <time>2021-04-21T10:16:17Z</time>
      </trkpt>
      <trkpt lat="43.23243" lon="5.69975">
        <ele>316.3</ele>
        <time>2021-04-21T10:16:23Z</time>
      </trkpt>
      <trkpt lat="43.23244" lon="5.69969">
        <ele>315.9</ele>
        <time>2021-04-21T10:16:27Z</time>
      </trkpt>
      <trkpt lat="43.23246" lon="5.69963">
        <ele>315.6</ele>
        <time>2021-04-21T10:16:31Z</time>
      </trkpt>
      <trkpt lat="43.23248" lon="5.69956">
        <ele>315.4</ele>
        <time>2021-04-21T10:16:37Z</time>
      </trkpt>
      <trkpt lat="43.23249" lon="5.69948">
        <ele>314.9</ele>
        <time>2021-04-21T10:16:43Z</time>
      </trkpt>
      <trkpt lat="43.2325" lon="5.69941">
        <ele>314.4</ele>
        <time>2021-04-21T10:16:49Z</time>
      </trkpt>
      <trkpt lat="43.23251" lon="5.69935">
        <ele>313.8</ele>
        <time>2021-04-21T10:16:55Z</time>
      </trkpt>
      <trkpt lat="43.23253" lon="5.69929">
        <ele>313.4</ele>
        <time>2021-04-21T10:17:13Z</time>
      </trkpt>
      <trkpt lat="43.23257" lon="5.69925">
        <ele>313.2</ele>
        <time>2021-04-21T10:17:21Z</time>
      </trkpt>
      <trkpt lat="43.2326" lon="5.6993">
        <ele>314</ele>
        <time>2021-04-21T10:18:25Z</time>
      </trkpt>
      <trkpt lat="43.23261" lon="5.69938">
        <ele>314.9</ele>
        <time>2021-04-21T10:18:35Z</time>
      </trkpt>
      <trkpt lat="43.23263" lon="5.69945">
        <ele>315.8</ele>
        <time>2021-04-21T10:18:43Z</time>
      </trkpt>
      <trkpt lat="43.23266" lon="5.69951">
        <ele>316.7</ele>
        <time>2021-04-21T10:18:49Z</time>
      </trkpt>
      <trkpt lat="43.23269" lon="5.69956">
        <ele>317.7</ele>
        <time>2021-04-21T10:18:57Z</time>
      </trkpt>
      <trkpt lat="43.23272" lon="5.6996">
        <ele>318.5</ele>
        <time>2021-04-21T10:19:29Z</time>
      </trkpt>
      <trkpt lat="43.23276" lon="5.69967">
        <ele>319.8</ele>
        <time>2021-04-21T10:19:37Z</time>
      </trkpt>
      <trkpt lat="43.2328" lon="5.69972">
        <ele>321</ele>
        <time>2021-04-21T10:19:45Z</time>
      </trkpt>
      <trkpt lat="43.23284" lon="5.69977">
        <ele>322.1</ele>
        <time>2021-04-21T10:19:51Z</time>
      </trkpt>
      <trkpt lat="43.23287" lon="5.69984">
        <ele>323.5</ele>
        <time>2021-04-21T10:19:59Z</time>
      </trkpt>
      <trkpt lat="43.2329" lon="5.69989">
        <ele>324.7</ele>
        <time>2021-04-21T10:20:07Z</time>
      </trkpt>
      <trkpt lat="43.23294" lon="5.69995">
        <ele>326</ele>
        <time>2021-04-21T10:20:13Z</time>
      </trkpt>
      <trkpt lat="43.23297" lon="5.69999">
        <ele>327.3</ele>
        <time>2021-04-21T10:20:19Z</time>
      </trkpt>
      <trkpt lat="43.23301" lon="5.70006">
        <ele>328.3</ele>
        <time>2021-04-21T10:20:27Z</time>
      </trkpt>
      <trkpt lat="43.23304" lon="5.70011">
        <ele>329.1</ele>
        <time>2021-04-21T10:20:33Z</time>
      </trkpt>
      <trkpt lat="43.23307" lon="5.70016">
        <ele>329.9</ele>
        <time>2021-04-21T10:20:39Z</time>
      </trkpt>
      <trkpt lat="43.2331" lon="5.70023">
        <ele>330.9</ele>
        <time>2021-04-21T10:20:47Z</time>
      </trkpt>
      <trkpt lat="43.23312" lon="5.70029">
        <ele>331.6</ele>
        <time>2021-04-21T10:20:53Z</time>
      </trkpt>
      <trkpt lat="43.23314" lon="5.70036">
        <ele>332.5</ele>
        <time>2021-04-21T10:21:01Z</time>
      </trkpt>
      <trkpt lat="43.23317" lon="5.70042">
        <ele>333.3</ele>
        <time>2021-04-21T10:21:09Z</time>
      </trkpt>
      <trkpt lat="43.2332" lon="5.70048">
        <ele>334.2</ele>
        <time>2021-04-21T10:21:17Z</time>
      </trkpt>
      <trkpt lat="43.23322" lon="5.70055">
        <ele>335</ele>
        <time>2021-04-21T10:21:29Z</time>
      </trkpt>
      <trkpt lat="43.23324" lon="5.70061">
        <ele>335.9</ele>
        <time>2021-04-21T10:21:37Z</time>
      </trkpt>
      <trkpt lat="43.23326" lon="5.70066">
        <ele>336.6</ele>
        <time>2021-04-21T10:21:43Z</time>
      </trkpt>
      <trkpt lat="43.23329" lon="5.70073">
        <ele>337.5</ele>
        <time>2021-04-21T10:21:51Z</time>
      </trkpt>
      <trkpt lat="43.23331" lon="5.70079">
        <ele>338.2</ele>
        <time>2021-04-21T10:21:57Z</time>
      </trkpt>
      <trkpt lat="43.23334" lon="5.70085">
        <ele>339.2</ele>
        <time>2021-04-21T10:22:03Z</time>
      </trkpt>
      <trkpt lat="43.23335" lon="5.70091">
        <ele>339.8</ele>
        <time>2021-04-21T10:22:09Z</time>
      </trkpt>
      <trkpt lat="43.23337" lon="5.70097">
        <ele>340.4</ele>
        <time>2021-04-21T10:22:15Z</time>
      </trkpt>
      <trkpt lat="43.23338" lon="5.70104">
        <ele>341.2</ele>
        <time>2021-04-21T10:22:23Z</time>
      </trkpt>
      <trkpt lat="43.23338" lon="5.70111">
        <ele>342.2</ele>
        <time>2021-04-21T10:22:31Z</time>
      </trkpt>
      <trkpt lat="43.23339" lon="5.70118">
        <ele>343</ele>
        <time>2021-04-21T10:22:37Z</time>
      </trkpt>
      <trkpt lat="43.23339" lon="5.70126">
        <ele>344.2</ele>
        <time>2021-04-21T10:22:47Z</time>
      </trkpt>
      <trkpt lat="43.23338" lon="5.70132">
        <ele>345.2</ele>
        <time>2021-04-21T10:22:53Z</time>
      </trkpt>
      <trkpt lat="43.23339" lon="5.70139">
        <ele>345.9</ele>
        <time>2021-04-21T10:22:59Z</time>
      </trkpt>
      <trkpt lat="43.23343" lon="5.70145">
        <ele>346.2</ele>
        <time>2021-04-21T10:23:07Z</time>
      </trkpt>
      <trkpt lat="43.23346" lon="5.70151">
        <ele>346.5</ele>
        <time>2021-04-21T10:23:15Z</time>
      </trkpt>
      <trkpt lat="43.2335" lon="5.70155">
        <ele>346.5</ele>
        <time>2021-04-21T10:23:21Z</time>
      </trkpt>
      <trkpt lat="43.23352" lon="5.70162">
        <ele>347.1</ele>
        <time>2021-04-21T10:23:29Z</time>
      </trkpt>
      <trkpt lat="43.23354" lon="5.7017">
        <ele>347.9</ele>
        <time>2021-04-21T10:23:37Z</time>
      </trkpt>
      <trkpt lat="43.23355" lon="5.70176">
        <ele>349.2</ele>
        <time>2021-04-21T10:23:43Z</time>
      </trkpt>
      <trkpt lat="43.23358" lon="5.70182">
        <ele>349.6</ele>
        <time>2021-04-21T10:23:49Z</time>
      </trkpt>
      <trkpt lat="43.23361" lon="5.70187">
        <ele>350.3</ele>
        <time>2021-04-21T10:23:55Z</time>
      </trkpt>
      <trkpt lat="43.23364" lon="5.70194">
        <ele>351</ele>
        <time>2021-04-21T10:24:03Z</time>
      </trkpt>
      <trkpt lat="43.23368" lon="5.70198">
        <ele>351</ele>
        <time>2021-04-21T10:24:09Z</time>
      </trkpt>
      <trkpt lat="43.23372" lon="5.70202">
        <ele>350.9</ele>
        <time>2021-04-21T10:24:15Z</time>
      </trkpt>
      <trkpt lat="43.23374" lon="5.70209">
        <ele>351.9</ele>
        <time>2021-04-21T10:24:23Z</time>
      </trkpt>
      <trkpt lat="43.23376" lon="5.70215">
        <ele>352.4</ele>
        <time>2021-04-21T10:24:31Z</time>
      </trkpt>
      <trkpt lat="43.23379" lon="5.70222">
        <ele>353.1</ele>
        <time>2021-04-21T10:24:39Z</time>
      </trkpt>
      <trkpt lat="43.23381" lon="5.70228">
        <ele>353.7</ele>
        <time>2021-04-21T10:24:45Z</time>
      </trkpt>
      <trkpt lat="43.23382" lon="5.70235">
        <ele>354.8</ele>
        <time>2021-04-21T10:24:55Z</time>
      </trkpt>
      <trkpt lat="43.23383" lon="5.70241">
        <ele>355.7</ele>
        <time>2021-04-21T10:25:01Z</time>
      </trkpt>
      <trkpt lat="43.23383" lon="5.70248">
        <ele>357</ele>
        <time>2021-04-21T10:25:13Z</time>
      </trkpt>
      <trkpt lat="43.23381" lon="5.70255">
        <ele>358.1</ele>
        <time>2021-04-21T10:25:21Z</time>
      </trkpt>
      <trkpt lat="43.23384" lon="5.70249">
        <ele>356.8</ele>
        <time>2021-04-21T10:25:35Z</time>
      </trkpt>
      <trkpt lat="43.23378" lon="5.70253">
        <ele>358.8</ele>
        <time>2021-04-21T10:26:57Z</time>
      </trkpt>
      <trkpt lat="43.23379" lon="5.70247">
        <ele>357.9</ele>
        <time>2021-04-21T10:27:47Z</time>
      </trkpt>
      <trkpt lat="43.2338" lon="5.70254">
        <ele>358.4</ele>
        <time>2021-04-21T10:28:27Z</time>
      </trkpt>
      <trkpt lat="43.23375" lon="5.70257">
        <ele>360</ele>
        <time>2021-04-21T10:28:37Z</time>
      </trkpt>
      <trkpt lat="43.23371" lon="5.70252">
        <ele>360.8</ele>
        <time>2021-04-21T10:28:45Z</time>
      </trkpt>
      <trkpt lat="43.23366" lon="5.70251">
        <ele>362.1</ele>
        <time>2021-04-21T10:28:57Z</time>
      </trkpt>
      <trkpt lat="43.23361" lon="5.7025">
        <ele>363.4</ele>
        <time>2021-04-21T10:29:13Z</time>
      </trkpt>
      <trkpt lat="43.23357" lon="5.70254">
        <ele>364.8</ele>
        <time>2021-04-21T10:29:25Z</time>
      </trkpt>
      <trkpt lat="43.23352" lon="5.70259">
        <ele>366.5</ele>
        <time>2021-04-21T10:29:35Z</time>
      </trkpt>
      <trkpt lat="43.23347" lon="5.70257">
        <ele>367.7</ele>
        <time>2021-04-21T10:29:45Z</time>
      </trkpt>
      <trkpt lat="43.23344" lon="5.70252">
        <ele>368.2</ele>
        <time>2021-04-21T10:29:51Z</time>
      </trkpt>
      <trkpt lat="43.2334" lon="5.70247">
        <ele>368.4</ele>
        <time>2021-04-21T10:29:59Z</time>
      </trkpt>
      <trkpt lat="43.23336" lon="5.7024">
        <ele>367.8</ele>
        <time>2021-04-21T10:30:05Z</time>
      </trkpt>
      <trkpt lat="43.23332" lon="5.70236">
        <ele>367.5</ele>
        <time>2021-04-21T10:30:11Z</time>
      </trkpt>
      <trkpt lat="43.23328" lon="5.70232">
        <ele>366.6</ele>
        <time>2021-04-21T10:30:15Z</time>
      </trkpt>
      <trkpt lat="43.23322" lon="5.70231">
        <ele>365.9</ele>
        <time>2021-04-21T10:30:21Z</time>
      </trkpt>
      <trkpt lat="43.23316" lon="5.70229">
        <ele>365.2</ele>
        <time>2021-04-21T10:30:27Z</time>
      </trkpt>
      <trkpt lat="43.2331" lon="5.70226">
        <ele>364.4</ele>
        <time>2021-04-21T10:30:33Z</time>
      </trkpt>
      <trkpt lat="43.23305" lon="5.70226">
        <ele>364</ele>
        <time>2021-04-21T10:30:39Z</time>
      </trkpt>
      <trkpt lat="43.233" lon="5.70225">
        <ele>363.7</ele>
        <time>2021-04-21T10:30:45Z</time>
      </trkpt>
      <trkpt lat="43.23296" lon="5.70224">
        <ele>363.2</ele>
        <time>2021-04-21T10:30:53Z</time>
      </trkpt>
      <trkpt lat="43.2329" lon="5.70226">
        <ele>363.4</ele>
        <time>2021-04-21T10:31:01Z</time>
      </trkpt>
      <trkpt lat="43.23285" lon="5.70231">
        <ele>364.6</ele>
        <time>2021-04-21T10:31:05Z</time>
      </trkpt>
      <trkpt lat="43.2328" lon="5.70234">
        <ele>365.4</ele>
        <time>2021-04-21T10:32:47Z</time>
      </trkpt>
      <trkpt lat="43.23275" lon="5.70238">
        <ele>366.2</ele>
        <time>2021-04-21T10:32:53Z</time>
      </trkpt>
      <trkpt lat="43.23271" lon="5.70242">
        <ele>367.2</ele>
        <time>2021-04-21T10:32:59Z</time>
      </trkpt>
      <trkpt lat="43.23266" lon="5.70249">
        <ele>369.1</ele>
        <time>2021-04-21T10:33:05Z</time>
      </trkpt>
      <trkpt lat="43.23263" lon="5.70255">
        <ele>370.5</ele>
        <time>2021-04-21T10:33:11Z</time>
      </trkpt>
      <trkpt lat="43.2326" lon="5.7026">
        <ele>371.7</ele>
        <time>2021-04-21T10:33:17Z</time>
      </trkpt>
      <trkpt lat="43.23256" lon="5.70263">
        <ele>372.3</ele>
        <time>2021-04-21T10:33:23Z</time>
      </trkpt>
      <trkpt lat="43.2325" lon="5.70262">
        <ele>372.2</ele>
        <time>2021-04-21T10:33:29Z</time>
      </trkpt>
      <trkpt lat="43.23245" lon="5.70263">
        <ele>371.6</ele>
        <time>2021-04-21T10:33:35Z</time>
      </trkpt>
      <trkpt lat="43.2324" lon="5.70266">
        <ele>371.7</ele>
        <time>2021-04-21T10:33:43Z</time>
      </trkpt>
      <trkpt lat="43.23235" lon="5.70267">
        <ele>371.1</ele>
        <time>2021-04-21T10:33:49Z</time>
      </trkpt>
      <trkpt lat="43.23229" lon="5.70264">
        <ele>369.5</ele>
        <time>2021-04-21T10:33:55Z</time>
      </trkpt>
      <trkpt lat="43.23224" lon="5.70259">
        <ele>367.4</ele>
        <time>2021-04-21T10:34:01Z</time>
      </trkpt>
      <trkpt lat="43.23219" lon="5.70255">
        <ele>365.6</ele>
        <time>2021-04-21T10:34:07Z</time>
      </trkpt>
      <trkpt lat="43.23213" lon="5.70252">
        <ele>363.9</ele>
        <time>2021-04-21T10:34:13Z</time>
      </trkpt>
      <trkpt lat="43.23208" lon="5.7025">
        <ele>362.3</ele>
        <time>2021-04-21T10:34:19Z</time>
      </trkpt>
      <trkpt lat="43.23202" lon="5.70248">
        <ele>360.9</ele>
        <time>2021-04-21T10:34:25Z</time>
      </trkpt>
      <trkpt lat="43.23197" lon="5.70247">
        <ele>359.8</ele>
        <time>2021-04-21T10:34:29Z</time>
      </trkpt>
      <trkpt lat="43.23191" lon="5.70244">
        <ele>358</ele>
        <time>2021-04-21T10:34:35Z</time>
      </trkpt>
      <trkpt lat="43.23187" lon="5.70244">
        <ele>357.4</ele>
        <time>2021-04-21T10:34:41Z</time>
      </trkpt>
      <trkpt lat="43.23181" lon="5.70246">
        <ele>357.2</ele>
        <time>2021-04-21T10:34:45Z</time>
      </trkpt>
      <trkpt lat="43.23177" lon="5.70249">
        <ele>357.4</ele>
        <time>2021-04-21T10:34:49Z</time>
      </trkpt>
      <trkpt lat="43.23173" lon="5.70252">
        <ele>357.7</ele>
        <time>2021-04-21T10:34:53Z</time>
      </trkpt>
      <trkpt lat="43.23169" lon="5.70255">
        <ele>357.9</ele>
        <time>2021-04-21T10:34:57Z</time>
      </trkpt>
      <trkpt lat="43.23165" lon="5.70259">
        <ele>358.2</ele>
        <time>2021-04-21T10:35:01Z</time>
      </trkpt>
      <trkpt lat="43.23159" lon="5.70263">
        <ele>358.1</ele>
        <time>2021-04-21T10:35:07Z</time>
      </trkpt>
      <trkpt lat="43.23154" lon="5.70267">
        <ele>357.9</ele>
        <time>2021-04-21T10:35:13Z</time>
      </trkpt>
      <trkpt lat="43.23148" lon="5.70271">
        <ele>357.7</ele>
        <time>2021-04-21T10:35:19Z</time>
      </trkpt>
      <trkpt lat="43.23144" lon="5.70274">
        <ele>357.4</ele>
        <time>2021-04-21T10:35:25Z</time>
      </trkpt>
      <trkpt lat="43.23139" lon="5.70278">
        <ele>357.3</ele>
        <time>2021-04-21T10:35:31Z</time>
      </trkpt>
      <trkpt lat="43.23135" lon="5.70281">
        <ele>357.3</ele>
        <time>2021-04-21T10:35:37Z</time>
      </trkpt>
      <trkpt lat="43.2313" lon="5.70285">
        <ele>357.2</ele>
        <time>2021-04-21T10:35:45Z</time>
      </trkpt>
      <trkpt lat="43.23124" lon="5.70286">
        <ele>356.4</ele>
        <time>2021-04-21T10:35:51Z</time>
      </trkpt>
      <trkpt lat="43.23119" lon="5.70289">
        <ele>355.9</ele>
        <time>2021-04-21T10:35:57Z</time>
      </trkpt>
      <trkpt lat="43.23115" lon="5.70292">
        <ele>355.7</ele>
        <time>2021-04-21T10:36:03Z</time>
      </trkpt>
      <trkpt lat="43.2311" lon="5.70296">
        <ele>356</ele>
        <time>2021-04-21T10:36:09Z</time>
      </trkpt>
      <trkpt lat="43.23105" lon="5.703">
        <ele>355.8</ele>
        <time>2021-04-21T10:36:15Z</time>
      </trkpt>
      <trkpt lat="43.231" lon="5.70303">
        <ele>355.4</ele>
        <time>2021-04-21T10:36:21Z</time>
      </trkpt>
      <trkpt lat="43.23096" lon="5.70307">
        <ele>355.6</ele>
        <time>2021-04-21T10:36:27Z</time>
      </trkpt>
      <trkpt lat="43.23092" lon="5.7031">
        <ele>355.7</ele>
        <time>2021-04-21T10:36:37Z</time>
      </trkpt>
      <trkpt lat="43.23089" lon="5.70317">
        <ele>357</ele>
        <time>2021-04-21T10:36:47Z</time>
      </trkpt>
      <trkpt lat="43.23085" lon="5.70321">
        <ele>357.3</ele>
        <time>2021-04-21T10:36:55Z</time>
      </trkpt>
      <trkpt lat="43.23083" lon="5.70328">
        <ele>359.1</ele>
        <time>2021-04-21T10:37:01Z</time>
      </trkpt>
      <trkpt lat="43.23083" lon="5.70335">
        <ele>361.2</ele>
        <time>2021-04-21T10:37:09Z</time>
      </trkpt>
      <trkpt lat="43.23079" lon="5.70337">
        <ele>359.8</ele>
        <time>2021-04-21T10:37:45Z</time>
      </trkpt>
      <trkpt lat="43.23075" lon="5.7034">
        <ele>358.7</ele>
        <time>2021-04-21T10:37:55Z</time>
      </trkpt>
      <trkpt lat="43.23074" lon="5.70346">
        <ele>359.3</ele>
        <time>2021-04-21T10:38:07Z</time>
      </trkpt>
      <trkpt lat="43.23074" lon="5.70353">
        <ele>360.3</ele>
        <time>2021-04-21T10:38:27Z</time>
      </trkpt>
      <trkpt lat="43.23074" lon="5.70359">
        <ele>361.5</ele>
        <time>2021-04-21T10:38:39Z</time>
      </trkpt>
      <trkpt lat="43.23074" lon="5.70366">
        <ele>362.7</ele>
        <time>2021-04-21T10:38:45Z</time>
      </trkpt>
      <trkpt lat="43.23073" lon="5.70372">
        <ele>363</ele>
        <time>2021-04-21T10:38:53Z</time>
      </trkpt>
      <trkpt lat="43.2307" lon="5.70379">
        <ele>363.3</ele>
        <time>2021-04-21T10:39:01Z</time>
      </trkpt>
      <trkpt lat="43.23068" lon="5.70385">
        <ele>363.3</ele>
        <time>2021-04-21T10:40:55Z</time>
      </trkpt>
      <trkpt lat="43.23066" lon="5.70392">
        <ele>363.6</ele>
        <time>2021-04-21T10:41:03Z</time>
      </trkpt>
      <trkpt lat="43.23062" lon="5.70399">
        <ele>363.5</ele>
        <time>2021-04-21T10:41:09Z</time>
      </trkpt>
      <trkpt lat="43.2306" lon="5.70404">
        <ele>363.4</ele>
        <time>2021-04-21T10:41:17Z</time>
      </trkpt>
      <trkpt lat="43.23057" lon="5.70412">
        <ele>363.6</ele>
        <time>2021-04-21T10:41:27Z</time>
      </trkpt>
      <trkpt lat="43.23055" lon="5.70418">
        <ele>363.9</ele>
        <time>2021-04-21T10:41:33Z</time>
      </trkpt>
      <trkpt lat="43.23052" lon="5.70426">
        <ele>362.7</ele>
        <time>2021-04-21T10:41:39Z</time>
      </trkpt>
      <trkpt lat="43.23054" lon="5.70433">
        <ele>363</ele>
        <time>2021-04-21T10:41:47Z</time>
      </trkpt>
      <trkpt lat="43.23058" lon="5.70438">
        <ele>364.2</ele>
        <time>2021-04-21T10:41:53Z</time>
      </trkpt>
      <trkpt lat="43.23061" lon="5.70444">
        <ele>365.2</ele>
        <time>2021-04-21T10:42:01Z</time>
      </trkpt>
      <trkpt lat="43.23063" lon="5.70451">
        <ele>365.7</ele>
        <time>2021-04-21T10:42:13Z</time>
      </trkpt>
      <trkpt lat="43.23066" lon="5.70457">
        <ele>366.6</ele>
        <time>2021-04-21T10:42:19Z</time>
      </trkpt>
      <trkpt lat="43.2307" lon="5.70463">
        <ele>367.7</ele>
        <time>2021-04-21T10:42:27Z</time>
      </trkpt>
      <trkpt lat="43.23072" lon="5.7047">
        <ele>368.2</ele>
        <time>2021-04-21T10:42:37Z</time>
      </trkpt>
      <trkpt lat="43.23075" lon="5.70476">
        <ele>369.1</ele>
        <time>2021-04-21T10:42:45Z</time>
      </trkpt>
      <trkpt lat="43.23078" lon="5.70481">
        <ele>369.8</ele>
        <time>2021-04-21T10:42:53Z</time>
      </trkpt>
      <trkpt lat="43.23081" lon="5.70488">
        <ele>370.6</ele>
        <time>2021-04-21T10:43:01Z</time>
      </trkpt>
      <trkpt lat="43.23085" lon="5.70493">
        <ele>371.6</ele>
        <time>2021-04-21T10:43:07Z</time>
      </trkpt>
      <trkpt lat="43.23088" lon="5.70499">
        <ele>372.1</ele>
        <time>2021-04-21T10:43:15Z</time>
      </trkpt>
      <trkpt lat="43.23088" lon="5.70505">
        <ele>372.1</ele>
        <time>2021-04-21T10:43:21Z</time>
      </trkpt>
      <trkpt lat="43.23091" lon="5.70511">
        <ele>372.6</ele>
        <time>2021-04-21T10:43:45Z</time>
      </trkpt>
      <trkpt lat="43.23095" lon="5.70515">
        <ele>373.6</ele>
        <time>2021-04-21T10:43:53Z</time>
      </trkpt>
      <trkpt lat="43.23098" lon="5.70522">
        <ele>374.1</ele>
        <time>2021-04-21T10:44:01Z</time>
      </trkpt>
      <trkpt lat="43.23099" lon="5.70529">
        <ele>374.2</ele>
        <time>2021-04-21T10:44:05Z</time>
      </trkpt>
      <trkpt lat="43.231" lon="5.70535">
        <ele>374.4</ele>
        <time>2021-04-21T10:44:11Z</time>
      </trkpt>
      <trkpt lat="43.23104" lon="5.70541">
        <ele>375.3</ele>
        <time>2021-04-21T10:44:19Z</time>
      </trkpt>
      <trkpt lat="43.23106" lon="5.70548">
        <ele>375.6</ele>
        <time>2021-04-21T10:44:25Z</time>
      </trkpt>
      <trkpt lat="43.23105" lon="5.70555">
        <ele>375.1</ele>
        <time>2021-04-21T10:45:21Z</time>
      </trkpt>
      <trkpt lat="43.23104" lon="5.70562">
        <ele>374.6</ele>
        <time>2021-04-21T10:45:29Z</time>
      </trkpt>
      <trkpt lat="43.23103" lon="5.70569">
        <ele>374.2</ele>
        <time>2021-04-21T10:45:37Z</time>
      </trkpt>
      <trkpt lat="43.231" lon="5.70576">
        <ele>372.9</ele>
        <time>2021-04-21T10:45:45Z</time>
      </trkpt>
      <trkpt lat="43.23099" lon="5.70582">
        <ele>372.5</ele>
        <time>2021-04-21T10:45:51Z</time>
      </trkpt>
      <trkpt lat="43.23098" lon="5.7059">
        <ele>372.5</ele>
        <time>2021-04-21T10:45:59Z</time>
      </trkpt>
      <trkpt lat="43.23098" lon="5.70598">
        <ele>372.7</ele>
        <time>2021-04-21T10:46:05Z</time>
      </trkpt>
      <trkpt lat="43.23097" lon="5.70604">
        <ele>372.6</ele>
        <time>2021-04-21T10:46:11Z</time>
      </trkpt>
      <trkpt lat="43.23095" lon="5.70611">
        <ele>372.1</ele>
        <time>2021-04-21T10:46:17Z</time>
      </trkpt>
      <trkpt lat="43.23093" lon="5.70618">
        <ele>371.8</ele>
        <time>2021-04-21T10:46:25Z</time>
      </trkpt>
      <trkpt lat="43.23092" lon="5.70624">
        <ele>371.8</ele>
        <time>2021-04-21T10:46:31Z</time>
      </trkpt>
      <trkpt lat="43.23092" lon="5.70632">
        <ele>372</ele>
        <time>2021-04-21T10:46:37Z</time>
      </trkpt>
      <trkpt lat="43.23091" lon="5.70638">
        <ele>372</ele>
        <time>2021-04-21T10:46:43Z</time>
      </trkpt>
      <trkpt lat="43.23091" lon="5.70645">
        <ele>372.1</ele>
        <time>2021-04-21T10:46:49Z</time>
      </trkpt>
      <trkpt lat="43.23091" lon="5.70651">
        <ele>372.4</ele>
        <time>2021-04-21T10:46:55Z</time>
      </trkpt>
      <trkpt lat="43.23095" lon="5.70655">
        <ele>373.5</ele>
        <time>2021-04-21T10:47:03Z</time>
      </trkpt>
      <trkpt lat="43.231" lon="5.70656">
        <ele>374.8</ele>
        <time>2021-04-21T10:47:11Z</time>
      </trkpt>
      <trkpt lat="43.23105" lon="5.70659">
        <ele>376</ele>
        <time>2021-04-21T10:47:17Z</time>
      </trkpt>
      <trkpt lat="43.23108" lon="5.70664">
        <ele>376.8</ele>
        <time>2021-04-21T10:47:23Z</time>
      </trkpt>
      <trkpt lat="43.23112" lon="5.70667">
        <ele>377.9</ele>
        <time>2021-04-21T10:47:29Z</time>
      </trkpt>
      <trkpt lat="43.23117" lon="5.7067">
        <ele>378.9</ele>
        <time>2021-04-21T10:47:37Z</time>
      </trkpt>
      <trkpt lat="43.23121" lon="5.70673">
        <ele>379.8</ele>
        <time>2021-04-21T10:47:43Z</time>
      </trkpt>
      <trkpt lat="43.23125" lon="5.70676">
        <ele>380.7</ele>
        <time>2021-04-21T10:47:49Z</time>
      </trkpt>
      <trkpt lat="43.23128" lon="5.7068">
        <ele>381.3</ele>
        <time>2021-04-21T10:47:55Z</time>
      </trkpt>
      <trkpt lat="43.23132" lon="5.70684">
        <ele>381.9</ele>
        <time>2021-04-21T10:48:03Z</time>
      </trkpt>
      <trkpt lat="43.23137" lon="5.70688">
        <ele>382.8</ele>
        <time>2021-04-21T10:48:15Z</time>
      </trkpt>
      <trkpt lat="43.23141" lon="5.70694">
        <ele>383.4</ele>
        <time>2021-04-21T10:48:23Z</time>
      </trkpt>
      <trkpt lat="43.23143" lon="5.707">
        <ele>383.6</ele>
        <time>2021-04-21T10:48:29Z</time>
      </trkpt>
      <trkpt lat="43.23145" lon="5.70706">
        <ele>383.8</ele>
        <time>2021-04-21T10:48:39Z</time>
      </trkpt>
      <trkpt lat="43.23142" lon="5.7071">
        <ele>382.8</ele>
        <time>2021-04-21T10:48:47Z</time>
      </trkpt>
      <trkpt lat="43.23139" lon="5.70716">
        <ele>381.9</ele>
        <time>2021-04-21T10:48:55Z</time>
      </trkpt>
      <trkpt lat="43.23138" lon="5.70723">
        <ele>381.4</ele>
        <time>2021-04-21T10:49:03Z</time>
      </trkpt>
      <trkpt lat="43.23138" lon="5.70729">
        <ele>381.1</ele>
        <time>2021-04-21T10:49:17Z</time>
      </trkpt>
      <trkpt lat="43.23135" lon="5.70735">
        <ele>380.4</ele>
        <time>2021-04-21T10:49:35Z</time>
      </trkpt>
      <trkpt lat="43.23135" lon="5.70742">
        <ele>380</ele>
        <time>2021-04-21T10:49:55Z</time>
      </trkpt>
      <trkpt lat="43.23136" lon="5.70749">
        <ele>379.9</ele>
        <time>2021-04-21T10:50:03Z</time>
      </trkpt>
      <trkpt lat="43.2314" lon="5.70753">
        <ele>380</ele>
        <time>2021-04-21T10:50:09Z</time>
      </trkpt>
      <trkpt lat="43.23144" lon="5.70755">
        <ele>380.5</ele>
        <time>2021-04-21T10:50:17Z</time>
      </trkpt>
      <trkpt lat="43.2315" lon="5.70756">
        <ele>381.1</ele>
        <time>2021-04-21T10:50:27Z</time>
      </trkpt>
      <trkpt lat="43.23155" lon="5.70757">
        <ele>381.6</ele>
        <time>2021-04-21T10:50:35Z</time>
      </trkpt>
      <trkpt lat="43.23159" lon="5.70758">
        <ele>382.3</ele>
        <time>2021-04-21T10:50:45Z</time>
      </trkpt>
      <trkpt lat="43.23165" lon="5.70757">
        <ele>383.4</ele>
        <time>2021-04-21T10:51:01Z</time>
      </trkpt>
      <trkpt lat="43.2317" lon="5.70758">
        <ele>383.5</ele>
        <time>2021-04-21T10:51:09Z</time>
      </trkpt>
      <trkpt lat="43.23175" lon="5.70761">
        <ele>383</ele>
        <time>2021-04-21T10:51:23Z</time>
      </trkpt>
      <trkpt lat="43.23179" lon="5.70766">
        <ele>382.2</ele>
        <time>2021-04-21T10:51:35Z</time>
      </trkpt>
      <trkpt lat="43.23182" lon="5.7077">
        <ele>381.3</ele>
        <time>2021-04-21T10:51:43Z</time>
      </trkpt>
      <trkpt lat="43.23184" lon="5.70777">
        <ele>380.1</ele>
        <time>2021-04-21T10:52:03Z</time>
      </trkpt>
      <trkpt lat="43.23185" lon="5.70783">
        <ele>378.9</ele>
        <time>2021-04-21T10:52:19Z</time>
      </trkpt>
      <trkpt lat="43.23188" lon="5.70787">
        <ele>378.1</ele>
        <time>2021-04-21T10:52:41Z</time>
      </trkpt>
      <trkpt lat="43.23188" lon="5.70794">
        <ele>376.8</ele>
        <time>2021-04-21T10:53:09Z</time>
      </trkpt>
      <trkpt lat="43.2319" lon="5.708">
        <ele>375.5</ele>
        <time>2021-04-21T10:53:27Z</time>
      </trkpt>
      <trkpt lat="43.23191" lon="5.70806">
        <ele>374.2</ele>
        <time>2021-04-21T10:53:41Z</time>
      </trkpt>
      <trkpt lat="43.23193" lon="5.70812">
        <ele>373</ele>
        <time>2021-04-21T10:54:07Z</time>
      </trkpt>
      <trkpt lat="43.23196" lon="5.70818">
        <ele>371.9</ele>
        <time>2021-04-21T10:54:41Z</time>
      </trkpt>
      <trkpt lat="43.23197" lon="5.70824">
        <ele>370.6</ele>
        <time>2021-04-21T10:54:59Z</time>
      </trkpt>
      <trkpt lat="43.23199" lon="5.7083">
        <ele>369.5</ele>
        <time>2021-04-21T10:55:15Z</time>
      </trkpt>
      <trkpt lat="43.232" lon="5.70836">
        <ele>368</ele>
        <time>2021-04-21T10:56:51Z</time>
      </trkpt>
      <trkpt lat="43.23204" lon="5.70833">
        <ele>369</ele>
        <time>2021-04-21T10:58:29Z</time>
      </trkpt>
      <trkpt lat="43.23209" lon="5.7083">
        <ele>369.7</ele>
        <time>2021-04-21T10:58:43Z</time>
      </trkpt>
      <trkpt lat="43.23214" lon="5.70827">
        <ele>370.5</ele>
        <time>2021-04-21T10:58:51Z</time>
      </trkpt>
      <trkpt lat="43.2322" lon="5.70825">
        <ele>371.1</ele>
        <time>2021-04-21T10:58:59Z</time>
      </trkpt>
      <trkpt lat="43.23225" lon="5.70821">
        <ele>371.9</ele>
        <time>2021-04-21T10:59:05Z</time>
      </trkpt>
      <trkpt lat="43.23229" lon="5.70818">
        <ele>372.7</ele>
        <time>2021-04-21T10:59:11Z</time>
      </trkpt>
      <trkpt lat="43.23235" lon="5.70816">
        <ele>373.3</ele>
        <time>2021-04-21T10:59:19Z</time>
      </trkpt>
      <trkpt lat="43.23241" lon="5.70816">
        <ele>373.6</ele>
        <time>2021-04-21T10:59:25Z</time>
      </trkpt>
      <trkpt lat="43.23246" lon="5.70813">
        <ele>374.3</ele>
        <time>2021-04-21T10:59:31Z</time>
      </trkpt>
      <trkpt lat="43.23252" lon="5.7081">
        <ele>375</ele>
        <time>2021-04-21T10:59:39Z</time>
      </trkpt>
      <trkpt lat="43.23256" lon="5.70809">
        <ele>375.3</ele>
        <time>2021-04-21T10:59:45Z</time>
      </trkpt>
      <trkpt lat="43.23261" lon="5.70807">
        <ele>375.5</ele>
        <time>2021-04-21T10:59:51Z</time>
      </trkpt>
      <trkpt lat="43.23267" lon="5.70802">
        <ele>376.6</ele>
        <time>2021-04-21T10:59:57Z</time>
      </trkpt>
      <trkpt lat="43.23272" lon="5.70799">
        <ele>377</ele>
        <time>2021-04-21T11:00:03Z</time>
      </trkpt>
      <trkpt lat="43.23277" lon="5.70795">
        <ele>377.5</ele>
        <time>2021-04-21T11:00:09Z</time>
      </trkpt>
      <trkpt lat="43.23282" lon="5.70791">
        <ele>378.1</ele>
        <time>2021-04-21T11:00:15Z</time>
      </trkpt>
      <trkpt lat="43.23287" lon="5.70788">
        <ele>378.4</ele>
        <time>2021-04-21T11:00:21Z</time>
      </trkpt>
      <trkpt lat="43.23291" lon="5.70787">
        <ele>378.5</ele>
        <time>2021-04-21T11:00:27Z</time>
      </trkpt>
      <trkpt lat="43.23296" lon="5.70782">
        <ele>379.1</ele>
        <time>2021-04-21T11:00:35Z</time>
      </trkpt>
      <trkpt lat="43.23301" lon="5.7078">
        <ele>379.1</ele>
        <time>2021-04-21T11:00:41Z</time>
      </trkpt>
      <trkpt lat="43.23306" lon="5.70778">
        <ele>379.3</ele>
        <time>2021-04-21T11:00:47Z</time>
      </trkpt>
      <trkpt lat="43.23311" lon="5.70778">
        <ele>379.1</ele>
        <time>2021-04-21T11:00:53Z</time>
      </trkpt>
      <trkpt lat="43.23316" lon="5.70775">
        <ele>379.2</ele>
        <time>2021-04-21T11:00:59Z</time>
      </trkpt>
      <trkpt lat="43.23322" lon="5.70775">
        <ele>378.9</ele>
        <time>2021-04-21T11:01:05Z</time>
      </trkpt>
      <trkpt lat="43.23327" lon="5.70776">
        <ele>378.5</ele>
        <time>2021-04-21T11:01:11Z</time>
      </trkpt>
      <trkpt lat="43.23332" lon="5.7078">
        <ele>377.8</ele>
        <time>2021-04-21T11:01:17Z</time>
      </trkpt>
      <trkpt lat="43.23336" lon="5.70785">
        <ele>377.2</ele>
        <time>2021-04-21T11:01:23Z</time>
      </trkpt>
      <trkpt lat="43.23337" lon="5.70791">
        <ele>376.6</ele>
        <time>2021-04-21T11:01:31Z</time>
      </trkpt>
      <trkpt lat="43.23341" lon="5.70796">
        <ele>376.2</ele>
        <time>2021-04-21T11:01:39Z</time>
      </trkpt>
      <trkpt lat="43.23346" lon="5.70799">
        <ele>376.1</ele>
        <time>2021-04-21T11:01:49Z</time>
      </trkpt>
      <trkpt lat="43.2335" lon="5.70804">
        <ele>375.8</ele>
        <time>2021-04-21T11:01:55Z</time>
      </trkpt>
      <trkpt lat="43.23355" lon="5.70807">
        <ele>375.9</ele>
        <time>2021-04-21T11:02:01Z</time>
      </trkpt>
      <trkpt lat="43.2336" lon="5.70807">
        <ele>376.1</ele>
        <time>2021-04-21T11:02:21Z</time>
      </trkpt>
      <trkpt lat="43.23358" lon="5.70814">
        <ele>375.6</ele>
        <time>2021-04-21T11:02:47Z</time>
      </trkpt>
      <trkpt lat="43.23355" lon="5.7082">
        <ele>375</ele>
        <time>2021-04-21T11:03:59Z</time>
      </trkpt>
      <trkpt lat="43.23353" lon="5.70827">
        <ele>374.3</ele>
        <time>2021-04-21T11:04:05Z</time>
      </trkpt>
      <trkpt lat="43.23351" lon="5.70834">
        <ele>373.6</ele>
        <time>2021-04-21T11:04:11Z</time>
      </trkpt>
      <trkpt lat="43.23349" lon="5.70842">
        <ele>372.7</ele>
        <time>2021-04-21T11:04:19Z</time>
      </trkpt>
      <trkpt lat="43.23346" lon="5.70849">
        <ele>371.8</ele>
        <time>2021-04-21T11:04:27Z</time>
      </trkpt>
      <trkpt lat="43.23344" lon="5.70856">
        <ele>370.9</ele>
        <time>2021-04-21T11:04:33Z</time>
      </trkpt>
      <trkpt lat="43.23346" lon="5.70864">
        <ele>370.4</ele>
        <time>2021-04-21T11:04:39Z</time>
      </trkpt>
      <trkpt lat="43.23346" lon="5.70871">
        <ele>369.9</ele>
        <time>2021-04-21T11:04:45Z</time>
      </trkpt>
      <trkpt lat="43.23347" lon="5.70878">
        <ele>369.5</ele>
        <time>2021-04-21T11:04:51Z</time>
      </trkpt>
      <trkpt lat="43.23348" lon="5.70884">
        <ele>368.9</ele>
        <time>2021-04-21T11:04:57Z</time>
      </trkpt>
      <trkpt lat="43.23347" lon="5.70892">
        <ele>368.2</ele>
        <time>2021-04-21T11:05:03Z</time>
      </trkpt>
      <trkpt lat="43.23346" lon="5.70898">
        <ele>367.5</ele>
        <time>2021-04-21T11:05:09Z</time>
      </trkpt>
      <trkpt lat="43.23345" lon="5.70906">
        <ele>366.6</ele>
        <time>2021-04-21T11:05:15Z</time>
      </trkpt>
      <trkpt lat="43.23346" lon="5.70913">
        <ele>366</ele>
        <time>2021-04-21T11:05:21Z</time>
      </trkpt>
      <trkpt lat="43.23346" lon="5.7092">
        <ele>365.6</ele>
        <time>2021-04-21T11:05:29Z</time>
      </trkpt>
      <trkpt lat="43.23346" lon="5.70927">
        <ele>365.4</ele>
        <time>2021-04-21T11:05:37Z</time>
      </trkpt>
      <trkpt lat="43.23345" lon="5.70934">
        <ele>365.1</ele>
        <time>2021-04-21T11:05:43Z</time>
      </trkpt>
      <trkpt lat="43.23345" lon="5.70941">
        <ele>364.7</ele>
        <time>2021-04-21T11:05:49Z</time>
      </trkpt>
      <trkpt lat="43.23345" lon="5.70948">
        <ele>364.6</ele>
        <time>2021-04-21T11:05:55Z</time>
      </trkpt>
      <trkpt lat="43.23345" lon="5.70955">
        <ele>364.5</ele>
        <time>2021-04-21T11:06:01Z</time>
      </trkpt>
      <trkpt lat="43.23346" lon="5.70963">
        <ele>364.3</ele>
        <time>2021-04-21T11:06:07Z</time>
      </trkpt>
      <trkpt lat="43.23346" lon="5.70971">
        <ele>364.3</ele>
        <time>2021-04-21T11:06:13Z</time>
      </trkpt>
      <trkpt lat="43.23347" lon="5.70979">
        <ele>364.2</ele>
        <time>2021-04-21T11:06:19Z</time>
      </trkpt>
      <trkpt lat="43.23347" lon="5.70985">
        <ele>364.1</ele>
        <time>2021-04-21T11:06:25Z</time>
      </trkpt>
      <trkpt lat="43.23348" lon="5.70993">
        <ele>364.2</ele>
        <time>2021-04-21T11:06:31Z</time>
      </trkpt>
      <trkpt lat="43.23349" lon="5.71">
        <ele>364.1</ele>
        <time>2021-04-21T11:06:37Z</time>
      </trkpt>
      <trkpt lat="43.23349" lon="5.71007">
        <ele>364.3</ele>
        <time>2021-04-21T11:06:43Z</time>
      </trkpt>
      <trkpt lat="43.23347" lon="5.71014">
        <ele>363.9</ele>
        <time>2021-04-21T11:07:17Z</time>
      </trkpt>
      <trkpt lat="43.23346" lon="5.71021">
        <ele>363.8</ele>
        <time>2021-04-21T11:07:23Z</time>
      </trkpt>
      <trkpt lat="43.23345" lon="5.71027">
        <ele>363.7</ele>
        <time>2021-04-21T11:07:29Z</time>
      </trkpt>
      <trkpt lat="43.23344" lon="5.71034">
        <ele>363.4</ele>
        <time>2021-04-21T11:07:35Z</time>
      </trkpt>
      <trkpt lat="43.23343" lon="5.7104">
        <ele>363.2</ele>
        <time>2021-04-21T11:07:41Z</time>
      </trkpt>
      <trkpt lat="43.23342" lon="5.71047">
        <ele>363.2</ele>
        <time>2021-04-21T11:07:49Z</time>
      </trkpt>
      <trkpt lat="43.2334" lon="5.71054">
        <ele>362.6</ele>
        <time>2021-04-21T11:07:55Z</time>
      </trkpt>
      <trkpt lat="43.23338" lon="5.71062">
        <ele>362.3</ele>
        <time>2021-04-21T11:08:01Z</time>
      </trkpt>
      <trkpt lat="43.23337" lon="5.71069">
        <ele>361.9</ele>
        <time>2021-04-21T11:08:07Z</time>
      </trkpt>
      <trkpt lat="43.23334" lon="5.71075">
        <ele>361.1</ele>
        <time>2021-04-21T11:08:13Z</time>
      </trkpt>
      <trkpt lat="43.23331" lon="5.71081">
        <ele>360.4</ele>
        <time>2021-04-21T11:08:19Z</time>
      </trkpt>
      <trkpt lat="43.23327" lon="5.71087">
        <ele>359.8</ele>
        <time>2021-04-21T11:08:27Z</time>
      </trkpt>
      <trkpt lat="43.23323" lon="5.71093">
        <ele>359.5</ele>
        <time>2021-04-21T11:08:33Z</time>
      </trkpt>
      <trkpt lat="43.2332" lon="5.71099">
        <ele>359.6</ele>
        <time>2021-04-21T11:08:39Z</time>
      </trkpt>
      <trkpt lat="43.23317" lon="5.71105">
        <ele>359.4</ele>
        <time>2021-04-21T11:08:45Z</time>
      </trkpt>
      <trkpt lat="43.23314" lon="5.71112">
        <ele>359.5</ele>
        <time>2021-04-21T11:08:51Z</time>
      </trkpt>
      <trkpt lat="43.2331" lon="5.71119">
        <ele>359.2</ele>
        <time>2021-04-21T11:08:57Z</time>
      </trkpt>
      <trkpt lat="43.23306" lon="5.71124">
        <ele>358.4</ele>
        <time>2021-04-21T11:09:03Z</time>
      </trkpt>
      <trkpt lat="43.23301" lon="5.71129">
        <ele>357.6</ele>
        <time>2021-04-21T11:09:09Z</time>
      </trkpt>
      <trkpt lat="43.23298" lon="5.71134">
        <ele>357</ele>
        <time>2021-04-21T11:09:15Z</time>
      </trkpt>
      <trkpt lat="43.23294" lon="5.71139">
        <ele>356.4</ele>
        <time>2021-04-21T11:09:21Z</time>
      </trkpt>
      <trkpt lat="43.23289" lon="5.71146">
        <ele>355.5</ele>
        <time>2021-04-21T11:09:27Z</time>
      </trkpt>
      <trkpt lat="43.23285" lon="5.71151">
        <ele>354.6</ele>
        <time>2021-04-21T11:09:33Z</time>
      </trkpt>
      <trkpt lat="43.23281" lon="5.71156">
        <ele>353.6</ele>
        <time>2021-04-21T11:09:39Z</time>
      </trkpt>
      <trkpt lat="43.23278" lon="5.71162">
        <ele>353.1</ele>
        <time>2021-04-21T11:09:45Z</time>
      </trkpt>
      <trkpt lat="43.23274" lon="5.71169">
        <ele>352.5</ele>
        <time>2021-04-21T11:09:51Z</time>
      </trkpt>
      <trkpt lat="43.23272" lon="5.71175">
        <ele>352.1</ele>
        <time>2021-04-21T11:09:57Z</time>
      </trkpt>
      <trkpt lat="43.23268" lon="5.71181">
        <ele>351.4</ele>
        <time>2021-04-21T11:10:03Z</time>
      </trkpt>
      <trkpt lat="43.23265" lon="5.71189">
        <ele>351.1</ele>
        <time>2021-04-21T11:10:09Z</time>
      </trkpt>
      <trkpt lat="43.23263" lon="5.71197">
        <ele>351.1</ele>
        <time>2021-04-21T11:10:15Z</time>
      </trkpt>
      <trkpt lat="43.23262" lon="5.71205">
        <ele>351.4</ele>
        <time>2021-04-21T11:10:21Z</time>
      </trkpt>
      <trkpt lat="43.23261" lon="5.71212">
        <ele>351.7</ele>
        <time>2021-04-21T11:10:27Z</time>
      </trkpt>
      <trkpt lat="43.2326" lon="5.71219">
        <ele>352</ele>
        <time>2021-04-21T11:10:33Z</time>
      </trkpt>
      <trkpt lat="43.23257" lon="5.71226">
        <ele>351.8</ele>
        <time>2021-04-21T11:10:39Z</time>
      </trkpt>
      <trkpt lat="43.23254" lon="5.71232">
        <ele>351.3</ele>
        <time>2021-04-21T11:10:45Z</time>
      </trkpt>
      <trkpt lat="43.2325" lon="5.71239">
        <ele>350.9</ele>
        <time>2021-04-21T11:10:51Z</time>
      </trkpt>
      <trkpt lat="43.23247" lon="5.71244">
        <ele>350</ele>
        <time>2021-04-21T11:10:57Z</time>
      </trkpt>
      <trkpt lat="43.23244" lon="5.71249">
        <ele>349.4</ele>
        <time>2021-04-21T11:11:03Z</time>
      </trkpt>
      <trkpt lat="43.23241" lon="5.71255">
        <ele>347.9</ele>
        <time>2021-04-21T11:11:23Z</time>
      </trkpt>
      <trkpt lat="43.23238" lon="5.7126">
        <ele>346.6</ele>
        <time>2021-04-21T11:11:29Z</time>
      </trkpt>
      <trkpt lat="43.23234" lon="5.71266">
        <ele>345.1</ele>
        <time>2021-04-21T11:11:35Z</time>
      </trkpt>
      <trkpt lat="43.23231" lon="5.71273">
        <ele>343.7</ele>
        <time>2021-04-21T11:11:41Z</time>
      </trkpt>
      <trkpt lat="43.23228" lon="5.7128">
        <ele>342.3</ele>
        <time>2021-04-21T11:11:47Z</time>
      </trkpt>
      <trkpt lat="43.23226" lon="5.71286">
        <ele>341.5</ele>
        <time>2021-04-21T11:11:51Z</time>
      </trkpt>
      <trkpt lat="43.23224" lon="5.71294">
        <ele>340.6</ele>
        <time>2021-04-21T11:11:57Z</time>
      </trkpt>
      <trkpt lat="43.23227" lon="5.71301">
        <ele>341.1</ele>
        <time>2021-04-21T11:12:03Z</time>
      </trkpt>
      <trkpt lat="43.23231" lon="5.71305">
        <ele>342.3</ele>
        <time>2021-04-21T11:12:11Z</time>
      </trkpt>
      <trkpt lat="43.23235" lon="5.71311">
        <ele>343.3</ele>
        <time>2021-04-21T11:12:19Z</time>
      </trkpt>
      <trkpt lat="43.23239" lon="5.71316">
        <ele>344.1</ele>
        <time>2021-04-21T11:12:25Z</time>
      </trkpt>
      <trkpt lat="43.23243" lon="5.71321">
        <ele>344.9</ele>
        <time>2021-04-21T11:12:31Z</time>
      </trkpt>
      <trkpt lat="43.23247" lon="5.71326">
        <ele>345.6</ele>
        <time>2021-04-21T11:12:37Z</time>
      </trkpt>
      <trkpt lat="43.2325" lon="5.71333">
        <ele>346</ele>
        <time>2021-04-21T11:12:43Z</time>
      </trkpt>
      <trkpt lat="43.23254" lon="5.71338">
        <ele>346.4</ele>
        <time>2021-04-21T11:12:49Z</time>
      </trkpt>
      <trkpt lat="43.23258" lon="5.71344">
        <ele>346.7</ele>
        <time>2021-04-21T11:12:55Z</time>
      </trkpt>
      <trkpt lat="43.23262" lon="5.71349">
        <ele>347.1</ele>
        <time>2021-04-21T11:13:01Z</time>
      </trkpt>
      <trkpt lat="43.23266" lon="5.71355">
        <ele>347.4</ele>
        <time>2021-04-21T11:13:07Z</time>
      </trkpt>
      <trkpt lat="43.23268" lon="5.7136">
        <ele>347.3</ele>
        <time>2021-04-21T11:13:13Z</time>
      </trkpt>
      <trkpt lat="43.2327" lon="5.71367">
        <ele>346.8</ele>
        <time>2021-04-21T11:13:19Z</time>
      </trkpt>
      <trkpt lat="43.23271" lon="5.71374">
        <ele>346.1</ele>
        <time>2021-04-21T11:13:25Z</time>
      </trkpt>
      <trkpt lat="43.23271" lon="5.71382">
        <ele>344.8</ele>
        <time>2021-04-21T11:13:31Z</time>
      </trkpt>
      <trkpt lat="43.2327" lon="5.7139">
        <ele>343.3</ele>
        <time>2021-04-21T11:13:37Z</time>
      </trkpt>
      <trkpt lat="43.23271" lon="5.71398">
        <ele>342.4</ele>
        <time>2021-04-21T11:13:43Z</time>
      </trkpt>
      <trkpt lat="43.23272" lon="5.71404">
        <ele>342</ele>
        <time>2021-04-21T11:13:51Z</time>
      </trkpt>
      <trkpt lat="43.23274" lon="5.71411">
        <ele>341.8</ele>
        <time>2021-04-21T11:13:57Z</time>
      </trkpt>
      <trkpt lat="43.23277" lon="5.71417">
        <ele>342.2</ele>
        <time>2021-04-21T11:14:03Z</time>
      </trkpt>
      <trkpt lat="43.23279" lon="5.71425">
        <ele>342.7</ele>
        <time>2021-04-21T11:14:09Z</time>
      </trkpt>
      <trkpt lat="43.23278" lon="5.71433">
        <ele>342.7</ele>
        <time>2021-04-21T11:14:15Z</time>
      </trkpt>
      <trkpt lat="43.23277" lon="5.71441">
        <ele>342.2</ele>
        <time>2021-04-21T11:14:21Z</time>
      </trkpt>
      <trkpt lat="43.23274" lon="5.71447">
        <ele>341.2</ele>
        <time>2021-04-21T11:14:27Z</time>
      </trkpt>
      <trkpt lat="43.2327" lon="5.71454">
        <ele>339.9</ele>
        <time>2021-04-21T11:14:33Z</time>
      </trkpt>
      <trkpt lat="43.23266" lon="5.71457">
        <ele>338.3</ele>
        <time>2021-04-21T11:14:41Z</time>
      </trkpt>
      <trkpt lat="43.23262" lon="5.71459">
        <ele>336.7</ele>
        <time>2021-04-21T11:14:51Z</time>
      </trkpt>
      <trkpt lat="43.23258" lon="5.71466">
        <ele>335.7</ele>
        <time>2021-04-21T11:15:01Z</time>
      </trkpt>
      <trkpt lat="43.23255" lon="5.71472">
        <ele>334.6</ele>
        <time>2021-04-21T11:15:07Z</time>
      </trkpt>
      <trkpt lat="43.23251" lon="5.71477">
        <ele>333.5</ele>
        <time>2021-04-21T11:15:13Z</time>
      </trkpt>
      <trkpt lat="43.23247" lon="5.71483">
        <ele>332.3</ele>
        <time>2021-04-21T11:15:19Z</time>
      </trkpt>
      <trkpt lat="43.23243" lon="5.71487">
        <ele>331.1</ele>
        <time>2021-04-21T11:15:25Z</time>
      </trkpt>
      <trkpt lat="43.23238" lon="5.7149">
        <ele>329.3</ele>
        <time>2021-04-21T11:15:31Z</time>
      </trkpt>
      <trkpt lat="43.23233" lon="5.71492">
        <ele>327.6</ele>
        <time>2021-04-21T11:15:37Z</time>
      </trkpt>
      <trkpt lat="43.23228" lon="5.71495">
        <ele>326</ele>
        <time>2021-04-21T11:15:43Z</time>
      </trkpt>
      <trkpt lat="43.23224" lon="5.71501">
        <ele>324.7</ele>
        <time>2021-04-21T11:15:49Z</time>
      </trkpt>
      <trkpt lat="43.23218" lon="5.71505">
        <ele>322.9</ele>
        <time>2021-04-21T11:15:55Z</time>
      </trkpt>
      <trkpt lat="43.23213" lon="5.71509">
        <ele>321.4</ele>
        <time>2021-04-21T11:16:01Z</time>
      </trkpt>
      <trkpt lat="43.23208" lon="5.71509">
        <ele>319.6</ele>
        <time>2021-04-21T11:16:07Z</time>
      </trkpt>
      <trkpt lat="43.23202" lon="5.71513">
        <ele>318.1</ele>
        <time>2021-04-21T11:16:13Z</time>
      </trkpt>
      <trkpt lat="43.23198" lon="5.71516">
        <ele>317</ele>
        <time>2021-04-21T11:16:19Z</time>
      </trkpt>
      <trkpt lat="43.23193" lon="5.71519">
        <ele>315.6</ele>
        <time>2021-04-21T11:16:25Z</time>
      </trkpt>
      <trkpt lat="43.23188" lon="5.71524">
        <ele>314.5</ele>
        <time>2021-04-21T11:16:31Z</time>
      </trkpt>
      <trkpt lat="43.23183" lon="5.71528">
        <ele>313.6</ele>
        <time>2021-04-21T11:16:37Z</time>
      </trkpt>
      <trkpt lat="43.23181" lon="5.71534">
        <ele>313.6</ele>
        <time>2021-04-21T11:17:35Z</time>
      </trkpt>
      <trkpt lat="43.23177" lon="5.71539">
        <ele>312.7</ele>
        <time>2021-04-21T11:18:29Z</time>
      </trkpt>
      <trkpt lat="43.23171" lon="5.71544">
        <ele>311.8</ele>
        <time>2021-04-21T11:18:35Z</time>
      </trkpt>
      <trkpt lat="43.23167" lon="5.71549">
        <ele>311</ele>
        <time>2021-04-21T11:18:41Z</time>
      </trkpt>
      <trkpt lat="43.23163" lon="5.71554">
        <ele>310.6</ele>
        <time>2021-04-21T11:18:47Z</time>
      </trkpt>
      <trkpt lat="43.23159" lon="5.71559">
        <ele>310.2</ele>
        <time>2021-04-21T11:18:53Z</time>
      </trkpt>
      <trkpt lat="43.23155" lon="5.71565">
        <ele>309.7</ele>
        <time>2021-04-21T11:18:59Z</time>
      </trkpt>
      <trkpt lat="43.23152" lon="5.71571">
        <ele>309.7</ele>
        <time>2021-04-21T11:19:05Z</time>
      </trkpt>
      <trkpt lat="43.23149" lon="5.71576">
        <ele>309.8</ele>
        <time>2021-04-21T11:19:11Z</time>
      </trkpt>
      <trkpt lat="43.23147" lon="5.71583">
        <ele>310.2</ele>
        <time>2021-04-21T11:19:19Z</time>
      </trkpt>
      <trkpt lat="43.23146" lon="5.7159">
        <ele>309.8</ele>
        <time>2021-04-21T11:19:29Z</time>
      </trkpt>
      <trkpt lat="43.23144" lon="5.71597">
        <ele>309.2</ele>
        <time>2021-04-21T11:19:37Z</time>
      </trkpt>
      <trkpt lat="43.23142" lon="5.71604">
        <ele>308.7</ele>
        <time>2021-04-21T11:19:43Z</time>
      </trkpt>
      <trkpt lat="43.2314" lon="5.7161">
        <ele>308.3</ele>
        <time>2021-04-21T11:19:49Z</time>
      </trkpt>
      <trkpt lat="43.23138" lon="5.71616">
        <ele>307.7</ele>
        <time>2021-04-21T11:19:55Z</time>
      </trkpt>
      <trkpt lat="43.23134" lon="5.71623">
        <ele>306.9</ele>
        <time>2021-04-21T11:20:03Z</time>
      </trkpt>
      <trkpt lat="43.23132" lon="5.71629">
        <ele>306.5</ele>
        <time>2021-04-21T11:20:09Z</time>
      </trkpt>
      <trkpt lat="43.23129" lon="5.71635">
        <ele>305.9</ele>
        <time>2021-04-21T11:20:15Z</time>
      </trkpt>
      <trkpt lat="43.23126" lon="5.71641">
        <ele>305.4</ele>
        <time>2021-04-21T11:20:21Z</time>
      </trkpt>
      <trkpt lat="43.23121" lon="5.71646">
        <ele>304.6</ele>
        <time>2021-04-21T11:20:27Z</time>
      </trkpt>
      <trkpt lat="43.23117" lon="5.71652">
        <ele>303.9</ele>
        <time>2021-04-21T11:20:33Z</time>
      </trkpt>
      <trkpt lat="43.23112" lon="5.71658">
        <ele>303.1</ele>
        <time>2021-04-21T11:20:39Z</time>
      </trkpt>
      <trkpt lat="43.23106" lon="5.71662">
        <ele>302.1</ele>
        <time>2021-04-21T11:20:45Z</time>
      </trkpt>
      <trkpt lat="43.23101" lon="5.71664">
        <ele>301.3</ele>
        <time>2021-04-21T11:20:53Z</time>
      </trkpt>
      <trkpt lat="43.23099" lon="5.7167">
        <ele>300.7</ele>
        <time>2021-04-21T11:21:01Z</time>
      </trkpt>
      <trkpt lat="43.23095" lon="5.71675">
        <ele>299.4</ele>
        <time>2021-04-21T11:21:27Z</time>
      </trkpt>
      <trkpt lat="43.23092" lon="5.7168">
        <ele>298.4</ele>
        <time>2021-04-21T11:21:35Z</time>
      </trkpt>
      <trkpt lat="43.2309" lon="5.71687">
        <ele>297.3</ele>
        <time>2021-04-21T11:21:43Z</time>
      </trkpt>
      <trkpt lat="43.23088" lon="5.71694">
        <ele>296.3</ele>
        <time>2021-04-21T11:21:49Z</time>
      </trkpt>
      <trkpt lat="43.23085" lon="5.71701">
        <ele>295.3</ele>
        <time>2021-04-21T11:21:55Z</time>
      </trkpt>
      <trkpt lat="43.23082" lon="5.71708">
        <ele>294.3</ele>
        <time>2021-04-21T11:22:01Z</time>
      </trkpt>
      <trkpt lat="43.2308" lon="5.71714">
        <ele>293.3</ele>
        <time>2021-04-21T11:22:07Z</time>
      </trkpt>
      <trkpt lat="43.23078" lon="5.7172">
        <ele>292.4</ele>
        <time>2021-04-21T11:22:13Z</time>
      </trkpt>
      <trkpt lat="43.23074" lon="5.71724">
        <ele>291.4</ele>
        <time>2021-04-21T11:22:21Z</time>
      </trkpt>
      <trkpt lat="43.23072" lon="5.7173">
        <ele>290.5</ele>
        <time>2021-04-21T11:22:29Z</time>
      </trkpt>
      <trkpt lat="43.23069" lon="5.71736">
        <ele>289.6</ele>
        <time>2021-04-21T11:22:35Z</time>
      </trkpt>
      <trkpt lat="43.23064" lon="5.71741">
        <ele>288.5</ele>
        <time>2021-04-21T11:23:05Z</time>
      </trkpt>
      <trkpt lat="43.23059" lon="5.71746">
        <ele>287.5</ele>
        <time>2021-04-21T11:23:11Z</time>
      </trkpt>
      <trkpt lat="43.23056" lon="5.71752">
        <ele>286.4</ele>
        <time>2021-04-21T11:23:17Z</time>
      </trkpt>
      <trkpt lat="43.23052" lon="5.71755">
        <ele>285.3</ele>
        <time>2021-04-21T11:23:21Z</time>
      </trkpt>
      <trkpt lat="43.23047" lon="5.71762">
        <ele>283.6</ele>
        <time>2021-04-21T11:23:27Z</time>
      </trkpt>
      <trkpt lat="43.23043" lon="5.71766">
        <ele>282.4</ele>
        <time>2021-04-21T11:23:31Z</time>
      </trkpt>
      <trkpt lat="43.23039" lon="5.7177">
        <ele>281.6</ele>
        <time>2021-04-21T11:23:35Z</time>
      </trkpt>
      <trkpt lat="43.23035" lon="5.71772">
        <ele>280.8</ele>
        <time>2021-04-21T11:23:39Z</time>
      </trkpt>
      <trkpt lat="43.2303" lon="5.71779">
        <ele>279.6</ele>
        <time>2021-04-21T11:23:45Z</time>
      </trkpt>
      <trkpt lat="43.23027" lon="5.71784">
        <ele>278.9</ele>
        <time>2021-04-21T11:23:49Z</time>
      </trkpt>
      <trkpt lat="43.23024" lon="5.71789">
        <ele>278.2</ele>
        <time>2021-04-21T11:23:53Z</time>
      </trkpt>
      <trkpt lat="43.23021" lon="5.71794">
        <ele>277.6</ele>
        <time>2021-04-21T11:23:57Z</time>
      </trkpt>
      <trkpt lat="43.23018" lon="5.718">
        <ele>277</ele>
        <time>2021-04-21T11:24:01Z</time>
      </trkpt>
      <trkpt lat="43.23015" lon="5.71804">
        <ele>276.5</ele>
        <time>2021-04-21T11:24:05Z</time>
      </trkpt>
      <trkpt lat="43.23009" lon="5.71807">
        <ele>276.1</ele>
        <time>2021-04-21T11:24:11Z</time>
      </trkpt>
      <trkpt lat="43.23004" lon="5.71807">
        <ele>276.1</ele>
        <time>2021-04-21T11:24:17Z</time>
      </trkpt>
      <trkpt lat="43.22999" lon="5.71804">
        <ele>275.9</ele>
        <time>2021-04-21T11:24:23Z</time>
      </trkpt>
      <trkpt lat="43.22996" lon="5.71799">
        <ele>275.2</ele>
        <time>2021-04-21T11:24:31Z</time>
      </trkpt>
      <trkpt lat="43.22991" lon="5.71797">
        <ele>274.1</ele>
        <time>2021-04-21T11:24:43Z</time>
      </trkpt>
      <trkpt lat="43.22986" lon="5.71797">
        <ele>272.9</ele>
        <time>2021-04-21T11:25:13Z</time>
      </trkpt>
      <trkpt lat="43.22986" lon="5.7179">
        <ele>272.9</ele>
        <time>2021-04-21T11:25:23Z</time>
      </trkpt>
      <trkpt lat="43.22982" lon="5.71786">
        <ele>272.1</ele>
        <time>2021-04-21T11:25:35Z</time>
      </trkpt>
      <trkpt lat="43.22978" lon="5.71784">
        <ele>271</ele>
        <time>2021-04-21T11:25:51Z</time>
      </trkpt>
      <trkpt lat="43.22974" lon="5.71781">
        <ele>270.1</ele>
        <time>2021-04-21T11:25:59Z</time>
      </trkpt>
      <trkpt lat="43.22969" lon="5.71782">
        <ele>268.7</ele>
        <time>2021-04-21T11:26:07Z</time>
      </trkpt>
      <trkpt lat="43.22964" lon="5.71784">
        <ele>267.4</ele>
        <time>2021-04-21T11:26:15Z</time>
      </trkpt>
      <trkpt lat="43.22958" lon="5.71788">
        <ele>266</ele>
        <time>2021-04-21T11:26:23Z</time>
      </trkpt>
      <trkpt lat="43.22954" lon="5.71786">
        <ele>264.9</ele>
        <time>2021-04-21T11:26:33Z</time>
      </trkpt>
      <trkpt lat="43.22949" lon="5.71786">
        <ele>263.6</ele>
        <time>2021-04-21T11:26:41Z</time>
      </trkpt>
      <trkpt lat="43.22943" lon="5.71786">
        <ele>262.2</ele>
        <time>2021-04-21T11:26:49Z</time>
      </trkpt>
      <trkpt lat="43.22939" lon="5.71787">
        <ele>261</ele>
        <time>2021-04-21T11:26:55Z</time>
      </trkpt>
      <trkpt lat="43.22934" lon="5.71789">
        <ele>259.8</ele>
        <time>2021-04-21T11:27:05Z</time>
      </trkpt>
      <trkpt lat="43.2293" lon="5.71785">
        <ele>258.7</ele>
        <time>2021-04-21T11:27:19Z</time>
      </trkpt>
      <trkpt lat="43.22925" lon="5.71785">
        <ele>257.3</ele>
        <time>2021-04-21T11:27:31Z</time>
      </trkpt>
      <trkpt lat="43.22921" lon="5.71791">
        <ele>256.5</ele>
        <time>2021-04-21T11:29:43Z</time>
      </trkpt>
      <trkpt lat="43.22917" lon="5.71796">
        <ele>255.8</ele>
        <time>2021-04-21T11:29:53Z</time>
      </trkpt>
      <trkpt lat="43.22914" lon="5.718">
        <ele>255</ele>
        <time>2021-04-21T11:30:07Z</time>
      </trkpt>
      <trkpt lat="43.22912" lon="5.71806">
        <ele>254.6</ele>
        <time>2021-04-21T11:30:13Z</time>
      </trkpt>
      <trkpt lat="43.2291" lon="5.71812">
        <ele>254</ele>
        <time>2021-04-21T11:30:19Z</time>
      </trkpt>
      <trkpt lat="43.22909" lon="5.71819">
        <ele>254</ele>
        <time>2021-04-21T11:30:25Z</time>
      </trkpt>
      <trkpt lat="43.22908" lon="5.71827">
        <ele>254.1</ele>
        <time>2021-04-21T11:30:31Z</time>
      </trkpt>
      <trkpt lat="43.22907" lon="5.71834">
        <ele>253.9</ele>
        <time>2021-04-21T11:30:37Z</time>
      </trkpt>
      <trkpt lat="43.22907" lon="5.71842">
        <ele>253.5</ele>
        <time>2021-04-21T11:30:43Z</time>
      </trkpt>
      <trkpt lat="43.22907" lon="5.71848">
        <ele>253</ele>
        <time>2021-04-21T11:30:47Z</time>
      </trkpt>
      <trkpt lat="43.22905" lon="5.71857">
        <ele>252.2</ele>
        <time>2021-04-21T11:30:53Z</time>
      </trkpt>
      <trkpt lat="43.22905" lon="5.71864">
        <ele>251.5</ele>
        <time>2021-04-21T11:30:59Z</time>
      </trkpt>
      <trkpt lat="43.22903" lon="5.71872">
        <ele>250.8</ele>
        <time>2021-04-21T11:31:05Z</time>
      </trkpt>
      <trkpt lat="43.22903" lon="5.71878">
        <ele>250.3</ele>
        <time>2021-04-21T11:31:09Z</time>
      </trkpt>
      <trkpt lat="43.22902" lon="5.71886">
        <ele>249.6</ele>
        <time>2021-04-21T11:31:15Z</time>
      </trkpt>
      <trkpt lat="43.229" lon="5.71894">
        <ele>249</ele>
        <time>2021-04-21T11:31:21Z</time>
      </trkpt>
      <trkpt lat="43.229" lon="5.71901">
        <ele>248.4</ele>
        <time>2021-04-21T11:31:27Z</time>
      </trkpt>
      <trkpt lat="43.229" lon="5.71908">
        <ele>248.2</ele>
        <time>2021-04-21T11:31:31Z</time>
      </trkpt>
      <trkpt lat="43.229" lon="5.71915">
        <ele>247.9</ele>
        <time>2021-04-21T11:31:37Z</time>
      </trkpt>
      <trkpt lat="43.229" lon="5.71923">
        <ele>247.5</ele>
        <time>2021-04-21T11:31:43Z</time>
      </trkpt>
      <trkpt lat="43.229" lon="5.71932">
        <ele>246.9</ele>
        <time>2021-04-21T11:31:49Z</time>
      </trkpt>
      <trkpt lat="43.229" lon="5.71939">
        <ele>246.4</ele>
        <time>2021-04-21T11:31:55Z</time>
      </trkpt>
      <trkpt lat="43.229" lon="5.71948">
        <ele>246.1</ele>
        <time>2021-04-21T11:32:01Z</time>
      </trkpt>
      <trkpt lat="43.22901" lon="5.71956">
        <ele>245.7</ele>
        <time>2021-04-21T11:32:07Z</time>
      </trkpt>
      <trkpt lat="43.22901" lon="5.71963">
        <ele>245.4</ele>
        <time>2021-04-21T11:32:15Z</time>
      </trkpt>
      <trkpt lat="43.22901" lon="5.71972">
        <ele>244.7</ele>
        <time>2021-04-21T11:32:21Z</time>
      </trkpt>
      <trkpt lat="43.22902" lon="5.7198">
        <ele>244.4</ele>
        <time>2021-04-21T11:32:25Z</time>
      </trkpt>
      <trkpt lat="43.22903" lon="5.71986">
        <ele>244.3</ele>
        <time>2021-04-21T11:32:29Z</time>
      </trkpt>
      <trkpt lat="43.22903" lon="5.71992">
        <ele>243.9</ele>
        <time>2021-04-21T11:32:33Z</time>
      </trkpt>
      <trkpt lat="43.22904" lon="5.71999">
        <ele>243.5</ele>
        <time>2021-04-21T11:32:37Z</time>
      </trkpt>
      <trkpt lat="43.22906" lon="5.72004">
        <ele>243.5</ele>
        <time>2021-04-21T11:32:41Z</time>
      </trkpt>
      <trkpt lat="43.22908" lon="5.72013">
        <ele>243.2</ele>
        <time>2021-04-21T11:32:47Z</time>
      </trkpt>
      <trkpt lat="43.22912" lon="5.7202">
        <ele>243</ele>
        <time>2021-04-21T11:32:53Z</time>
      </trkpt>
      <trkpt lat="43.22916" lon="5.72026">
        <ele>242.8</ele>
        <time>2021-04-21T11:32:59Z</time>
      </trkpt>
      <trkpt lat="43.2292" lon="5.7203">
        <ele>242.7</ele>
        <time>2021-04-21T11:33:05Z</time>
      </trkpt>
      <trkpt lat="43.22925" lon="5.72034">
        <ele>242.6</ele>
        <time>2021-04-21T11:33:11Z</time>
      </trkpt>
      <trkpt lat="43.22929" lon="5.72037">
        <ele>242.6</ele>
        <time>2021-04-21T11:33:15Z</time>
      </trkpt>
      <trkpt lat="43.22934" lon="5.72041">
        <ele>242.5</ele>
        <time>2021-04-21T11:33:21Z</time>
      </trkpt>
      <trkpt lat="43.22938" lon="5.72045">
        <ele>242.3</ele>
        <time>2021-04-21T11:33:27Z</time>
      </trkpt>
      <trkpt lat="43.22943" lon="5.7205">
        <ele>242.2</ele>
        <time>2021-04-21T11:33:35Z</time>
      </trkpt>
      <trkpt lat="43.22948" lon="5.72053">
        <ele>242.1</ele>
        <time>2021-04-21T11:33:41Z</time>
      </trkpt>
      <trkpt lat="43.22951" lon="5.72057">
        <ele>241.9</ele>
        <time>2021-04-21T11:33:47Z</time>
      </trkpt>
      <trkpt lat="43.22956" lon="5.7206">
        <ele>241.7</ele>
        <time>2021-04-21T11:33:53Z</time>
      </trkpt>
      <trkpt lat="43.2296" lon="5.72064">
        <ele>241.5</ele>
        <time>2021-04-21T11:33:59Z</time>
      </trkpt>
      <trkpt lat="43.22964" lon="5.72069">
        <ele>241.3</ele>
        <time>2021-04-21T11:34:05Z</time>
      </trkpt>
      <trkpt lat="43.22964" lon="5.72077">
        <ele>240.4</ele>
        <time>2021-04-21T11:34:23Z</time>
      </trkpt>
      <trkpt lat="43.2296" lon="5.72081">
        <ele>239.8</ele>
        <time>2021-04-21T11:34:29Z</time>
      </trkpt>
      <trkpt lat="43.22955" lon="5.72083">
        <ele>239.4</ele>
        <time>2021-04-21T11:34:35Z</time>
      </trkpt>
      <trkpt lat="43.22949" lon="5.72085">
        <ele>239.5</ele>
        <time>2021-04-21T11:34:43Z</time>
      </trkpt>
      <trkpt lat="43.22944" lon="5.72088">
        <ele>240.1</ele>
        <time>2021-04-21T11:34:49Z</time>
      </trkpt>
      <trkpt lat="43.2294" lon="5.72089">
        <ele>240.2</ele>
        <time>2021-04-21T11:34:53Z</time>
      </trkpt>
      <trkpt lat="43.22933" lon="5.72089">
        <ele>240</ele>
        <time>2021-04-21T11:34:59Z</time>
      </trkpt>
      <trkpt lat="43.22927" lon="5.72091">
        <ele>240.4</ele>
        <time>2021-04-21T11:35:05Z</time>
      </trkpt>
      <trkpt lat="43.22921" lon="5.72092">
        <ele>240.4</ele>
        <time>2021-04-21T11:35:11Z</time>
      </trkpt>
      <trkpt lat="43.22916" lon="5.72091">
        <ele>240.3</ele>
        <time>2021-04-21T11:35:15Z</time>
      </trkpt>
      <trkpt lat="43.2291" lon="5.72091">
        <ele>241.1</ele>
        <time>2021-04-21T11:35:21Z</time>
      </trkpt>
      <trkpt lat="43.22904" lon="5.72092">
        <ele>242.1</ele>
        <time>2021-04-21T11:35:27Z</time>
      </trkpt>
      <trkpt lat="43.22898" lon="5.72093">
        <ele>243.3</ele>
        <time>2021-04-21T11:35:33Z</time>
      </trkpt>
      <trkpt lat="43.22891" lon="5.72091">
        <ele>243.8</ele>
        <time>2021-04-21T11:35:39Z</time>
      </trkpt>
      <trkpt lat="43.22885" lon="5.72089">
        <ele>244.1</ele>
        <time>2021-04-21T11:35:45Z</time>
      </trkpt>
      <trkpt lat="43.22879" lon="5.72086">
        <ele>244.2</ele>
        <time>2021-04-21T11:35:51Z</time>
      </trkpt>
      <trkpt lat="43.22875" lon="5.72084">
        <ele>244.1</ele>
        <time>2021-04-21T11:35:55Z</time>
      </trkpt>
      <trkpt lat="43.2287" lon="5.72081">
        <ele>244.6</ele>
        <time>2021-04-21T11:35:59Z</time>
      </trkpt>
      <trkpt lat="43.22865" lon="5.7208">
        <ele>245.1</ele>
        <time>2021-04-21T11:36:03Z</time>
      </trkpt>
      <trkpt lat="43.2286" lon="5.72078">
        <ele>245.6</ele>
        <time>2021-04-21T11:36:09Z</time>
      </trkpt>
      <trkpt lat="43.22854" lon="5.72075">
        <ele>246</ele>
        <time>2021-04-21T11:36:17Z</time>
      </trkpt>
      <trkpt lat="43.22848" lon="5.72073">
        <ele>246.5</ele>
        <time>2021-04-21T11:36:25Z</time>
      </trkpt>
      <trkpt lat="43.22843" lon="5.7207">
        <ele>246.6</ele>
        <time>2021-04-21T11:36:31Z</time>
      </trkpt>
      <trkpt lat="43.22838" lon="5.72069">
        <ele>247</ele>
        <time>2021-04-21T11:36:39Z</time>
      </trkpt>
      <trkpt lat="43.22832" lon="5.72068">
        <ele>247.5</ele>
        <time>2021-04-21T11:36:47Z</time>
      </trkpt>
      <trkpt lat="43.22827" lon="5.72065">
        <ele>248.4</ele>
        <time>2021-04-21T11:36:55Z</time>
      </trkpt>
      <trkpt lat="43.22822" lon="5.72061">
        <ele>249.2</ele>
        <time>2021-04-21T11:37:01Z</time>
      </trkpt>
      <trkpt lat="43.22819" lon="5.72057">
        <ele>249.7</ele>
        <time>2021-04-21T11:37:07Z</time>
      </trkpt>
      <trkpt lat="43.22813" lon="5.72054">
        <ele>250.7</ele>
        <time>2021-04-21T11:37:13Z</time>
      </trkpt>
      <trkpt lat="43.22809" lon="5.7205">
        <ele>251.2</ele>
        <time>2021-04-21T11:37:21Z</time>
      </trkpt>
      <trkpt lat="43.22805" lon="5.72045">
        <ele>251.5</ele>
        <time>2021-04-21T11:37:29Z</time>
      </trkpt>
      <trkpt lat="43.22801" lon="5.72041">
        <ele>251.8</ele>
        <time>2021-04-21T11:37:35Z</time>
      </trkpt>
      <trkpt lat="43.22797" lon="5.72037">
        <ele>252.4</ele>
        <time>2021-04-21T11:37:41Z</time>
      </trkpt>
      <trkpt lat="43.22793" lon="5.72033">
        <ele>252.9</ele>
        <time>2021-04-21T11:37:47Z</time>
      </trkpt>
      <trkpt lat="43.22789" lon="5.72029">
        <ele>253.4</ele>
        <time>2021-04-21T11:37:53Z</time>
      </trkpt>
      <trkpt lat="43.22785" lon="5.72023">
        <ele>253.5</ele>
        <time>2021-04-21T11:37:59Z</time>
      </trkpt>
      <trkpt lat="43.22781" lon="5.72018">
        <ele>253.8</ele>
        <time>2021-04-21T11:38:05Z</time>
      </trkpt>
      <trkpt lat="43.22777" lon="5.72013">
        <ele>254.1</ele>
        <time>2021-04-21T11:38:11Z</time>
      </trkpt>
      <trkpt lat="43.22773" lon="5.72007">
        <ele>254.3</ele>
        <time>2021-04-21T11:38:17Z</time>
      </trkpt>
      <trkpt lat="43.22769" lon="5.72">
        <ele>254.3</ele>
        <time>2021-04-21T11:38:23Z</time>
      </trkpt>
      <trkpt lat="43.22766" lon="5.71995">
        <ele>254.6</ele>
        <time>2021-04-21T11:38:29Z</time>
      </trkpt>
      <trkpt lat="43.22763" lon="5.7199">
        <ele>255.1</ele>
        <time>2021-04-21T11:38:35Z</time>
      </trkpt>
      <trkpt lat="43.2276" lon="5.71984">
        <ele>255.6</ele>
        <time>2021-04-21T11:38:41Z</time>
      </trkpt>
      <trkpt lat="43.22756" lon="5.71979">
        <ele>256.2</ele>
        <time>2021-04-21T11:38:47Z</time>
      </trkpt>
      <trkpt lat="43.22753" lon="5.71973">
        <ele>256.5</ele>
        <time>2021-04-21T11:38:53Z</time>
      </trkpt>
      <trkpt lat="43.22749" lon="5.71968">
        <ele>257.1</ele>
        <time>2021-04-21T11:38:59Z</time>
      </trkpt>
      <trkpt lat="43.22745" lon="5.71963">
        <ele>256.9</ele>
        <time>2021-04-21T11:39:05Z</time>
      </trkpt>
      <trkpt lat="43.22742" lon="5.71958">
        <ele>256.7</ele>
        <time>2021-04-21T11:39:11Z</time>
      </trkpt>
      <trkpt lat="43.22738" lon="5.71955">
        <ele>256.8</ele>
        <time>2021-04-21T11:39:17Z</time>
      </trkpt>
      <trkpt lat="43.22733" lon="5.71952">
        <ele>256.9</ele>
        <time>2021-04-21T11:39:23Z</time>
      </trkpt>
      <trkpt lat="43.22729" lon="5.71949">
        <ele>257</ele>
        <time>2021-04-21T11:39:29Z</time>
      </trkpt>
      <trkpt lat="43.22724" lon="5.71947">
        <ele>257.2</ele>
        <time>2021-04-21T11:39:35Z</time>
      </trkpt>
      <trkpt lat="43.22718" lon="5.71948">
        <ele>257.8</ele>
        <time>2021-04-21T11:39:43Z</time>
      </trkpt>
      <trkpt lat="43.22714" lon="5.71951">
        <ele>258.5</ele>
        <time>2021-04-21T11:39:51Z</time>
      </trkpt>
      <trkpt lat="43.22712" lon="5.71957">
        <ele>259.3</ele>
        <time>2021-04-21T11:39:59Z</time>
      </trkpt>
      <trkpt lat="43.2271" lon="5.71963">
        <ele>260</ele>
        <time>2021-04-21T11:42:03Z</time>
      </trkpt>
      <trkpt lat="43.22714" lon="5.71967">
        <ele>260.1</ele>
        <time>2021-04-21T11:42:09Z</time>
      </trkpt>
      <trkpt lat="43.22716" lon="5.71975">
        <ele>260.7</ele>
        <time>2021-04-21T11:42:15Z</time>
      </trkpt>
      <trkpt lat="43.2272" lon="5.71981">
        <ele>261</ele>
        <time>2021-04-21T11:42:21Z</time>
      </trkpt>
      <trkpt lat="43.22722" lon="5.71988">
        <ele>261.4</ele>
        <time>2021-04-21T11:42:27Z</time>
      </trkpt>
      <trkpt lat="43.22724" lon="5.71993">
        <ele>261.8</ele>
        <time>2021-04-21T11:42:31Z</time>
      </trkpt>
      <trkpt lat="43.22727" lon="5.71999">
        <ele>262.1</ele>
        <time>2021-04-21T11:42:37Z</time>
      </trkpt>
      <trkpt lat="43.2273" lon="5.72006">
        <ele>262.8</ele>
        <time>2021-04-21T11:42:43Z</time>
      </trkpt>
      <trkpt lat="43.22733" lon="5.72012">
        <ele>263.4</ele>
        <time>2021-04-21T11:42:49Z</time>
      </trkpt>
      <trkpt lat="43.22736" lon="5.7202">
        <ele>264.3</ele>
        <time>2021-04-21T11:42:55Z</time>
      </trkpt>
      <trkpt lat="43.22739" lon="5.72028">
        <ele>265.3</ele>
        <time>2021-04-21T11:43:01Z</time>
      </trkpt>
      <trkpt lat="43.22742" lon="5.72035">
        <ele>266.3</ele>
        <time>2021-04-21T11:43:07Z</time>
      </trkpt>
      <trkpt lat="43.22746" lon="5.72041">
        <ele>267.2</ele>
        <time>2021-04-21T11:43:13Z</time>
      </trkpt>
      <trkpt lat="43.22748" lon="5.72048">
        <ele>268.1</ele>
        <time>2021-04-21T11:43:19Z</time>
      </trkpt>
      <trkpt lat="43.22751" lon="5.72056">
        <ele>268.9</ele>
        <time>2021-04-21T11:43:25Z</time>
      </trkpt>
      <trkpt lat="43.22754" lon="5.72064">
        <ele>269.6</ele>
        <time>2021-04-21T11:43:31Z</time>
      </trkpt>
      <trkpt lat="43.22757" lon="5.72071">
        <ele>269.9</ele>
        <time>2021-04-21T11:43:37Z</time>
      </trkpt>
      <trkpt lat="43.2276" lon="5.72078">
        <ele>270.3</ele>
        <time>2021-04-21T11:43:43Z</time>
      </trkpt>
      <trkpt lat="43.22763" lon="5.72085">
        <ele>270.3</ele>
        <time>2021-04-21T11:43:49Z</time>
      </trkpt>
      <trkpt lat="43.22767" lon="5.72092">
        <ele>269.9</ele>
        <time>2021-04-21T11:43:55Z</time>
      </trkpt>
      <trkpt lat="43.2277" lon="5.72099">
        <ele>269.8</ele>
        <time>2021-04-21T11:44:01Z</time>
      </trkpt>
      <trkpt lat="43.22773" lon="5.72106">
        <ele>269.7</ele>
        <time>2021-04-21T11:44:07Z</time>
      </trkpt>
      <trkpt lat="43.22776" lon="5.72112">
        <ele>269.7</ele>
        <time>2021-04-21T11:44:13Z</time>
      </trkpt>
      <trkpt lat="43.2278" lon="5.72119">
        <ele>269.8</ele>
        <time>2021-04-21T11:44:19Z</time>
      </trkpt>
      <trkpt lat="43.22784" lon="5.72126">
        <ele>269.9</ele>
        <time>2021-04-21T11:44:25Z</time>
      </trkpt>
      <trkpt lat="43.22787" lon="5.72131">
        <ele>270.2</ele>
        <time>2021-04-21T11:44:31Z</time>
      </trkpt>
      <trkpt lat="43.2279" lon="5.72139">
        <ele>270.8</ele>
        <time>2021-04-21T11:44:37Z</time>
      </trkpt>
      <trkpt lat="43.22793" lon="5.72144">
        <ele>271.3</ele>
        <time>2021-04-21T11:44:47Z</time>
      </trkpt>
      <trkpt lat="43.22796" lon="5.72149">
        <ele>271.9</ele>
        <time>2021-04-21T11:44:57Z</time>
      </trkpt>
      <trkpt lat="43.22798" lon="5.72154">
        <ele>272.6</ele>
        <time>2021-04-21T11:45:03Z</time>
      </trkpt>
      <trkpt lat="43.22801" lon="5.7216">
        <ele>273.4</ele>
        <time>2021-04-21T11:45:09Z</time>
      </trkpt>
      <trkpt lat="43.22804" lon="5.72166">
        <ele>274.3</ele>
        <time>2021-04-21T11:45:15Z</time>
      </trkpt>
      <trkpt lat="43.22807" lon="5.7217">
        <ele>274.4</ele>
        <time>2021-04-21T11:45:21Z</time>
      </trkpt>
      <trkpt lat="43.2281" lon="5.72176">
        <ele>274.5</ele>
        <time>2021-04-21T11:45:27Z</time>
      </trkpt>
      <trkpt lat="43.22814" lon="5.7218">
        <ele>274.7</ele>
        <time>2021-04-21T11:45:33Z</time>
      </trkpt>
      <trkpt lat="43.22818" lon="5.72185">
        <ele>275</ele>
        <time>2021-04-21T11:45:39Z</time>
      </trkpt>
      <trkpt lat="43.22822" lon="5.72191">
        <ele>275.4</ele>
        <time>2021-04-21T11:45:45Z</time>
      </trkpt>
      <trkpt lat="43.22825" lon="5.72195">
        <ele>275.8</ele>
        <time>2021-04-21T11:45:51Z</time>
      </trkpt>
      <trkpt lat="43.22828" lon="5.722">
        <ele>276.4</ele>
        <time>2021-04-21T11:45:57Z</time>
      </trkpt>
      <trkpt lat="43.22832" lon="5.72205">
        <ele>277</ele>
        <time>2021-04-21T11:46:03Z</time>
      </trkpt>
      <trkpt lat="43.22835" lon="5.72211">
        <ele>277.7</ele>
        <time>2021-04-21T11:46:27Z</time>
      </trkpt>
      <trkpt lat="43.22838" lon="5.72217">
        <ele>278.3</ele>
        <time>2021-04-21T11:46:35Z</time>
      </trkpt>
      <trkpt lat="43.22842" lon="5.72223">
        <ele>278.8</ele>
        <time>2021-04-21T11:46:45Z</time>
      </trkpt>
      <trkpt lat="43.22846" lon="5.72228">
        <ele>279.3</ele>
        <time>2021-04-21T11:47:23Z</time>
      </trkpt>
      <trkpt lat="43.2285" lon="5.72231">
        <ele>279.8</ele>
        <time>2021-04-21T11:47:29Z</time>
      </trkpt>
      <trkpt lat="43.22854" lon="5.72236">
        <ele>280.4</ele>
        <time>2021-04-21T11:47:35Z</time>
      </trkpt>
      <trkpt lat="43.22858" lon="5.72241">
        <ele>281.1</ele>
        <time>2021-04-21T11:47:41Z</time>
      </trkpt>
      <trkpt lat="43.22863" lon="5.72244">
        <ele>281.7</ele>
        <time>2021-04-21T11:47:47Z</time>
      </trkpt>
      <trkpt lat="43.22868" lon="5.72248">
        <ele>282.4</ele>
        <time>2021-04-21T11:47:55Z</time>
      </trkpt>
      <trkpt lat="43.22872" lon="5.72253">
        <ele>283</ele>
        <time>2021-04-21T11:48:03Z</time>
      </trkpt>
      <trkpt lat="43.22872" lon="5.7226">
        <ele>283.4</ele>
        <time>2021-04-21T11:48:09Z</time>
      </trkpt>
      <trkpt lat="43.2287" lon="5.72267">
        <ele>283.6</ele>
        <time>2021-04-21T11:48:15Z</time>
      </trkpt>
      <trkpt lat="43.22867" lon="5.72271">
        <ele>283.6</ele>
        <time>2021-04-21T11:48:25Z</time>
      </trkpt>
      <trkpt lat="43.22863" lon="5.72277">
        <ele>283.5</ele>
        <time>2021-04-21T11:48:37Z</time>
      </trkpt>
      <trkpt lat="43.22859" lon="5.72283">
        <ele>283.4</ele>
        <time>2021-04-21T11:48:43Z</time>
      </trkpt>
      <trkpt lat="43.22855" lon="5.72291">
        <ele>283.3</ele>
        <time>2021-04-21T11:48:49Z</time>
      </trkpt>
      <trkpt lat="43.22853" lon="5.72296">
        <ele>283.2</ele>
        <time>2021-04-21T11:48:53Z</time>
      </trkpt>
      <trkpt lat="43.22849" lon="5.72304">
        <ele>283</ele>
        <time>2021-04-21T11:48:59Z</time>
      </trkpt>
      <trkpt lat="43.22847" lon="5.72312">
        <ele>282.8</ele>
        <time>2021-04-21T11:49:05Z</time>
      </trkpt>
      <trkpt lat="43.22844" lon="5.72317">
        <ele>282.5</ele>
        <time>2021-04-21T11:49:11Z</time>
      </trkpt>
      <trkpt lat="43.22841" lon="5.72324">
        <ele>282.2</ele>
        <time>2021-04-21T11:49:19Z</time>
      </trkpt>
      <trkpt lat="43.22838" lon="5.7233">
        <ele>281.7</ele>
        <time>2021-04-21T11:49:27Z</time>
      </trkpt>
      <trkpt lat="43.22836" lon="5.72336">
        <ele>281.2</ele>
        <time>2021-04-21T11:49:33Z</time>
      </trkpt>
      <trkpt lat="43.22833" lon="5.7234">
        <ele>280.4</ele>
        <time>2021-04-21T11:49:39Z</time>
      </trkpt>
      <trkpt lat="43.2283" lon="5.72346">
        <ele>279.5</ele>
        <time>2021-04-21T11:49:45Z</time>
      </trkpt>
      <trkpt lat="43.22827" lon="5.72352">
        <ele>278.5</ele>
        <time>2021-04-21T11:49:53Z</time>
      </trkpt>
      <trkpt lat="43.22822" lon="5.72359">
        <ele>277.2</ele>
        <time>2021-04-21T11:49:59Z</time>
      </trkpt>
      <trkpt lat="43.22819" lon="5.72364">
        <ele>276.3</ele>
        <time>2021-04-21T11:50:05Z</time>
      </trkpt>
      <trkpt lat="43.22817" lon="5.72369">
        <ele>275.5</ele>
        <time>2021-04-21T11:50:11Z</time>
      </trkpt>
      <trkpt lat="43.22813" lon="5.72374">
        <ele>274.6</ele>
        <time>2021-04-21T11:50:17Z</time>
      </trkpt>
      <trkpt lat="43.2281" lon="5.72379">
        <ele>273.7</ele>
        <time>2021-04-21T11:50:25Z</time>
      </trkpt>
      <trkpt lat="43.22808" lon="5.72385">
        <ele>273</ele>
        <time>2021-04-21T11:50:43Z</time>
      </trkpt>
      <trkpt lat="43.22806" lon="5.72392">
        <ele>272.3</ele>
        <time>2021-04-21T11:51:11Z</time>
      </trkpt>
      <trkpt lat="43.22802" lon="5.72395">
        <ele>271.4</ele>
        <time>2021-04-21T11:51:17Z</time>
      </trkpt>
      <trkpt lat="43.22798" lon="5.724">
        <ele>270.4</ele>
        <time>2021-04-21T11:51:25Z</time>
      </trkpt>
      <trkpt lat="43.22794" lon="5.72405">
        <ele>269.5</ele>
        <time>2021-04-21T11:51:33Z</time>
      </trkpt>
      <trkpt lat="43.2279" lon="5.72409">
        <ele>268.5</ele>
        <time>2021-04-21T11:51:41Z</time>
      </trkpt>
      <trkpt lat="43.22786" lon="5.72413">
        <ele>267.5</ele>
        <time>2021-04-21T11:51:49Z</time>
      </trkpt>
      <trkpt lat="43.22781" lon="5.72415">
        <ele>266.7</ele>
        <time>2021-04-21T11:52:05Z</time>
      </trkpt>
      <trkpt lat="43.22777" lon="5.7242">
        <ele>265.7</ele>
        <time>2021-04-21T11:52:23Z</time>
      </trkpt>
      <trkpt lat="43.22772" lon="5.72424">
        <ele>264.7</ele>
        <time>2021-04-21T11:52:29Z</time>
      </trkpt>
      <trkpt lat="43.22767" lon="5.72428">
        <ele>263.8</ele>
        <time>2021-04-21T11:52:35Z</time>
      </trkpt>
      <trkpt lat="43.22763" lon="5.72435">
        <ele>262.8</ele>
        <time>2021-04-21T11:52:41Z</time>
      </trkpt>
      <trkpt lat="43.2276" lon="5.7244">
        <ele>262.1</ele>
        <time>2021-04-21T11:52:45Z</time>
      </trkpt>
      <trkpt lat="43.22755" lon="5.72445">
        <ele>261.1</ele>
        <time>2021-04-21T11:52:51Z</time>
      </trkpt>
      <trkpt lat="43.22751" lon="5.7245">
        <ele>260.3</ele>
        <time>2021-04-21T11:52:57Z</time>
      </trkpt>
      <trkpt lat="43.22747" lon="5.72456">
        <ele>259.5</ele>
        <time>2021-04-21T11:53:03Z</time>
      </trkpt>
      <trkpt lat="43.22742" lon="5.72462">
        <ele>258.7</ele>
        <time>2021-04-21T11:53:09Z</time>
      </trkpt>
      <trkpt lat="43.22738" lon="5.72467">
        <ele>257.8</ele>
        <time>2021-04-21T11:53:15Z</time>
      </trkpt>
      <trkpt lat="43.22733" lon="5.72471">
        <ele>257.1</ele>
        <time>2021-04-21T11:53:19Z</time>
      </trkpt>
      <trkpt lat="43.22729" lon="5.72475">
        <ele>256.3</ele>
        <time>2021-04-21T11:53:23Z</time>
      </trkpt>
      <trkpt lat="43.22726" lon="5.72478">
        <ele>255.6</ele>
        <time>2021-04-21T11:53:27Z</time>
      </trkpt>
      <trkpt lat="43.22722" lon="5.72482">
        <ele>255</ele>
        <time>2021-04-21T11:53:31Z</time>
      </trkpt>
      <trkpt lat="43.22718" lon="5.72485">
        <ele>254.3</ele>
        <time>2021-04-21T11:53:35Z</time>
      </trkpt>
      <trkpt lat="43.22714" lon="5.72489">
        <ele>253.6</ele>
        <time>2021-04-21T11:53:39Z</time>
      </trkpt>
      <trkpt lat="43.2271" lon="5.72495">
        <ele>252.9</ele>
        <time>2021-04-21T11:53:45Z</time>
      </trkpt>
      <trkpt lat="43.22706" lon="5.72499">
        <ele>252.2</ele>
        <time>2021-04-21T11:53:49Z</time>
      </trkpt>
      <trkpt lat="43.22701" lon="5.72504">
        <ele>251.2</ele>
        <time>2021-04-21T11:53:55Z</time>
      </trkpt>
      <trkpt lat="43.22697" lon="5.72507">
        <ele>250.4</ele>
        <time>2021-04-21T11:53:59Z</time>
      </trkpt>
      <trkpt lat="43.22693" lon="5.7251">
        <ele>249.7</ele>
        <time>2021-04-21T11:54:03Z</time>
      </trkpt>
      <trkpt lat="43.22687" lon="5.72516">
        <ele>248.7</ele>
        <time>2021-04-21T11:54:09Z</time>
      </trkpt>
      <trkpt lat="43.22683" lon="5.7252">
        <ele>248.1</ele>
        <time>2021-04-21T11:54:13Z</time>
      </trkpt>
      <trkpt lat="43.22679" lon="5.72524">
        <ele>247.4</ele>
        <time>2021-04-21T11:54:19Z</time>
      </trkpt>
      <trkpt lat="43.22674" lon="5.7253">
        <ele>246.6</ele>
        <time>2021-04-21T11:54:25Z</time>
      </trkpt>
      <trkpt lat="43.2267" lon="5.72534">
        <ele>246</ele>
        <time>2021-04-21T11:54:29Z</time>
      </trkpt>
      <trkpt lat="43.22666" lon="5.72538">
        <ele>245.5</ele>
        <time>2021-04-21T11:54:33Z</time>
      </trkpt>
      <trkpt lat="43.22661" lon="5.72544">
        <ele>244.9</ele>
        <time>2021-04-21T11:54:39Z</time>
      </trkpt>
      <trkpt lat="43.22657" lon="5.72547">
        <ele>244.5</ele>
        <time>2021-04-21T11:54:43Z</time>
      </trkpt>
      <trkpt lat="43.22652" lon="5.72552">
        <ele>244</ele>
        <time>2021-04-21T11:54:49Z</time>
      </trkpt>
      <trkpt lat="43.22647" lon="5.72557">
        <ele>243.5</ele>
        <time>2021-04-21T11:54:55Z</time>
      </trkpt>
      <trkpt lat="43.22643" lon="5.7256">
        <ele>243.2</ele>
        <time>2021-04-21T11:54:59Z</time>
      </trkpt>
      <trkpt lat="43.22639" lon="5.72565">
        <ele>242.8</ele>
        <time>2021-04-21T11:55:03Z</time>
      </trkpt>
      <trkpt lat="43.22636" lon="5.72569">
        <ele>242.5</ele>
        <time>2021-04-21T11:55:07Z</time>
      </trkpt>
      <trkpt lat="43.22632" lon="5.72573">
        <ele>242.1</ele>
        <time>2021-04-21T11:55:13Z</time>
      </trkpt>
      <trkpt lat="43.22627" lon="5.72573">
        <ele>241.6</ele>
        <time>2021-04-21T11:55:19Z</time>
      </trkpt>
      <trkpt lat="43.22621" lon="5.72576">
        <ele>241.2</ele>
        <time>2021-04-21T11:55:25Z</time>
      </trkpt>
      <trkpt lat="43.22627" lon="5.72579">
        <ele>241.7</ele>
        <time>2021-04-21T11:59:27Z</time>
      </trkpt>
      <trkpt lat="43.22627" lon="5.72586">
        <ele>241.5</ele>
        <time>2021-04-21T11:59:37Z</time>
      </trkpt>
      <trkpt lat="43.22624" lon="5.72593">
        <ele>240.8</ele>
        <time>2021-04-21T11:59:43Z</time>
      </trkpt>
      <trkpt lat="43.22622" lon="5.726">
        <ele>240</ele>
        <time>2021-04-21T11:59:49Z</time>
      </trkpt>
      <trkpt lat="43.22618" lon="5.72605">
        <ele>239.4</ele>
        <time>2021-04-21T11:59:55Z</time>
      </trkpt>
      <trkpt lat="43.22612" lon="5.72607">
        <ele>238.8</ele>
        <time>2021-04-21T12:00:01Z</time>
      </trkpt>
      <trkpt lat="43.22607" lon="5.72607">
        <ele>238.4</ele>
        <time>2021-04-21T12:00:07Z</time>
      </trkpt>
      <trkpt lat="43.22601" lon="5.72607">
        <ele>237.9</ele>
        <time>2021-04-21T12:00:13Z</time>
      </trkpt>
      <trkpt lat="43.22596" lon="5.72607">
        <ele>237.5</ele>
        <time>2021-04-21T12:00:19Z</time>
      </trkpt>
      <trkpt lat="43.2259" lon="5.72608">
        <ele>237</ele>
        <time>2021-04-21T12:00:25Z</time>
      </trkpt>
      <trkpt lat="43.22583" lon="5.72609">
        <ele>236.5</ele>
        <time>2021-04-21T12:00:31Z</time>
      </trkpt>
      <trkpt lat="43.22578" lon="5.72611">
        <ele>235.6</ele>
        <time>2021-04-21T12:00:37Z</time>
      </trkpt>
      <trkpt lat="43.22572" lon="5.72614">
        <ele>234.7</ele>
        <time>2021-04-21T12:00:43Z</time>
      </trkpt>
      <trkpt lat="43.22568" lon="5.72619">
        <ele>233.9</ele>
        <time>2021-04-21T12:00:49Z</time>
      </trkpt>
      <trkpt lat="43.22563" lon="5.72623">
        <ele>233.2</ele>
        <time>2021-04-21T12:00:55Z</time>
      </trkpt>
      <trkpt lat="43.22558" lon="5.72628">
        <ele>232.3</ele>
        <time>2021-04-21T12:01:03Z</time>
      </trkpt>
      <trkpt lat="43.22553" lon="5.72632">
        <ele>231.6</ele>
        <time>2021-04-21T12:01:09Z</time>
      </trkpt>
      <trkpt lat="43.22549" lon="5.72636">
        <ele>230.9</ele>
        <time>2021-04-21T12:01:15Z</time>
      </trkpt>
      <trkpt lat="43.22544" lon="5.72642">
        <ele>230.1</ele>
        <time>2021-04-21T12:01:21Z</time>
      </trkpt>
      <trkpt lat="43.22539" lon="5.72647">
        <ele>229.4</ele>
        <time>2021-04-21T12:01:27Z</time>
      </trkpt>
      <trkpt lat="43.22535" lon="5.72651">
        <ele>228.9</ele>
        <time>2021-04-21T12:01:33Z</time>
      </trkpt>
      <trkpt lat="43.22531" lon="5.72655">
        <ele>228.3</ele>
        <time>2021-04-21T12:01:39Z</time>
      </trkpt>
      <trkpt lat="43.22527" lon="5.72661">
        <ele>227.8</ele>
        <time>2021-04-21T12:01:45Z</time>
      </trkpt>
      <trkpt lat="43.22523" lon="5.72666">
        <ele>227.2</ele>
        <time>2021-04-21T12:01:51Z</time>
      </trkpt>
      <trkpt lat="43.22518" lon="5.72672">
        <ele>226.5</ele>
        <time>2021-04-21T12:01:57Z</time>
      </trkpt>
      <trkpt lat="43.22514" lon="5.72675">
        <ele>226</ele>
        <time>2021-04-21T12:02:01Z</time>
      </trkpt>
      <trkpt lat="43.22508" lon="5.72679">
        <ele>225.3</ele>
        <time>2021-04-21T12:02:07Z</time>
      </trkpt>
      <trkpt lat="43.22503" lon="5.72684">
        <ele>224.7</ele>
        <time>2021-04-21T12:02:13Z</time>
      </trkpt>
      <trkpt lat="43.22499" lon="5.72689">
        <ele>224.1</ele>
        <time>2021-04-21T12:02:19Z</time>
      </trkpt>
      <trkpt lat="43.22495" lon="5.72695">
        <ele>223.6</ele>
        <time>2021-04-21T12:02:25Z</time>
      </trkpt>
      <trkpt lat="43.2249" lon="5.727">
        <ele>223</ele>
        <time>2021-04-21T12:02:31Z</time>
      </trkpt>
      <trkpt lat="43.22486" lon="5.72706">
        <ele>222.4</ele>
        <time>2021-04-21T12:02:39Z</time>
      </trkpt>
      <trkpt lat="43.22482" lon="5.72711">
        <ele>221.9</ele>
        <time>2021-04-21T12:02:47Z</time>
      </trkpt>
      <trkpt lat="43.22478" lon="5.72715">
        <ele>221.4</ele>
        <time>2021-04-21T12:02:53Z</time>
      </trkpt>
      <trkpt lat="43.22475" lon="5.72721">
        <ele>221</ele>
        <time>2021-04-21T12:03:03Z</time>
      </trkpt>
      <trkpt lat="43.22472" lon="5.72726">
        <ele>220.5</ele>
        <time>2021-04-21T12:03:09Z</time>
      </trkpt>
      <trkpt lat="43.22468" lon="5.72732">
        <ele>219.9</ele>
        <time>2021-04-21T12:03:15Z</time>
      </trkpt>
      <trkpt lat="43.22463" lon="5.72739">
        <ele>219.3</ele>
        <time>2021-04-21T12:03:21Z</time>
      </trkpt>
      <trkpt lat="43.22458" lon="5.72745">
        <ele>218.7</ele>
        <time>2021-04-21T12:03:27Z</time>
      </trkpt>
      <trkpt lat="43.22453" lon="5.72749">
        <ele>218</ele>
        <time>2021-04-21T12:03:33Z</time>
      </trkpt>
      <trkpt lat="43.22448" lon="5.72751">
        <ele>217.7</ele>
        <time>2021-04-21T12:03:37Z</time>
      </trkpt>
      <trkpt lat="43.22444" lon="5.72754">
        <ele>217.3</ele>
        <time>2021-04-21T12:03:41Z</time>
      </trkpt>
      <trkpt lat="43.22439" lon="5.72757">
        <ele>216.9</ele>
        <time>2021-04-21T12:03:45Z</time>
      </trkpt>
      <trkpt lat="43.22433" lon="5.7276">
        <ele>216.5</ele>
        <time>2021-04-21T12:03:51Z</time>
      </trkpt>
      <trkpt lat="43.22429" lon="5.72764">
        <ele>216.2</ele>
        <time>2021-04-21T12:03:55Z</time>
      </trkpt>
      <trkpt lat="43.22424" lon="5.72765">
        <ele>215.8</ele>
        <time>2021-04-21T12:03:59Z</time>
      </trkpt>
      <trkpt lat="43.22418" lon="5.72766">
        <ele>215.3</ele>
        <time>2021-04-21T12:04:05Z</time>
      </trkpt>
      <trkpt lat="43.22413" lon="5.72766">
        <ele>214.9</ele>
        <time>2021-04-21T12:04:09Z</time>
      </trkpt>
      <trkpt lat="43.22407" lon="5.72766">
        <ele>214.5</ele>
        <time>2021-04-21T12:04:15Z</time>
      </trkpt>
      <trkpt lat="43.224" lon="5.72769">
        <ele>214</ele>
        <time>2021-04-21T12:04:21Z</time>
      </trkpt>
      <trkpt lat="43.22394" lon="5.72772">
        <ele>213.6</ele>
        <time>2021-04-21T12:04:27Z</time>
      </trkpt>
      <trkpt lat="43.22389" lon="5.72775">
        <ele>213.2</ele>
        <time>2021-04-21T12:04:33Z</time>
      </trkpt>
      <trkpt lat="43.22385" lon="5.72781">
        <ele>213</ele>
        <time>2021-04-21T12:04:39Z</time>
      </trkpt>
      <trkpt lat="43.22382" lon="5.72788">
        <ele>212.8</ele>
        <time>2021-04-21T12:04:45Z</time>
      </trkpt>
      <trkpt lat="43.22382" lon="5.72795">
        <ele>212.8</ele>
        <time>2021-04-21T12:04:49Z</time>
      </trkpt>
      <trkpt lat="43.22381" lon="5.72802">
        <ele>212.8</ele>
        <time>2021-04-21T12:04:53Z</time>
      </trkpt>
      <trkpt lat="43.2238" lon="5.7281">
        <ele>212.7</ele>
        <time>2021-04-21T12:04:59Z</time>
      </trkpt>
      <trkpt lat="43.22378" lon="5.72818">
        <ele>212.7</ele>
        <time>2021-04-21T12:05:05Z</time>
      </trkpt>
      <trkpt lat="43.22377" lon="5.72825">
        <ele>212.7</ele>
        <time>2021-04-21T12:05:09Z</time>
      </trkpt>
      <trkpt lat="43.22377" lon="5.72831">
        <ele>212.6</ele>
        <time>2021-04-21T12:05:13Z</time>
      </trkpt>
      <trkpt lat="43.22376" lon="5.72837">
        <ele>212.6</ele>
        <time>2021-04-21T12:05:17Z</time>
      </trkpt>
      <trkpt lat="43.22375" lon="5.72846">
        <ele>212.6</ele>
        <time>2021-04-21T12:05:23Z</time>
      </trkpt>
      <trkpt lat="43.22374" lon="5.72853">
        <ele>212.5</ele>
        <time>2021-04-21T12:05:29Z</time>
      </trkpt>
      <trkpt lat="43.2237" lon="5.72861">
        <ele>212.3</ele>
        <time>2021-04-21T12:05:35Z</time>
      </trkpt>
      <trkpt lat="43.22365" lon="5.7286">
        <ele>211.9</ele>
        <time>2021-04-21T12:05:43Z</time>
      </trkpt>
      <trkpt lat="43.2236" lon="5.72857">
        <ele>211.4</ele>
        <time>2021-04-21T12:05:49Z</time>
      </trkpt>
      <trkpt lat="43.22356" lon="5.72855">
        <ele>211.1</ele>
        <time>2021-04-21T12:05:53Z</time>
      </trkpt>
      <trkpt lat="43.2235" lon="5.72852">
        <ele>210.6</ele>
        <time>2021-04-21T12:05:59Z</time>
      </trkpt>
      <trkpt lat="43.22344" lon="5.7285">
        <ele>210.1</ele>
        <time>2021-04-21T12:06:05Z</time>
      </trkpt>
      <trkpt lat="43.2234" lon="5.72848">
        <ele>209.7</ele>
        <time>2021-04-21T12:06:09Z</time>
      </trkpt>
      <trkpt lat="43.22335" lon="5.72846">
        <ele>209.3</ele>
        <time>2021-04-21T12:06:13Z</time>
      </trkpt>
      <trkpt lat="43.22331" lon="5.72845">
        <ele>208.9</ele>
        <time>2021-04-21T12:06:17Z</time>
      </trkpt>
      <trkpt lat="43.22325" lon="5.72842">
        <ele>208.4</ele>
        <time>2021-04-21T12:06:23Z</time>
      </trkpt>
      <trkpt lat="43.22319" lon="5.7284">
        <ele>207.9</ele>
        <time>2021-04-21T12:06:29Z</time>
      </trkpt>
      <trkpt lat="43.22314" lon="5.7284">
        <ele>207.5</ele>
        <time>2021-04-21T12:06:33Z</time>
      </trkpt>
      <trkpt lat="43.2231" lon="5.72839">
        <ele>207.1</ele>
        <time>2021-04-21T12:06:37Z</time>
      </trkpt>
      <trkpt lat="43.22303" lon="5.72839">
        <ele>206.6</ele>
        <time>2021-04-21T12:06:43Z</time>
      </trkpt>
      <trkpt lat="43.22298" lon="5.72838">
        <ele>206.1</ele>
        <time>2021-04-21T12:06:47Z</time>
      </trkpt>
      <trkpt lat="43.22293" lon="5.72838">
        <ele>205.7</ele>
        <time>2021-04-21T12:06:51Z</time>
      </trkpt>
      <trkpt lat="43.22288" lon="5.72838">
        <ele>205.3</ele>
        <time>2021-04-21T12:06:55Z</time>
      </trkpt>
      <trkpt lat="43.22283" lon="5.72838">
        <ele>204.9</ele>
        <time>2021-04-21T12:06:59Z</time>
      </trkpt>
      <trkpt lat="43.22278" lon="5.72837">
        <ele>204.4</ele>
        <time>2021-04-21T12:07:03Z</time>
      </trkpt>
      <trkpt lat="43.22272" lon="5.72837">
        <ele>203.9</ele>
        <time>2021-04-21T12:07:09Z</time>
      </trkpt>
      <trkpt lat="43.22265" lon="5.72835">
        <ele>203.3</ele>
        <time>2021-04-21T12:07:15Z</time>
      </trkpt>
      <trkpt lat="43.2226" lon="5.72836">
        <ele>202.9</ele>
        <time>2021-04-21T12:07:19Z</time>
      </trkpt>
      <trkpt lat="43.22254" lon="5.72836">
        <ele>202.4</ele>
        <time>2021-04-21T12:07:25Z</time>
      </trkpt>
      <trkpt lat="43.22249" lon="5.72837">
        <ele>202.1</ele>
        <time>2021-04-21T12:07:29Z</time>
      </trkpt>
      <trkpt lat="43.22244" lon="5.72837">
        <ele>202</ele>
        <time>2021-04-21T12:07:33Z</time>
      </trkpt>
      <trkpt lat="43.2224" lon="5.72837">
        <ele>201.9</ele>
        <time>2021-04-21T12:07:37Z</time>
      </trkpt>
      <trkpt lat="43.22235" lon="5.72837">
        <ele>201.8</ele>
        <time>2021-04-21T12:07:41Z</time>
      </trkpt>
      <trkpt lat="43.2223" lon="5.72836">
        <ele>201.7</ele>
        <time>2021-04-21T12:07:45Z</time>
      </trkpt>
      <trkpt lat="43.22225" lon="5.72835">
        <ele>201.5</ele>
        <time>2021-04-21T12:07:49Z</time>
      </trkpt>
      <trkpt lat="43.22221" lon="5.72834">
        <ele>201.3</ele>
        <time>2021-04-21T12:07:53Z</time>
      </trkpt>
      <trkpt lat="43.22216" lon="5.72832">
        <ele>201.2</ele>
        <time>2021-04-21T12:07:57Z</time>
      </trkpt>
      <trkpt lat="43.22211" lon="5.7283">
        <ele>201.1</ele>
        <time>2021-04-21T12:08:01Z</time>
      </trkpt>
      <trkpt lat="43.22207" lon="5.72828">
        <ele>201</ele>
        <time>2021-04-21T12:08:05Z</time>
      </trkpt>
      <trkpt lat="43.22201" lon="5.72825">
        <ele>200.8</ele>
        <time>2021-04-21T12:08:11Z</time>
      </trkpt>
      <trkpt lat="43.22196" lon="5.72823">
        <ele>200.7</ele>
        <time>2021-04-21T12:08:15Z</time>
      </trkpt>
      <trkpt lat="43.22189" lon="5.72821">
        <ele>200.5</ele>
        <time>2021-04-21T12:08:19Z</time>
      </trkpt>
      <trkpt lat="43.22185" lon="5.72819">
        <ele>200.3</ele>
        <time>2021-04-21T12:08:23Z</time>
      </trkpt>
      <trkpt lat="43.22179" lon="5.72816">
        <ele>200.2</ele>
        <time>2021-04-21T12:08:29Z</time>
      </trkpt>
      <trkpt lat="43.22173" lon="5.72814">
        <ele>199.9</ele>
        <time>2021-04-21T12:08:35Z</time>
      </trkpt>
      <trkpt lat="43.22168" lon="5.72811">
        <ele>199.8</ele>
        <time>2021-04-21T12:08:39Z</time>
      </trkpt>
      <trkpt lat="43.22163" lon="5.7281">
        <ele>199.6</ele>
        <time>2021-04-21T12:08:43Z</time>
      </trkpt>
      <trkpt lat="43.22157" lon="5.72813">
        <ele>199.6</ele>
        <time>2021-04-21T12:08:49Z</time>
      </trkpt>
      <trkpt lat="43.22153" lon="5.72821">
        <ele>199.5</ele>
        <time>2021-04-21T12:08:55Z</time>
      </trkpt>
      <trkpt lat="43.22151" lon="5.72827">
        <ele>199.6</ele>
        <time>2021-04-21T12:08:59Z</time>
      </trkpt>
      <trkpt lat="43.2215" lon="5.72833">
        <ele>199.6</ele>
        <time>2021-04-21T12:09:03Z</time>
      </trkpt>
      <trkpt lat="43.22148" lon="5.7284">
        <ele>200.1</ele>
        <time>2021-04-21T12:09:07Z</time>
      </trkpt>
      <trkpt lat="43.22147" lon="5.72846">
        <ele>200.7</ele>
        <time>2021-04-21T12:09:11Z</time>
      </trkpt>
      <trkpt lat="43.22145" lon="5.72855">
        <ele>201.5</ele>
        <time>2021-04-21T12:09:17Z</time>
      </trkpt>
      <trkpt lat="43.22142" lon="5.7286">
        <ele>201.9</ele>
        <time>2021-04-21T12:09:21Z</time>
      </trkpt>
      <trkpt lat="43.2214" lon="5.72865">
        <ele>202.4</ele>
        <time>2021-04-21T12:09:25Z</time>
      </trkpt>
      <trkpt lat="43.22138" lon="5.72873">
        <ele>203.1</ele>
        <time>2021-04-21T12:09:31Z</time>
      </trkpt>
      <trkpt lat="43.22136" lon="5.7288">
        <ele>203.8</ele>
        <time>2021-04-21T12:09:37Z</time>
      </trkpt>
      <trkpt lat="43.22133" lon="5.72885">
        <ele>204.2</ele>
        <time>2021-04-21T12:09:45Z</time>
      </trkpt>
      <trkpt lat="43.22128" lon="5.72885">
        <ele>204.3</ele>
        <time>2021-04-21T12:09:55Z</time>
      </trkpt>
      <trkpt lat="43.22133" lon="5.72886">
        <ele>204.4</ele>
        <time>2021-04-21T12:11:53Z</time>
      </trkpt>
      <trkpt lat="43.22137" lon="5.72884">
        <ele>204.2</ele>
        <time>2021-04-21T12:56:55Z</time>
      </trkpt>
      <trkpt lat="43.22141" lon="5.72876">
        <ele>203.5</ele>
        <time>2021-04-21T13:00:03Z</time>
      </trkpt>
      <trkpt lat="43.22143" lon="5.7287">
        <ele>202.9</ele>
        <time>2021-04-21T13:00:07Z</time>
      </trkpt>
      <trkpt lat="43.22145" lon="5.72863">
        <ele>202.2</ele>
        <time>2021-04-21T13:00:15Z</time>
      </trkpt>
      <trkpt lat="43.22147" lon="5.72857">
        <ele>201.8</ele>
        <time>2021-04-21T13:00:27Z</time>
      </trkpt>
      <trkpt lat="43.22148" lon="5.7285">
        <ele>201.1</ele>
        <time>2021-04-21T13:00:35Z</time>
      </trkpt>
      <trkpt lat="43.2215" lon="5.72844">
        <ele>200.6</ele>
        <time>2021-04-21T13:00:43Z</time>
      </trkpt>
      <trkpt lat="43.22153" lon="5.72837">
        <ele>200</ele>
        <time>2021-04-21T13:00:49Z</time>
      </trkpt>
      <trkpt lat="43.22155" lon="5.7283">
        <ele>199.7</ele>
        <time>2021-04-21T13:00:55Z</time>
      </trkpt>
      <trkpt lat="43.22158" lon="5.72824">
        <ele>199.7</ele>
        <time>2021-04-21T13:01:03Z</time>
      </trkpt>
      <trkpt lat="43.22159" lon="5.72818">
        <ele>199.7</ele>
        <time>2021-04-21T13:01:09Z</time>
      </trkpt>
      <trkpt lat="43.22161" lon="5.72811">
        <ele>199.6</ele>
        <time>2021-04-21T13:01:15Z</time>
      </trkpt>
      <trkpt lat="43.2216" lon="5.72804">
        <ele>199.5</ele>
        <time>2021-04-21T13:01:23Z</time>
      </trkpt>
      <trkpt lat="43.22156" lon="5.728">
        <ele>199.4</ele>
        <time>2021-04-21T13:01:29Z</time>
      </trkpt>
      <trkpt lat="43.22152" lon="5.72797">
        <ele>199.3</ele>
        <time>2021-04-21T13:01:35Z</time>
      </trkpt>
      <trkpt lat="43.22147" lon="5.72794">
        <ele>199.2</ele>
        <time>2021-04-21T13:01:41Z</time>
      </trkpt>
      <trkpt lat="43.22143" lon="5.7279">
        <ele>199.1</ele>
        <time>2021-04-21T13:01:47Z</time>
      </trkpt>
      <trkpt lat="43.2214" lon="5.72784">
        <ele>199</ele>
        <time>2021-04-21T13:01:53Z</time>
      </trkpt>
      <trkpt lat="43.22136" lon="5.7278">
        <ele>198.9</ele>
        <time>2021-04-21T13:01:59Z</time>
      </trkpt>
      <trkpt lat="43.22132" lon="5.72776">
        <ele>198.8</ele>
        <time>2021-04-21T13:02:05Z</time>
      </trkpt>
      <trkpt lat="43.22128" lon="5.72771">
        <ele>198.7</ele>
        <time>2021-04-21T13:02:11Z</time>
      </trkpt>
      <trkpt lat="43.22123" lon="5.72768">
        <ele>198.6</ele>
        <time>2021-04-21T13:02:17Z</time>
      </trkpt>
      <trkpt lat="43.22119" lon="5.72763">
        <ele>198.5</ele>
        <time>2021-04-21T13:02:23Z</time>
      </trkpt>
      <trkpt lat="43.22116" lon="5.72757">
        <ele>198.4</ele>
        <time>2021-04-21T13:02:29Z</time>
      </trkpt>
      <trkpt lat="43.22115" lon="5.7275">
        <ele>198.4</ele>
        <time>2021-04-21T13:02:37Z</time>
      </trkpt>
      <trkpt lat="43.22115" lon="5.72743">
        <ele>198.6</ele>
        <time>2021-04-21T13:02:43Z</time>
      </trkpt>
      <trkpt lat="43.22117" lon="5.72736">
        <ele>198.8</ele>
        <time>2021-04-21T13:02:49Z</time>
      </trkpt>
      <trkpt lat="43.22117" lon="5.72728">
        <ele>199</ele>
        <time>2021-04-21T13:02:55Z</time>
      </trkpt>
      <trkpt lat="43.22115" lon="5.7272">
        <ele>199.2</ele>
        <time>2021-04-21T13:03:01Z</time>
      </trkpt>
      <trkpt lat="43.22114" lon="5.72713">
        <ele>199.4</ele>
        <time>2021-04-21T13:03:07Z</time>
      </trkpt>
      <trkpt lat="43.22111" lon="5.72706">
        <ele>199.6</ele>
        <time>2021-04-21T13:03:13Z</time>
      </trkpt>
      <trkpt lat="43.22111" lon="5.72698">
        <ele>199.8</ele>
        <time>2021-04-21T13:03:19Z</time>
      </trkpt>
      <trkpt lat="43.22109" lon="5.72691">
        <ele>199.9</ele>
        <time>2021-04-21T13:03:25Z</time>
      </trkpt>
      <trkpt lat="43.22107" lon="5.72683">
        <ele>200.1</ele>
        <time>2021-04-21T13:03:31Z</time>
      </trkpt>
      <trkpt lat="43.22104" lon="5.72676">
        <ele>200.2</ele>
        <time>2021-04-21T13:03:37Z</time>
      </trkpt>
      <trkpt lat="43.22103" lon="5.72669">
        <ele>200.4</ele>
        <time>2021-04-21T13:03:43Z</time>
      </trkpt>
      <trkpt lat="43.22101" lon="5.72662">
        <ele>200.4</ele>
        <time>2021-04-21T13:03:49Z</time>
      </trkpt>
      <trkpt lat="43.221" lon="5.72654">
        <ele>200.2</ele>
        <time>2021-04-21T13:03:55Z</time>
      </trkpt>
      <trkpt lat="43.22098" lon="5.72646">
        <ele>200</ele>
        <time>2021-04-21T13:04:01Z</time>
      </trkpt>
      <trkpt lat="43.22096" lon="5.72639">
        <ele>199.8</ele>
        <time>2021-04-21T13:04:07Z</time>
      </trkpt>
      <trkpt lat="43.22096" lon="5.72632">
        <ele>199.6</ele>
        <time>2021-04-21T13:04:13Z</time>
      </trkpt>
      <trkpt lat="43.22096" lon="5.72625">
        <ele>199.5</ele>
        <time>2021-04-21T13:04:19Z</time>
      </trkpt>
      <trkpt lat="43.22093" lon="5.72619">
        <ele>199.3</ele>
        <time>2021-04-21T13:04:25Z</time>
      </trkpt>
      <trkpt lat="43.2209" lon="5.72613">
        <ele>199</ele>
        <time>2021-04-21T13:04:31Z</time>
      </trkpt>
      <trkpt lat="43.22086" lon="5.72607">
        <ele>198.7</ele>
        <time>2021-04-21T13:04:37Z</time>
      </trkpt>
      <trkpt lat="43.22083" lon="5.72601">
        <ele>198.4</ele>
        <time>2021-04-21T13:04:43Z</time>
      </trkpt>
      <trkpt lat="43.22079" lon="5.72594">
        <ele>198</ele>
        <time>2021-04-21T13:04:49Z</time>
      </trkpt>
      <trkpt lat="43.22076" lon="5.72586">
        <ele>197.6</ele>
        <time>2021-04-21T13:04:55Z</time>
      </trkpt>
      <trkpt lat="43.22073" lon="5.72578">
        <ele>197.5</ele>
        <time>2021-04-21T13:05:01Z</time>
      </trkpt>
      <trkpt lat="43.22071" lon="5.7257">
        <ele>197.6</ele>
        <time>2021-04-21T13:05:07Z</time>
      </trkpt>
      <trkpt lat="43.22069" lon="5.72562">
        <ele>197.8</ele>
        <time>2021-04-21T13:05:13Z</time>
      </trkpt>
      <trkpt lat="43.22066" lon="5.72554">
        <ele>197.9</ele>
        <time>2021-04-21T13:05:19Z</time>
      </trkpt>
      <trkpt lat="43.22063" lon="5.72546">
        <ele>198</ele>
        <time>2021-04-21T13:05:25Z</time>
      </trkpt>
      <trkpt lat="43.22061" lon="5.72539">
        <ele>198.1</ele>
        <time>2021-04-21T13:05:31Z</time>
      </trkpt>
      <trkpt lat="43.22058" lon="5.72533">
        <ele>198.2</ele>
        <time>2021-04-21T13:05:37Z</time>
      </trkpt>
      <trkpt lat="43.22054" lon="5.72527">
        <ele>198.3</ele>
        <time>2021-04-21T13:05:43Z</time>
      </trkpt>
      <trkpt lat="43.22051" lon="5.72522">
        <ele>198.4</ele>
        <time>2021-04-21T13:05:47Z</time>
      </trkpt>
      <trkpt lat="43.22047" lon="5.72517">
        <ele>198.5</ele>
        <time>2021-04-21T13:05:51Z</time>
      </trkpt>
      <trkpt lat="43.22042" lon="5.72511">
        <ele>198.6</ele>
        <time>2021-04-21T13:05:57Z</time>
      </trkpt>
      <trkpt lat="43.22039" lon="5.72506">
        <ele>198.7</ele>
        <time>2021-04-21T13:06:01Z</time>
      </trkpt>
      <trkpt lat="43.22036" lon="5.72499">
        <ele>198.9</ele>
        <time>2021-04-21T13:06:07Z</time>
      </trkpt>
      <trkpt lat="43.22033" lon="5.72494">
        <ele>198.8</ele>
        <time>2021-04-21T13:06:11Z</time>
      </trkpt>
      <trkpt lat="43.2203" lon="5.72489">
        <ele>198.8</ele>
        <time>2021-04-21T13:06:15Z</time>
      </trkpt>
      <trkpt lat="43.22026" lon="5.72482">
        <ele>198.8</ele>
        <time>2021-04-21T13:06:21Z</time>
      </trkpt>
      <trkpt lat="43.22024" lon="5.72474">
        <ele>198.8</ele>
        <time>2021-04-21T13:06:27Z</time>
      </trkpt>
      <trkpt lat="43.22021" lon="5.72467">
        <ele>198.8</ele>
        <time>2021-04-21T13:06:33Z</time>
      </trkpt>
      <trkpt lat="43.22019" lon="5.72459">
        <ele>198.8</ele>
        <time>2021-04-21T13:06:39Z</time>
      </trkpt>
      <trkpt lat="43.22017" lon="5.72451">
        <ele>198.9</ele>
        <time>2021-04-21T13:06:45Z</time>
      </trkpt>
      <trkpt lat="43.22014" lon="5.72446">
        <ele>198.9</ele>
        <time>2021-04-21T13:06:49Z</time>
      </trkpt>
      <trkpt lat="43.22013" lon="5.72438">
        <ele>198.9</ele>
        <time>2021-04-21T13:06:55Z</time>
      </trkpt>
      <trkpt lat="43.22011" lon="5.7243">
        <ele>199</ele>
        <time>2021-04-21T13:07:01Z</time>
      </trkpt>
      <trkpt lat="43.22009" lon="5.72424">
        <ele>199</ele>
        <time>2021-04-21T13:07:05Z</time>
      </trkpt>
      <trkpt lat="43.22007" lon="5.72418">
        <ele>199.1</ele>
        <time>2021-04-21T13:07:11Z</time>
      </trkpt>
      <trkpt lat="43.22005" lon="5.72412">
        <ele>199.1</ele>
        <time>2021-04-21T13:07:17Z</time>
      </trkpt>
      <trkpt lat="43.22002" lon="5.72404">
        <ele>199</ele>
        <time>2021-04-21T13:07:23Z</time>
      </trkpt>
      <trkpt lat="43.21999" lon="5.72396">
        <ele>198.9</ele>
        <time>2021-04-21T13:07:29Z</time>
      </trkpt>
      <trkpt lat="43.21997" lon="5.72389">
        <ele>198.6</ele>
        <time>2021-04-21T13:07:35Z</time>
      </trkpt>
      <trkpt lat="43.21995" lon="5.72381">
        <ele>198.4</ele>
        <time>2021-04-21T13:07:41Z</time>
      </trkpt>
      <trkpt lat="43.21992" lon="5.72374">
        <ele>198.1</ele>
        <time>2021-04-21T13:07:47Z</time>
      </trkpt>
      <trkpt lat="43.21989" lon="5.72367">
        <ele>197.7</ele>
        <time>2021-04-21T13:07:53Z</time>
      </trkpt>
      <trkpt lat="43.21989" lon="5.72361">
        <ele>197.7</ele>
        <time>2021-04-21T13:07:59Z</time>
      </trkpt>
      <trkpt lat="43.21988" lon="5.72354">
        <ele>197.6</ele>
        <time>2021-04-21T13:08:05Z</time>
      </trkpt>
      <trkpt lat="43.21986" lon="5.72349">
        <ele>197.3</ele>
        <time>2021-04-21T13:08:11Z</time>
      </trkpt>
      <trkpt lat="43.21984" lon="5.72343">
        <ele>197.1</ele>
        <time>2021-04-21T13:08:17Z</time>
      </trkpt>
      <trkpt lat="43.21984" lon="5.72335">
        <ele>197.1</ele>
        <time>2021-04-21T13:08:27Z</time>
      </trkpt>
      <trkpt lat="43.21984" lon="5.72329">
        <ele>196.9</ele>
        <time>2021-04-21T13:08:33Z</time>
      </trkpt>
      <trkpt lat="43.21984" lon="5.72321">
        <ele>196.7</ele>
        <time>2021-04-21T13:08:39Z</time>
      </trkpt>
      <trkpt lat="43.21985" lon="5.72315">
        <ele>196.7</ele>
        <time>2021-04-21T13:08:45Z</time>
      </trkpt>
      <trkpt lat="43.21986" lon="5.72308">
        <ele>196.5</ele>
        <time>2021-04-21T13:08:51Z</time>
      </trkpt>
      <trkpt lat="43.21987" lon="5.72301">
        <ele>196.4</ele>
        <time>2021-04-21T13:08:57Z</time>
      </trkpt>
      <trkpt lat="43.21986" lon="5.72293">
        <ele>196.2</ele>
        <time>2021-04-21T13:09:03Z</time>
      </trkpt>
      <trkpt lat="43.21987" lon="5.72285">
        <ele>195.9</ele>
        <time>2021-04-21T13:09:09Z</time>
      </trkpt>
      <trkpt lat="43.21988" lon="5.72278">
        <ele>195.8</ele>
        <time>2021-04-21T13:09:15Z</time>
      </trkpt>
      <trkpt lat="43.21987" lon="5.72271">
        <ele>195.5</ele>
        <time>2021-04-21T13:09:25Z</time>
      </trkpt>
      <trkpt lat="43.21986" lon="5.72264">
        <ele>195.2</ele>
        <time>2021-04-21T13:09:31Z</time>
      </trkpt>
      <trkpt lat="43.21986" lon="5.72257">
        <ele>195</ele>
        <time>2021-04-21T13:09:37Z</time>
      </trkpt>
      <trkpt lat="43.21986" lon="5.7225">
        <ele>194.8</ele>
        <time>2021-04-21T13:09:43Z</time>
      </trkpt>
      <trkpt lat="43.21986" lon="5.72243">
        <ele>194.5</ele>
        <time>2021-04-21T13:09:49Z</time>
      </trkpt>
      <trkpt lat="43.21984" lon="5.72234">
        <ele>193.9</ele>
        <time>2021-04-21T13:10:01Z</time>
      </trkpt>
      <trkpt lat="43.21983" lon="5.72226">
        <ele>193.4</ele>
        <time>2021-04-21T13:10:07Z</time>
      </trkpt>
      <trkpt lat="43.21981" lon="5.72219">
        <ele>193</ele>
        <time>2021-04-21T13:10:13Z</time>
      </trkpt>
      <trkpt lat="43.21979" lon="5.72213">
        <ele>192.6</ele>
        <time>2021-04-21T13:10:19Z</time>
      </trkpt>
      <trkpt lat="43.21977" lon="5.72206">
        <ele>192.2</ele>
        <time>2021-04-21T13:10:25Z</time>
      </trkpt>
      <trkpt lat="43.21974" lon="5.72201">
        <ele>191.8</ele>
        <time>2021-04-21T13:10:33Z</time>
      </trkpt>
      <trkpt lat="43.21972" lon="5.72195">
        <ele>191.5</ele>
        <time>2021-04-21T13:10:39Z</time>
      </trkpt>
      <trkpt lat="43.2197" lon="5.7219">
        <ele>191.2</ele>
        <time>2021-04-21T13:10:43Z</time>
      </trkpt>
      <trkpt lat="43.21966" lon="5.72185">
        <ele>190.8</ele>
        <time>2021-04-21T13:10:47Z</time>
      </trkpt>
      <trkpt lat="43.21964" lon="5.72178">
        <ele>190.5</ele>
        <time>2021-04-21T13:10:53Z</time>
      </trkpt>
      <trkpt lat="43.21962" lon="5.72172">
        <ele>190.3</ele>
        <time>2021-04-21T13:10:59Z</time>
      </trkpt>
      <trkpt lat="43.2196" lon="5.72166">
        <ele>190</ele>
        <time>2021-04-21T13:11:03Z</time>
      </trkpt>
      <trkpt lat="43.21957" lon="5.72159">
        <ele>189.8</ele>
        <time>2021-04-21T13:11:09Z</time>
      </trkpt>
      <trkpt lat="43.21955" lon="5.72152">
        <ele>189.6</ele>
        <time>2021-04-21T13:11:15Z</time>
      </trkpt>
      <trkpt lat="43.21953" lon="5.72146">
        <ele>189.4</ele>
        <time>2021-04-21T13:11:21Z</time>
      </trkpt>
      <trkpt lat="43.2195" lon="5.72139">
        <ele>189.3</ele>
        <time>2021-04-21T13:11:29Z</time>
      </trkpt>
      <trkpt lat="43.21946" lon="5.72133">
        <ele>189.1</ele>
        <time>2021-04-21T13:11:35Z</time>
      </trkpt>
      <trkpt lat="43.21943" lon="5.72127">
        <ele>189</ele>
        <time>2021-04-21T13:11:41Z</time>
      </trkpt>
      <trkpt lat="43.21939" lon="5.7212">
        <ele>188.9</ele>
        <time>2021-04-21T13:11:47Z</time>
      </trkpt>
      <trkpt lat="43.21936" lon="5.72113">
        <ele>188.9</ele>
        <time>2021-04-21T13:11:53Z</time>
      </trkpt>
      <trkpt lat="43.21933" lon="5.72106">
        <ele>188.8</ele>
        <time>2021-04-21T13:11:59Z</time>
      </trkpt>
      <trkpt lat="43.21931" lon="5.72098">
        <ele>188.8</ele>
        <time>2021-04-21T13:12:05Z</time>
      </trkpt>
      <trkpt lat="43.21928" lon="5.7209">
        <ele>188.8</ele>
        <time>2021-04-21T13:12:11Z</time>
      </trkpt>
      <trkpt lat="43.21927" lon="5.72082">
        <ele>188.7</ele>
        <time>2021-04-21T13:12:17Z</time>
      </trkpt>
      <trkpt lat="43.21925" lon="5.72074">
        <ele>188.5</ele>
        <time>2021-04-21T13:12:23Z</time>
      </trkpt>
      <trkpt lat="43.21922" lon="5.72067">
        <ele>188.4</ele>
        <time>2021-04-21T13:12:29Z</time>
      </trkpt>
      <trkpt lat="43.21921" lon="5.72059">
        <ele>188.3</ele>
        <time>2021-04-21T13:12:35Z</time>
      </trkpt>
      <trkpt lat="43.21919" lon="5.72052">
        <ele>188.2</ele>
        <time>2021-04-21T13:12:41Z</time>
      </trkpt>
      <trkpt lat="43.21919" lon="5.72045">
        <ele>188</ele>
        <time>2021-04-21T13:12:49Z</time>
      </trkpt>
      <trkpt lat="43.21917" lon="5.72038">
        <ele>187.9</ele>
        <time>2021-04-21T13:12:59Z</time>
      </trkpt>
      <trkpt lat="43.21915" lon="5.72031">
        <ele>187.6</ele>
        <time>2021-04-21T13:13:07Z</time>
      </trkpt>
      <trkpt lat="43.21913" lon="5.72023">
        <ele>187.2</ele>
        <time>2021-04-21T13:13:13Z</time>
      </trkpt>
      <trkpt lat="43.21912" lon="5.72017">
        <ele>187</ele>
        <time>2021-04-21T13:13:19Z</time>
      </trkpt>
      <trkpt lat="43.21909" lon="5.72012">
        <ele>186.5</ele>
        <time>2021-04-21T13:13:23Z</time>
      </trkpt>
      <trkpt lat="43.21905" lon="5.72005">
        <ele>186</ele>
        <time>2021-04-21T13:13:29Z</time>
      </trkpt>
      <trkpt lat="43.219" lon="5.71999">
        <ele>185.4</ele>
        <time>2021-04-21T13:13:35Z</time>
      </trkpt>
      <trkpt lat="43.21897" lon="5.71993">
        <ele>184.8</ele>
        <time>2021-04-21T13:13:41Z</time>
      </trkpt>
      <trkpt lat="43.21893" lon="5.71987">
        <ele>184.3</ele>
        <time>2021-04-21T13:13:47Z</time>
      </trkpt>
      <trkpt lat="43.21891" lon="5.71981">
        <ele>183.9</ele>
        <time>2021-04-21T13:13:53Z</time>
      </trkpt>
      <trkpt lat="43.21888" lon="5.71975">
        <ele>183.6</ele>
        <time>2021-04-21T13:13:59Z</time>
      </trkpt>
      <trkpt lat="43.21887" lon="5.71968">
        <ele>183.3</ele>
        <time>2021-04-21T13:14:05Z</time>
      </trkpt>
      <trkpt lat="43.21884" lon="5.71961">
        <ele>183</ele>
        <time>2021-04-21T13:14:11Z</time>
      </trkpt>
      <trkpt lat="43.21881" lon="5.71955">
        <ele>182.7</ele>
        <time>2021-04-21T13:14:17Z</time>
      </trkpt>
      <trkpt lat="43.21879" lon="5.71949">
        <ele>182.5</ele>
        <time>2021-04-21T13:14:23Z</time>
      </trkpt>
      <trkpt lat="43.21877" lon="5.71943">
        <ele>182.4</ele>
        <time>2021-04-21T13:14:29Z</time>
      </trkpt>
      <trkpt lat="43.21874" lon="5.71937">
        <ele>182.2</ele>
        <time>2021-04-21T13:14:35Z</time>
      </trkpt>
      <trkpt lat="43.2187" lon="5.7193">
        <ele>182.1</ele>
        <time>2021-04-21T13:14:43Z</time>
      </trkpt>
      <trkpt lat="43.21868" lon="5.71923">
        <ele>182</ele>
        <time>2021-04-21T13:14:49Z</time>
      </trkpt>
      <trkpt lat="43.21864" lon="5.71917">
        <ele>182</ele>
        <time>2021-04-21T13:14:55Z</time>
      </trkpt>
      <trkpt lat="43.21859" lon="5.7191">
        <ele>182</ele>
        <time>2021-04-21T13:15:01Z</time>
      </trkpt>
      <trkpt lat="43.21856" lon="5.71905">
        <ele>182.1</ele>
        <time>2021-04-21T13:15:07Z</time>
      </trkpt>
      <trkpt lat="43.21853" lon="5.719">
        <ele>182.2</ele>
        <time>2021-04-21T13:15:13Z</time>
      </trkpt>
      <trkpt lat="43.2185" lon="5.71894">
        <ele>182.3</ele>
        <time>2021-04-21T13:15:19Z</time>
      </trkpt>
      <trkpt lat="43.21845" lon="5.71889">
        <ele>182.4</ele>
        <time>2021-04-21T13:15:25Z</time>
      </trkpt>
      <trkpt lat="43.21842" lon="5.71884">
        <ele>182.6</ele>
        <time>2021-04-21T13:15:33Z</time>
      </trkpt>
      <trkpt lat="43.21838" lon="5.71879">
        <ele>182.8</ele>
        <time>2021-04-21T13:15:39Z</time>
      </trkpt>
      <trkpt lat="43.21835" lon="5.71871">
        <ele>183</ele>
        <time>2021-04-21T13:15:45Z</time>
      </trkpt>
      <trkpt lat="43.21833" lon="5.71864">
        <ele>183.2</ele>
        <time>2021-04-21T13:15:51Z</time>
      </trkpt>
      <trkpt lat="43.21829" lon="5.71858">
        <ele>182.9</ele>
        <time>2021-04-21T13:15:57Z</time>
      </trkpt>
      <trkpt lat="43.21824" lon="5.71852">
        <ele>182.6</ele>
        <time>2021-04-21T13:16:03Z</time>
      </trkpt>
      <trkpt lat="43.21819" lon="5.71846">
        <ele>182.3</ele>
        <time>2021-04-21T13:16:09Z</time>
      </trkpt>
      <trkpt lat="43.21816" lon="5.7184">
        <ele>182.2</ele>
        <time>2021-04-21T13:16:15Z</time>
      </trkpt>
      <trkpt lat="43.21811" lon="5.71835">
        <ele>181.8</ele>
        <time>2021-04-21T13:16:21Z</time>
      </trkpt>
      <trkpt lat="43.21807" lon="5.7183">
        <ele>181.5</ele>
        <time>2021-04-21T13:16:27Z</time>
      </trkpt>
      <trkpt lat="43.21801" lon="5.71825">
        <ele>181</ele>
        <time>2021-04-21T13:16:33Z</time>
      </trkpt>
      <trkpt lat="43.21797" lon="5.71822">
        <ele>180.7</ele>
        <time>2021-04-21T13:16:37Z</time>
      </trkpt>
      <trkpt lat="43.21792" lon="5.71818">
        <ele>180.3</ele>
        <time>2021-04-21T13:16:43Z</time>
      </trkpt>
      <trkpt lat="43.21788" lon="5.71812">
        <ele>180</ele>
        <time>2021-04-21T13:16:49Z</time>
      </trkpt>
      <trkpt lat="43.21783" lon="5.71806">
        <ele>179.7</ele>
        <time>2021-04-21T13:16:55Z</time>
      </trkpt>
      <trkpt lat="43.21777" lon="5.71801">
        <ele>179.4</ele>
        <time>2021-04-21T13:17:01Z</time>
      </trkpt>
      <trkpt lat="43.21774" lon="5.71798">
        <ele>179.2</ele>
        <time>2021-04-21T13:17:05Z</time>
      </trkpt>
      <trkpt lat="43.21768" lon="5.71792">
        <ele>178.9</ele>
        <time>2021-04-21T13:17:11Z</time>
      </trkpt>
      <trkpt lat="43.21763" lon="5.71788">
        <ele>178.6</ele>
        <time>2021-04-21T13:17:17Z</time>
      </trkpt>
      <trkpt lat="43.21758" lon="5.71784">
        <ele>178.4</ele>
        <time>2021-04-21T13:17:23Z</time>
      </trkpt>
      <trkpt lat="43.21754" lon="5.71779">
        <ele>178.2</ele>
        <time>2021-04-21T13:17:29Z</time>
      </trkpt>
      <trkpt lat="43.21752" lon="5.71773">
        <ele>178.3</ele>
        <time>2021-04-21T13:17:35Z</time>
      </trkpt>
      <trkpt lat="43.21748" lon="5.71767">
        <ele>178.1</ele>
        <time>2021-04-21T13:17:41Z</time>
      </trkpt>
      <trkpt lat="43.21744" lon="5.7176">
        <ele>177.7</ele>
        <time>2021-04-21T13:17:47Z</time>
      </trkpt>
      <trkpt lat="43.21741" lon="5.71754">
        <ele>177.4</ele>
        <time>2021-04-21T13:17:53Z</time>
      </trkpt>
      <trkpt lat="43.21736" lon="5.71747">
        <ele>176.9</ele>
        <time>2021-04-21T13:17:59Z</time>
      </trkpt>
      <trkpt lat="43.21734" lon="5.71741">
        <ele>176.6</ele>
        <time>2021-04-21T13:18:05Z</time>
      </trkpt>
      <trkpt lat="43.21731" lon="5.71734">
        <ele>176.1</ele>
        <time>2021-04-21T13:18:11Z</time>
      </trkpt>
      <trkpt lat="43.21729" lon="5.71728">
        <ele>175.7</ele>
        <time>2021-04-21T13:18:23Z</time>
      </trkpt>
      <trkpt lat="43.21726" lon="5.71721">
        <ele>175.3</ele>
        <time>2021-04-21T13:18:29Z</time>
      </trkpt>
      <trkpt lat="43.21724" lon="5.71713">
        <ele>175.1</ele>
        <time>2021-04-21T13:18:35Z</time>
      </trkpt>
      <trkpt lat="43.2172" lon="5.71705">
        <ele>174.6</ele>
        <time>2021-04-21T13:18:41Z</time>
      </trkpt>
      <trkpt lat="43.21717" lon="5.71698">
        <ele>174.1</ele>
        <time>2021-04-21T13:18:47Z</time>
      </trkpt>
      <trkpt lat="43.21715" lon="5.7169">
        <ele>173.8</ele>
        <time>2021-04-21T13:18:53Z</time>
      </trkpt>
      <trkpt lat="43.21712" lon="5.71683">
        <ele>173.5</ele>
        <time>2021-04-21T13:18:59Z</time>
      </trkpt>
      <trkpt lat="43.21709" lon="5.71677">
        <ele>173</ele>
        <time>2021-04-21T13:19:05Z</time>
      </trkpt>
      <trkpt lat="43.21707" lon="5.71669">
        <ele>172.8</ele>
        <time>2021-04-21T13:19:11Z</time>
      </trkpt>
      <trkpt lat="43.21704" lon="5.71663">
        <ele>172.2</ele>
        <time>2021-04-21T13:19:15Z</time>
      </trkpt>
      <trkpt lat="43.21701" lon="5.71658">
        <ele>171.5</ele>
        <time>2021-04-21T13:19:19Z</time>
      </trkpt>
      <trkpt lat="43.21697" lon="5.71654">
        <ele>170.9</ele>
        <time>2021-04-21T13:19:23Z</time>
      </trkpt>
      <trkpt lat="43.21694" lon="5.71647">
        <ele>170.2</ele>
        <time>2021-04-21T13:19:29Z</time>
      </trkpt>
      <trkpt lat="43.2169" lon="5.71643">
        <ele>169.7</ele>
        <time>2021-04-21T13:19:35Z</time>
      </trkpt>
      <trkpt lat="43.21688" lon="5.71636">
        <ele>169.3</ele>
        <time>2021-04-21T13:19:43Z</time>
      </trkpt>
      <trkpt lat="43.21686" lon="5.7163">
        <ele>169</ele>
        <time>2021-04-21T13:19:49Z</time>
      </trkpt>
      <trkpt lat="43.21684" lon="5.71623">
        <ele>168.7</ele>
        <time>2021-04-21T13:19:55Z</time>
      </trkpt>
      <trkpt lat="43.21684" lon="5.71617">
        <ele>168.6</ele>
        <time>2021-04-21T13:20:01Z</time>
      </trkpt>
      <trkpt lat="43.21683" lon="5.7161">
        <ele>168.4</ele>
        <time>2021-04-21T13:20:09Z</time>
      </trkpt>
      <trkpt lat="43.21683" lon="5.71603">
        <ele>168.3</ele>
        <time>2021-04-21T13:20:15Z</time>
      </trkpt>
      <trkpt lat="43.21684" lon="5.71595">
        <ele>168.2</ele>
        <time>2021-04-21T13:20:21Z</time>
      </trkpt>
      <trkpt lat="43.21684" lon="5.71588">
        <ele>168.1</ele>
        <time>2021-04-21T13:20:27Z</time>
      </trkpt>
      <trkpt lat="43.21682" lon="5.7158">
        <ele>167.8</ele>
        <time>2021-04-21T13:20:33Z</time>
      </trkpt>
      <trkpt lat="43.21678" lon="5.71573">
        <ele>167.4</ele>
        <time>2021-04-21T13:20:39Z</time>
      </trkpt>
      <trkpt lat="43.21674" lon="5.7157">
        <ele>167.2</ele>
        <time>2021-04-21T13:20:51Z</time>
      </trkpt>
      <trkpt lat="43.2167" lon="5.71567">
        <ele>167.1</ele>
        <time>2021-04-21T13:20:59Z</time>
      </trkpt>
      <trkpt lat="43.21667" lon="5.71562">
        <ele>167</ele>
        <time>2021-04-21T13:21:05Z</time>
      </trkpt>
      <trkpt lat="43.21663" lon="5.71557">
        <ele>166.4</ele>
        <time>2021-04-21T13:21:11Z</time>
      </trkpt>
      <trkpt lat="43.21658" lon="5.71554">
        <ele>165.6</ele>
        <time>2021-04-21T13:21:17Z</time>
      </trkpt>
      <trkpt lat="43.21654" lon="5.7155">
        <ele>165</ele>
        <time>2021-04-21T13:21:23Z</time>
      </trkpt>
      <trkpt lat="43.2165" lon="5.71544">
        <ele>164.2</ele>
        <time>2021-04-21T13:21:29Z</time>
      </trkpt>
      <trkpt lat="43.21646" lon="5.71538">
        <ele>163.6</ele>
        <time>2021-04-21T13:21:35Z</time>
      </trkpt>
      <trkpt lat="43.21643" lon="5.7153">
        <ele>163</ele>
        <time>2021-04-21T13:21:41Z</time>
      </trkpt>
      <trkpt lat="43.2164" lon="5.71523">
        <ele>162.5</ele>
        <time>2021-04-21T13:21:47Z</time>
      </trkpt>
      <trkpt lat="43.21637" lon="5.71515">
        <ele>162</ele>
        <time>2021-04-21T13:21:53Z</time>
      </trkpt>
      <trkpt lat="43.21635" lon="5.71509">
        <ele>161.6</ele>
        <time>2021-04-21T13:21:57Z</time>
      </trkpt>
      <trkpt lat="43.21632" lon="5.71502">
        <ele>161.1</ele>
        <time>2021-04-21T13:22:03Z</time>
      </trkpt>
      <trkpt lat="43.21628" lon="5.71495">
        <ele>160.9</ele>
        <time>2021-04-21T13:22:09Z</time>
      </trkpt>
      <trkpt lat="43.21625" lon="5.71488">
        <ele>160.8</ele>
        <time>2021-04-21T13:22:15Z</time>
      </trkpt>
      <trkpt lat="43.21623" lon="5.7148">
        <ele>160.8</ele>
        <time>2021-04-21T13:22:21Z</time>
      </trkpt>
      <trkpt lat="43.2162" lon="5.71475">
        <ele>160.7</ele>
        <time>2021-04-21T13:22:25Z</time>
      </trkpt>
      <trkpt lat="43.21617" lon="5.71467">
        <ele>160.6</ele>
        <time>2021-04-21T13:22:31Z</time>
      </trkpt>
      <trkpt lat="43.21614" lon="5.71458">
        <ele>160.5</ele>
        <time>2021-04-21T13:22:37Z</time>
      </trkpt>
      <trkpt lat="43.21611" lon="5.7145">
        <ele>160.3</ele>
        <time>2021-04-21T13:22:43Z</time>
      </trkpt>
      <trkpt lat="43.21609" lon="5.71445">
        <ele>160.2</ele>
        <time>2021-04-21T13:22:47Z</time>
      </trkpt>
      <trkpt lat="43.21606" lon="5.71439">
        <ele>160</ele>
        <time>2021-04-21T13:22:51Z</time>
      </trkpt>
      <trkpt lat="43.21604" lon="5.71434">
        <ele>159.9</ele>
        <time>2021-04-21T13:22:55Z</time>
      </trkpt>
      <trkpt lat="43.21601" lon="5.71426">
        <ele>159.7</ele>
        <time>2021-04-21T13:23:01Z</time>
      </trkpt>
      <trkpt lat="43.21597" lon="5.71419">
        <ele>159.5</ele>
        <time>2021-04-21T13:23:07Z</time>
      </trkpt>
      <trkpt lat="43.21595" lon="5.7141">
        <ele>159.2</ele>
        <time>2021-04-21T13:23:13Z</time>
      </trkpt>
      <trkpt lat="43.21592" lon="5.71402">
        <ele>158.9</ele>
        <time>2021-04-21T13:23:19Z</time>
      </trkpt>
      <trkpt lat="43.2159" lon="5.71396">
        <ele>158.7</ele>
        <time>2021-04-21T13:23:23Z</time>
      </trkpt>
      <trkpt lat="43.21587" lon="5.71388">
        <ele>158.4</ele>
        <time>2021-04-21T13:23:29Z</time>
      </trkpt>
      <trkpt lat="43.21584" lon="5.71381">
        <ele>158</ele>
        <time>2021-04-21T13:23:35Z</time>
      </trkpt>
      <trkpt lat="43.21581" lon="5.71375">
        <ele>157.7</ele>
        <time>2021-04-21T13:23:39Z</time>
      </trkpt>
      <trkpt lat="43.21577" lon="5.71367">
        <ele>157.3</ele>
        <time>2021-04-21T13:23:45Z</time>
      </trkpt>
      <trkpt lat="43.21574" lon="5.7136">
        <ele>157</ele>
        <time>2021-04-21T13:23:51Z</time>
      </trkpt>
      <trkpt lat="43.21571" lon="5.71352">
        <ele>156.7</ele>
        <time>2021-04-21T13:23:57Z</time>
      </trkpt>
      <trkpt lat="43.21567" lon="5.71345">
        <ele>156.4</ele>
        <time>2021-04-21T13:24:03Z</time>
      </trkpt>
      <trkpt lat="43.21565" lon="5.71339">
        <ele>156.1</ele>
        <time>2021-04-21T13:24:07Z</time>
      </trkpt>
      <trkpt lat="43.21561" lon="5.71332">
        <ele>155.9</ele>
        <time>2021-04-21T13:24:13Z</time>
      </trkpt>
      <trkpt lat="43.21558" lon="5.71326">
        <ele>155.8</ele>
        <time>2021-04-21T13:24:17Z</time>
      </trkpt>
      <trkpt lat="43.21554" lon="5.7132">
        <ele>155.6</ele>
        <time>2021-04-21T13:24:23Z</time>
      </trkpt>
      <trkpt lat="43.21549" lon="5.71313">
        <ele>155.5</ele>
        <time>2021-04-21T13:24:29Z</time>
      </trkpt>
      <trkpt lat="43.21545" lon="5.71306">
        <ele>155.3</ele>
        <time>2021-04-21T13:24:35Z</time>
      </trkpt>
      <trkpt lat="43.2154" lon="5.713">
        <ele>155.1</ele>
        <time>2021-04-21T13:24:41Z</time>
      </trkpt>
      <trkpt lat="43.21535" lon="5.71294">
        <ele>154.8</ele>
        <time>2021-04-21T13:24:47Z</time>
      </trkpt>
      <trkpt lat="43.21531" lon="5.71287">
        <ele>154.6</ele>
        <time>2021-04-21T13:24:53Z</time>
      </trkpt>
      <trkpt lat="43.21527" lon="5.71282">
        <ele>154.4</ele>
        <time>2021-04-21T13:24:59Z</time>
      </trkpt>
      <trkpt lat="43.21523" lon="5.71277">
        <ele>154.3</ele>
        <time>2021-04-21T13:25:07Z</time>
      </trkpt>
      <trkpt lat="43.21519" lon="5.71273">
        <ele>154</ele>
        <time>2021-04-21T13:25:15Z</time>
      </trkpt>
      <trkpt lat="43.21514" lon="5.71271">
        <ele>153.6</ele>
        <time>2021-04-21T13:25:21Z</time>
      </trkpt>
      <trkpt lat="43.21509" lon="5.71271">
        <ele>153.2</ele>
        <time>2021-04-21T13:25:41Z</time>
      </trkpt>
      <trkpt lat="43.21505" lon="5.71274">
        <ele>152.7</ele>
        <time>2021-04-21T13:26:01Z</time>
      </trkpt>
      <trkpt lat="43.21501" lon="5.71276">
        <ele>152.1</ele>
        <time>2021-04-21T13:26:07Z</time>
      </trkpt>
      <trkpt lat="43.21497" lon="5.71281">
        <ele>151.5</ele>
        <time>2021-04-21T13:26:25Z</time>
      </trkpt>
      <trkpt lat="43.21492" lon="5.71285">
        <ele>150.8</ele>
        <time>2021-04-21T13:26:35Z</time>
      </trkpt>
      <trkpt lat="43.21487" lon="5.71287">
        <ele>150.1</ele>
        <time>2021-04-21T13:26:45Z</time>
      </trkpt>
      <trkpt lat="43.21483" lon="5.7129">
        <ele>149.5</ele>
        <time>2021-04-21T13:26:51Z</time>
      </trkpt>
      <trkpt lat="43.21478" lon="5.71295">
        <ele>148.8</ele>
        <time>2021-04-21T13:27:01Z</time>
      </trkpt>
      <trkpt lat="43.21473" lon="5.71298">
        <ele>148</ele>
        <time>2021-04-21T13:27:07Z</time>
      </trkpt>
      <trkpt lat="43.21467" lon="5.71302">
        <ele>147.2</ele>
        <time>2021-04-21T13:27:13Z</time>
      </trkpt>
      <trkpt lat="43.21463" lon="5.71305">
        <ele>146.5</ele>
        <time>2021-04-21T13:27:21Z</time>
      </trkpt>
      <trkpt lat="43.21457" lon="5.7131">
        <ele>145.7</ele>
        <time>2021-04-21T13:27:27Z</time>
      </trkpt>
      <trkpt lat="43.21452" lon="5.71314">
        <ele>145</ele>
        <time>2021-04-21T13:27:33Z</time>
      </trkpt>
      <trkpt lat="43.21449" lon="5.7132">
        <ele>144.3</ele>
        <time>2021-04-21T13:30:41Z</time>
      </trkpt>
      <trkpt lat="43.21445" lon="5.71325">
        <ele>143.7</ele>
        <time>2021-04-21T13:30:47Z</time>
      </trkpt>
      <trkpt lat="43.21441" lon="5.7133">
        <ele>143</ele>
        <time>2021-04-21T13:30:53Z</time>
      </trkpt>
      <trkpt lat="43.21435" lon="5.71333">
        <ele>142.2</ele>
        <time>2021-04-21T13:30:57Z</time>
      </trkpt>
      <trkpt lat="43.2143" lon="5.71336">
        <ele>141.5</ele>
        <time>2021-04-21T13:31:01Z</time>
      </trkpt>
      <trkpt lat="43.21426" lon="5.71339">
        <ele>140.8</ele>
        <time>2021-04-21T13:31:05Z</time>
      </trkpt>
      <trkpt lat="43.21421" lon="5.71343">
        <ele>140.1</ele>
        <time>2021-04-21T13:31:11Z</time>
      </trkpt>
      <trkpt lat="43.21416" lon="5.71346">
        <ele>139.3</ele>
        <time>2021-04-21T13:31:17Z</time>
      </trkpt>
      <trkpt lat="43.2141" lon="5.7135">
        <ele>138.6</ele>
        <time>2021-04-21T13:31:25Z</time>
      </trkpt>
      <trkpt lat="43.21406" lon="5.71354">
        <ele>138</ele>
        <time>2021-04-21T13:31:29Z</time>
      </trkpt>
      <trkpt lat="43.21402" lon="5.71357">
        <ele>137.5</ele>
        <time>2021-04-21T13:31:33Z</time>
      </trkpt>
      <trkpt lat="43.21397" lon="5.7136">
        <ele>136.9</ele>
        <time>2021-04-21T13:31:37Z</time>
      </trkpt>
      <trkpt lat="43.21391" lon="5.71364">
        <ele>136</ele>
        <time>2021-04-21T13:31:43Z</time>
      </trkpt>
      <trkpt lat="43.21387" lon="5.71368">
        <ele>135.4</ele>
        <time>2021-04-21T13:31:47Z</time>
      </trkpt>
      <trkpt lat="43.21383" lon="5.71373">
        <ele>134.6</ele>
        <time>2021-04-21T13:31:53Z</time>
      </trkpt>
      <trkpt lat="43.21377" lon="5.71377">
        <ele>133.8</ele>
        <time>2021-04-21T13:31:59Z</time>
      </trkpt>
      <trkpt lat="43.21372" lon="5.71381">
        <ele>133</ele>
        <time>2021-04-21T13:32:03Z</time>
      </trkpt>
      <trkpt lat="43.21368" lon="5.71384">
        <ele>132.4</ele>
        <time>2021-04-21T13:32:07Z</time>
      </trkpt>
      <trkpt lat="43.21364" lon="5.71388">
        <ele>131.7</ele>
        <time>2021-04-21T13:32:11Z</time>
      </trkpt>
      <trkpt lat="43.21359" lon="5.71392">
        <ele>130.9</ele>
        <time>2021-04-21T13:32:17Z</time>
      </trkpt>
      <trkpt lat="43.21355" lon="5.71396">
        <ele>130.1</ele>
        <time>2021-04-21T13:32:23Z</time>
      </trkpt>
      <trkpt lat="43.2135" lon="5.71399">
        <ele>129.4</ele>
        <time>2021-04-21T13:32:27Z</time>
      </trkpt>
      <trkpt lat="43.21346" lon="5.71402">
        <ele>128.7</ele>
        <time>2021-04-21T13:32:31Z</time>
      </trkpt>
      <trkpt lat="43.21342" lon="5.71405">
        <ele>128</ele>
        <time>2021-04-21T13:32:35Z</time>
      </trkpt>
      <trkpt lat="43.21336" lon="5.71409">
        <ele>127</ele>
        <time>2021-04-21T13:32:41Z</time>
      </trkpt>
      <trkpt lat="43.21331" lon="5.71411">
        <ele>126.3</ele>
        <time>2021-04-21T13:32:47Z</time>
      </trkpt>
      <trkpt lat="43.21327" lon="5.71415">
        <ele>125.7</ele>
        <time>2021-04-21T13:32:53Z</time>
      </trkpt>
      <trkpt lat="43.21323" lon="5.71421">
        <ele>125.1</ele>
        <time>2021-04-21T13:32:59Z</time>
      </trkpt>
      <trkpt lat="43.21319" lon="5.71425">
        <ele>124.6</ele>
        <time>2021-04-21T13:33:05Z</time>
      </trkpt>
      <trkpt lat="43.21317" lon="5.71432">
        <ele>124.3</ele>
        <time>2021-04-21T13:33:09Z</time>
      </trkpt>
      <trkpt lat="43.21313" lon="5.71435">
        <ele>123.8</ele>
        <time>2021-04-21T13:33:13Z</time>
      </trkpt>
      <trkpt lat="43.21307" lon="5.7144">
        <ele>123.2</ele>
        <time>2021-04-21T13:33:19Z</time>
      </trkpt>
      <trkpt lat="43.21303" lon="5.71443">
        <ele>122.8</ele>
        <time>2021-04-21T13:33:23Z</time>
      </trkpt>
      <trkpt lat="43.21298" lon="5.71445">
        <ele>122.3</ele>
        <time>2021-04-21T13:33:27Z</time>
      </trkpt>
      <trkpt lat="43.21294" lon="5.71448">
        <ele>121.8</ele>
        <time>2021-04-21T13:33:31Z</time>
      </trkpt>
      <trkpt lat="43.21289" lon="5.71451">
        <ele>121.3</ele>
        <time>2021-04-21T13:33:35Z</time>
      </trkpt>
      <trkpt lat="43.21286" lon="5.71456">
        <ele>120.9</ele>
        <time>2021-04-21T13:33:43Z</time>
      </trkpt>
      <trkpt lat="43.21281" lon="5.71461">
        <ele>120.3</ele>
        <time>2021-04-21T13:33:51Z</time>
      </trkpt>
      <trkpt lat="43.21276" lon="5.7146">
        <ele>119.9</ele>
        <time>2021-04-21T13:33:59Z</time>
      </trkpt>
      <trkpt lat="43.21273" lon="5.71453">
        <ele>120</ele>
        <time>2021-04-21T13:34:07Z</time>
      </trkpt>
      <trkpt lat="43.21271" lon="5.71445">
        <ele>120.2</ele>
        <time>2021-04-21T13:34:13Z</time>
      </trkpt>
      <trkpt lat="43.21267" lon="5.71437">
        <ele>120.3</ele>
        <time>2021-04-21T13:34:19Z</time>
      </trkpt>
      <trkpt lat="43.21265" lon="5.7143">
        <ele>120.5</ele>
        <time>2021-04-21T13:34:25Z</time>
      </trkpt>
      <trkpt lat="43.21263" lon="5.71425">
        <ele>120.5</ele>
        <time>2021-04-21T13:34:29Z</time>
      </trkpt>
      <trkpt lat="43.21259" lon="5.71419">
        <ele>120.6</ele>
        <time>2021-04-21T13:34:33Z</time>
      </trkpt>
      <trkpt lat="43.21257" lon="5.71413">
        <ele>120.8</ele>
        <time>2021-04-21T13:34:37Z</time>
      </trkpt>
      <trkpt lat="43.21254" lon="5.71407">
        <ele>121</ele>
        <time>2021-04-21T13:34:41Z</time>
      </trkpt>
      <trkpt lat="43.21251" lon="5.714">
        <ele>121.3</ele>
        <time>2021-04-21T13:34:47Z</time>
      </trkpt>
      <trkpt lat="43.21248" lon="5.71392">
        <ele>121.7</ele>
        <time>2021-04-21T13:34:53Z</time>
      </trkpt>
      <trkpt lat="43.21244" lon="5.71385">
        <ele>121.9</ele>
        <time>2021-04-21T13:34:59Z</time>
      </trkpt>
      <trkpt lat="43.21238" lon="5.7138">
        <ele>121.9</ele>
        <time>2021-04-21T13:35:05Z</time>
      </trkpt>
      <trkpt lat="43.21234" lon="5.71379">
        <ele>121.7</ele>
        <time>2021-04-21T13:35:09Z</time>
      </trkpt>
      <trkpt lat="43.21229" lon="5.7138">
        <ele>121.3</ele>
        <time>2021-04-21T13:35:13Z</time>
      </trkpt>
      <trkpt lat="43.21225" lon="5.71383">
        <ele>120.8</ele>
        <time>2021-04-21T13:35:17Z</time>
      </trkpt>
      <trkpt lat="43.2122" lon="5.71388">
        <ele>120.1</ele>
        <time>2021-04-21T13:35:23Z</time>
      </trkpt>
      <trkpt lat="43.21216" lon="5.71392">
        <ele>119.6</ele>
        <time>2021-04-21T13:35:27Z</time>
      </trkpt>
      <trkpt lat="43.21213" lon="5.71397">
        <ele>119.1</ele>
        <time>2021-04-21T13:35:31Z</time>
      </trkpt>
      <trkpt lat="43.21209" lon="5.71403">
        <ele>118.5</ele>
        <time>2021-04-21T13:35:37Z</time>
      </trkpt>
      <trkpt lat="43.21207" lon="5.71409">
        <ele>117.9</ele>
        <time>2021-04-21T13:35:41Z</time>
      </trkpt>
      <trkpt lat="43.21204" lon="5.71416">
        <ele>117.3</ele>
        <time>2021-04-21T13:35:47Z</time>
      </trkpt>
      <trkpt lat="43.21201" lon="5.71422">
        <ele>116.8</ele>
        <time>2021-04-21T13:35:51Z</time>
      </trkpt>
      <trkpt lat="43.21198" lon="5.7143">
        <ele>116.4</ele>
        <time>2021-04-21T13:35:57Z</time>
      </trkpt>
      <trkpt lat="43.21195" lon="5.71435">
        <ele>116</ele>
        <time>2021-04-21T13:36:01Z</time>
      </trkpt>
      <trkpt lat="43.21193" lon="5.7144">
        <ele>115.6</ele>
        <time>2021-04-21T13:36:05Z</time>
      </trkpt>
      <trkpt lat="43.21189" lon="5.71445">
        <ele>115.2</ele>
        <time>2021-04-21T13:36:09Z</time>
      </trkpt>
      <trkpt lat="43.21185" lon="5.71449">
        <ele>114.8</ele>
        <time>2021-04-21T13:36:13Z</time>
      </trkpt>
      <trkpt lat="43.21181" lon="5.71454">
        <ele>114.5</ele>
        <time>2021-04-21T13:36:17Z</time>
      </trkpt>
      <trkpt lat="43.21176" lon="5.71459">
        <ele>114</ele>
        <time>2021-04-21T13:36:23Z</time>
      </trkpt>
      <trkpt lat="43.21172" lon="5.71465">
        <ele>113.5</ele>
        <time>2021-04-21T13:36:29Z</time>
      </trkpt>
      <trkpt lat="43.21169" lon="5.7147">
        <ele>113.2</ele>
        <time>2021-04-21T13:36:33Z</time>
      </trkpt>
      <trkpt lat="43.21166" lon="5.71476">
        <ele>112.8</ele>
        <time>2021-04-21T13:36:37Z</time>
      </trkpt>
      <trkpt lat="43.21163" lon="5.71481">
        <ele>112.6</ele>
        <time>2021-04-21T13:36:41Z</time>
      </trkpt>
      <trkpt lat="43.2116" lon="5.71486">
        <ele>112.3</ele>
        <time>2021-04-21T13:36:45Z</time>
      </trkpt>
      <trkpt lat="43.21156" lon="5.71492">
        <ele>111.9</ele>
        <time>2021-04-21T13:36:51Z</time>
      </trkpt>
      <trkpt lat="43.21152" lon="5.71498">
        <ele>111.5</ele>
        <time>2021-04-21T13:36:57Z</time>
      </trkpt>
      <trkpt lat="43.21147" lon="5.71505">
        <ele>111.1</ele>
        <time>2021-04-21T13:37:03Z</time>
      </trkpt>
      <trkpt lat="43.21143" lon="5.71512">
        <ele>110.6</ele>
        <time>2021-04-21T13:37:09Z</time>
      </trkpt>
      <trkpt lat="43.21138" lon="5.71518">
        <ele>110.1</ele>
        <time>2021-04-21T13:37:15Z</time>
      </trkpt>
      <trkpt lat="43.21135" lon="5.71522">
        <ele>109.7</ele>
        <time>2021-04-21T13:37:19Z</time>
      </trkpt>
      <trkpt lat="43.21131" lon="5.71527">
        <ele>109.3</ele>
        <time>2021-04-21T13:37:23Z</time>
      </trkpt>
      <trkpt lat="43.21128" lon="5.71532">
        <ele>108.9</ele>
        <time>2021-04-21T13:37:27Z</time>
      </trkpt>
      <trkpt lat="43.21125" lon="5.71536">
        <ele>108.5</ele>
        <time>2021-04-21T13:37:31Z</time>
      </trkpt>
      <trkpt lat="43.21122" lon="5.71541">
        <ele>108.1</ele>
        <time>2021-04-21T13:37:35Z</time>
      </trkpt>
      <trkpt lat="43.21118" lon="5.71545">
        <ele>107.7</ele>
        <time>2021-04-21T13:37:39Z</time>
      </trkpt>
      <trkpt lat="43.21114" lon="5.71549">
        <ele>107.2</ele>
        <time>2021-04-21T13:37:43Z</time>
      </trkpt>
      <trkpt lat="43.21109" lon="5.71555">
        <ele>106.6</ele>
        <time>2021-04-21T13:37:49Z</time>
      </trkpt>
      <trkpt lat="43.21104" lon="5.7156">
        <ele>106</ele>
        <time>2021-04-21T13:37:55Z</time>
      </trkpt>
      <trkpt lat="43.211" lon="5.71566">
        <ele>105.3</ele>
        <time>2021-04-21T13:38:01Z</time>
      </trkpt>
      <trkpt lat="43.21095" lon="5.71573">
        <ele>104.6</ele>
        <time>2021-04-21T13:38:07Z</time>
      </trkpt>
      <trkpt lat="43.21092" lon="5.71578">
        <ele>104</ele>
        <time>2021-04-21T13:38:11Z</time>
      </trkpt>
      <trkpt lat="43.21089" lon="5.71582">
        <ele>103.4</ele>
        <time>2021-04-21T13:38:15Z</time>
      </trkpt>
      <trkpt lat="43.21085" lon="5.71586">
        <ele>103</ele>
        <time>2021-04-21T13:38:19Z</time>
      </trkpt>
      <trkpt lat="43.21081" lon="5.71592">
        <ele>102.6</ele>
        <time>2021-04-21T13:38:25Z</time>
      </trkpt>
      <trkpt lat="43.21076" lon="5.71597">
        <ele>102.4</ele>
        <time>2021-04-21T13:38:31Z</time>
      </trkpt>
      <trkpt lat="43.21073" lon="5.71602">
        <ele>102.1</ele>
        <time>2021-04-21T13:38:37Z</time>
      </trkpt>
      <trkpt lat="43.21071" lon="5.71607">
        <ele>101.9</ele>
        <time>2021-04-21T13:38:43Z</time>
      </trkpt>
      <trkpt lat="43.21066" lon="5.71614">
        <ele>101.6</ele>
        <time>2021-04-21T13:38:49Z</time>
      </trkpt>
      <trkpt lat="43.21062" lon="5.71619">
        <ele>101.3</ele>
        <time>2021-04-21T13:38:53Z</time>
      </trkpt>
      <trkpt lat="43.21057" lon="5.71625">
        <ele>101</ele>
        <time>2021-04-21T13:38:59Z</time>
      </trkpt>
      <trkpt lat="43.21054" lon="5.71629">
        <ele>100.8</ele>
        <time>2021-04-21T13:39:03Z</time>
      </trkpt>
      <trkpt lat="43.21049" lon="5.71635">
        <ele>100.6</ele>
        <time>2021-04-21T13:39:09Z</time>
      </trkpt>
      <trkpt lat="43.21046" lon="5.71639">
        <ele>100.4</ele>
        <time>2021-04-21T13:39:13Z</time>
      </trkpt>
      <trkpt lat="43.21041" lon="5.71645">
        <ele>100.1</ele>
        <time>2021-04-21T13:39:19Z</time>
      </trkpt>
      <trkpt lat="43.21036" lon="5.71652">
        <ele>99.9</ele>
        <time>2021-04-21T13:39:25Z</time>
      </trkpt>
      <trkpt lat="43.21032" lon="5.71658">
        <ele>99.6</ele>
        <time>2021-04-21T13:39:31Z</time>
      </trkpt>
      <trkpt lat="43.21027" lon="5.71664">
        <ele>99.4</ele>
        <time>2021-04-21T13:39:37Z</time>
      </trkpt>
      <trkpt lat="43.21024" lon="5.71669">
        <ele>99.2</ele>
        <time>2021-04-21T13:39:41Z</time>
      </trkpt>
      <trkpt lat="43.21019" lon="5.71675">
        <ele>98.9</ele>
        <time>2021-04-21T13:39:47Z</time>
      </trkpt>
      <trkpt lat="43.21014" lon="5.71681">
        <ele>98.7</ele>
        <time>2021-04-21T13:39:53Z</time>
      </trkpt>
      <trkpt lat="43.2101" lon="5.71688">
        <ele>98.4</ele>
        <time>2021-04-21T13:39:59Z</time>
      </trkpt>
      <trkpt lat="43.21007" lon="5.71695">
        <ele>98.1</ele>
        <time>2021-04-21T13:40:05Z</time>
      </trkpt>
      <trkpt lat="43.21004" lon="5.71699">
        <ele>97.9</ele>
        <time>2021-04-21T13:40:09Z</time>
      </trkpt>
      <trkpt lat="43.20999" lon="5.71705">
        <ele>97.6</ele>
        <time>2021-04-21T13:40:15Z</time>
      </trkpt>
      <trkpt lat="43.20995" lon="5.71708">
        <ele>97.2</ele>
        <time>2021-04-21T13:40:27Z</time>
      </trkpt>
      <trkpt lat="43.20991" lon="5.71705">
        <ele>97.1</ele>
        <time>2021-04-21T13:40:47Z</time>
      </trkpt>
      <trkpt lat="43.20991" lon="5.71699">
        <ele>97.4</ele>
        <time>2021-04-21T13:41:13Z</time>
      </trkpt>
      <trkpt lat="43.20988" lon="5.71693">
        <ele>97.5</ele>
        <time>2021-04-21T13:41:23Z</time>
      </trkpt>
      <trkpt lat="43.20986" lon="5.71687">
        <ele>97.5</ele>
        <time>2021-04-21T13:41:39Z</time>
      </trkpt>
      <trkpt lat="43.20981" lon="5.71682">
        <ele>97.5</ele>
        <time>2021-04-21T13:41:47Z</time>
      </trkpt>
      <trkpt lat="43.20978" lon="5.71678">
        <ele>97.5</ele>
        <time>2021-04-21T13:41:53Z</time>
      </trkpt>
      <trkpt lat="43.20974" lon="5.71673">
        <ele>97.5</ele>
        <time>2021-04-21T13:41:59Z</time>
      </trkpt>
      <trkpt lat="43.20969" lon="5.71668">
        <ele>97.5</ele>
        <time>2021-04-21T13:42:05Z</time>
      </trkpt>
      <trkpt lat="43.20966" lon="5.71661">
        <ele>97.5</ele>
        <time>2021-04-21T13:42:11Z</time>
      </trkpt>
      <trkpt lat="43.20962" lon="5.71656">
        <ele>97.5</ele>
        <time>2021-04-21T13:42:17Z</time>
      </trkpt>
      <trkpt lat="43.20957" lon="5.7165">
        <ele>97.5</ele>
        <time>2021-04-21T13:42:23Z</time>
      </trkpt>
      <trkpt lat="43.20954" lon="5.71645">
        <ele>97.4</ele>
        <time>2021-04-21T13:42:27Z</time>
      </trkpt>
      <trkpt lat="43.2095" lon="5.71639">
        <ele>97.4</ele>
        <time>2021-04-21T13:42:33Z</time>
      </trkpt>
      <trkpt lat="43.20946" lon="5.71632">
        <ele>97.5</ele>
        <time>2021-04-21T13:42:39Z</time>
      </trkpt>
      <trkpt lat="43.20941" lon="5.71626">
        <ele>97.5</ele>
        <time>2021-04-21T13:42:45Z</time>
      </trkpt>
      <trkpt lat="43.20937" lon="5.71619">
        <ele>97.5</ele>
        <time>2021-04-21T13:42:51Z</time>
      </trkpt>
      <trkpt lat="43.20935" lon="5.71611">
        <ele>97.7</ele>
        <time>2021-04-21T13:42:57Z</time>
      </trkpt>
      <trkpt lat="43.20933" lon="5.71606">
        <ele>97.8</ele>
        <time>2021-04-21T13:43:07Z</time>
      </trkpt>
      <trkpt lat="43.20928" lon="5.71602">
        <ele>97.8</ele>
        <time>2021-04-21T13:43:23Z</time>
      </trkpt>
      <trkpt lat="43.20923" lon="5.71597">
        <ele>97.8</ele>
        <time>2021-04-21T13:43:29Z</time>
      </trkpt>
      <trkpt lat="43.2092" lon="5.71593">
        <ele>97.8</ele>
        <time>2021-04-21T13:43:33Z</time>
      </trkpt>
      <trkpt lat="43.20917" lon="5.71588">
        <ele>97.8</ele>
        <time>2021-04-21T13:43:37Z</time>
      </trkpt>
      <trkpt lat="43.20913" lon="5.71582">
        <ele>97.8</ele>
        <time>2021-04-21T13:43:43Z</time>
      </trkpt>
      <trkpt lat="43.2091" lon="5.71575">
        <ele>97.8</ele>
        <time>2021-04-21T13:43:49Z</time>
      </trkpt>
      <trkpt lat="43.20907" lon="5.71569">
        <ele>97.7</ele>
        <time>2021-04-21T13:43:55Z</time>
      </trkpt>
      <trkpt lat="43.20904" lon="5.71562">
        <ele>97.7</ele>
        <time>2021-04-21T13:44:01Z</time>
      </trkpt>
      <trkpt lat="43.20901" lon="5.71555">
        <ele>97.6</ele>
        <time>2021-04-21T13:44:07Z</time>
      </trkpt>
      <trkpt lat="43.20899" lon="5.71547">
        <ele>97.6</ele>
        <time>2021-04-21T13:44:13Z</time>
      </trkpt>
      <trkpt lat="43.20896" lon="5.71539">
        <ele>97.5</ele>
        <time>2021-04-21T13:44:19Z</time>
      </trkpt>
      <trkpt lat="43.20895" lon="5.71531">
        <ele>97.6</ele>
        <time>2021-04-21T13:44:25Z</time>
      </trkpt>
      <trkpt lat="43.20892" lon="5.71523">
        <ele>97.6</ele>
        <time>2021-04-21T13:44:31Z</time>
      </trkpt>
      <trkpt lat="43.20889" lon="5.71515">
        <ele>97.4</ele>
        <time>2021-04-21T13:44:37Z</time>
      </trkpt>
      <trkpt lat="43.20886" lon="5.71508">
        <ele>97.3</ele>
        <time>2021-04-21T13:44:43Z</time>
      </trkpt>
      <trkpt lat="43.20882" lon="5.715">
        <ele>97.1</ele>
        <time>2021-04-21T13:44:49Z</time>
      </trkpt>
      <trkpt lat="43.20878" lon="5.71494">
        <ele>96.8</ele>
        <time>2021-04-21T13:44:55Z</time>
      </trkpt>
      <trkpt lat="43.20875" lon="5.71489">
        <ele>96.7</ele>
        <time>2021-04-21T13:44:59Z</time>
      </trkpt>
      <trkpt lat="43.20873" lon="5.71484">
        <ele>96.5</ele>
        <time>2021-04-21T13:45:03Z</time>
      </trkpt>
      <trkpt lat="43.2087" lon="5.71476">
        <ele>96.4</ele>
        <time>2021-04-21T13:45:09Z</time>
      </trkpt>
      <trkpt lat="43.20868" lon="5.71471">
        <ele>96.3</ele>
        <time>2021-04-21T13:45:13Z</time>
      </trkpt>
      <trkpt lat="43.20865" lon="5.71465">
        <ele>96.2</ele>
        <time>2021-04-21T13:45:17Z</time>
      </trkpt>
      <trkpt lat="43.20861" lon="5.71459">
        <ele>96</ele>
        <time>2021-04-21T13:45:23Z</time>
      </trkpt>
      <trkpt lat="43.20858" lon="5.71452">
        <ele>95.9</ele>
        <time>2021-04-21T13:45:29Z</time>
      </trkpt>
      <trkpt lat="43.20854" lon="5.71448">
        <ele>95.7</ele>
        <time>2021-04-21T13:45:33Z</time>
      </trkpt>
      <trkpt lat="43.2085" lon="5.71441">
        <ele>95.6</ele>
        <time>2021-04-21T13:45:39Z</time>
      </trkpt>
      <trkpt lat="43.20847" lon="5.71434">
        <ele>95.4</ele>
        <time>2021-04-21T13:45:45Z</time>
      </trkpt>
      <trkpt lat="43.20844" lon="5.71426">
        <ele>95.5</ele>
        <time>2021-04-21T13:45:51Z</time>
      </trkpt>
      <trkpt lat="43.20841" lon="5.71419">
        <ele>95.4</ele>
        <time>2021-04-21T13:45:57Z</time>
      </trkpt>
      <trkpt lat="43.20838" lon="5.71414">
        <ele>95.3</ele>
        <time>2021-04-21T13:46:17Z</time>
      </trkpt>
      <trkpt lat="43.20834" lon="5.71408">
        <ele>95.1</ele>
        <time>2021-04-21T13:46:23Z</time>
      </trkpt>
      <trkpt lat="43.20831" lon="5.71402">
        <ele>95.1</ele>
        <time>2021-04-21T13:46:29Z</time>
      </trkpt>
      <trkpt lat="43.20828" lon="5.71396">
        <ele>95.2</ele>
        <time>2021-04-21T13:46:33Z</time>
      </trkpt>
      <trkpt lat="43.20825" lon="5.71391">
        <ele>95.2</ele>
        <time>2021-04-21T13:46:37Z</time>
      </trkpt>
      <trkpt lat="43.20821" lon="5.71386">
        <ele>95.2</ele>
        <time>2021-04-21T13:46:41Z</time>
      </trkpt>
      <trkpt lat="43.20818" lon="5.71382">
        <ele>95.2</ele>
        <time>2021-04-21T13:46:45Z</time>
      </trkpt>
      <trkpt lat="43.20812" lon="5.71379">
        <ele>95.2</ele>
        <time>2021-04-21T13:46:49Z</time>
      </trkpt>
      <trkpt lat="43.20808" lon="5.71376">
        <ele>95.2</ele>
        <time>2021-04-21T13:46:53Z</time>
      </trkpt>
      <trkpt lat="43.20803" lon="5.71372">
        <ele>95.2</ele>
        <time>2021-04-21T13:46:59Z</time>
      </trkpt>
      <trkpt lat="43.20798" lon="5.71371">
        <ele>95.2</ele>
        <time>2021-04-21T13:47:03Z</time>
      </trkpt>
      <trkpt lat="43.20792" lon="5.7137">
        <ele>95.1</ele>
        <time>2021-04-21T13:47:09Z</time>
      </trkpt>
      <trkpt lat="43.20787" lon="5.71367">
        <ele>95.1</ele>
        <time>2021-04-21T13:47:15Z</time>
      </trkpt>
      <trkpt lat="43.20782" lon="5.71366">
        <ele>95.1</ele>
        <time>2021-04-21T13:47:19Z</time>
      </trkpt>
      <trkpt lat="43.20778" lon="5.71364">
        <ele>95.1</ele>
        <time>2021-04-21T13:47:23Z</time>
      </trkpt>
      <trkpt lat="43.20773" lon="5.71362">
        <ele>95.2</ele>
        <time>2021-04-21T13:47:27Z</time>
      </trkpt>
      <trkpt lat="43.20767" lon="5.7136">
        <ele>95.2</ele>
        <time>2021-04-21T13:47:33Z</time>
      </trkpt>
      <trkpt lat="43.20762" lon="5.71358">
        <ele>95.2</ele>
        <time>2021-04-21T13:47:39Z</time>
      </trkpt>
      <trkpt lat="43.20756" lon="5.71354">
        <ele>95.3</ele>
        <time>2021-04-21T13:47:45Z</time>
      </trkpt>
      <trkpt lat="43.2075" lon="5.7135">
        <ele>95.4</ele>
        <time>2021-04-21T13:47:51Z</time>
      </trkpt>
      <trkpt lat="43.20744" lon="5.71346">
        <ele>95.3</ele>
        <time>2021-04-21T13:47:57Z</time>
      </trkpt>
      <trkpt lat="43.20739" lon="5.71341">
        <ele>95.2</ele>
        <time>2021-04-21T13:48:03Z</time>
      </trkpt>
      <trkpt lat="43.20733" lon="5.71337">
        <ele>95.1</ele>
        <time>2021-04-21T13:48:09Z</time>
      </trkpt>
      <trkpt lat="43.20728" lon="5.71333">
        <ele>94.9</ele>
        <time>2021-04-21T13:48:15Z</time>
      </trkpt>
      <trkpt lat="43.20722" lon="5.7133">
        <ele>94.8</ele>
        <time>2021-04-21T13:48:21Z</time>
      </trkpt>
      <trkpt lat="43.20717" lon="5.71326">
        <ele>94.6</ele>
        <time>2021-04-21T13:48:27Z</time>
      </trkpt>
      <trkpt lat="43.20712" lon="5.71321">
        <ele>94.6</ele>
        <time>2021-04-21T13:48:33Z</time>
      </trkpt>
      <trkpt lat="43.20708" lon="5.71315">
        <ele>94.5</ele>
        <time>2021-04-21T13:48:39Z</time>
      </trkpt>
      <trkpt lat="43.20703" lon="5.71309">
        <ele>94.5</ele>
        <time>2021-04-21T13:48:45Z</time>
      </trkpt>
      <trkpt lat="43.20699" lon="5.71303">
        <ele>94.4</ele>
        <time>2021-04-21T13:48:51Z</time>
      </trkpt>
      <trkpt lat="43.20696" lon="5.71296">
        <ele>94.5</ele>
        <time>2021-04-21T13:48:57Z</time>
      </trkpt>
      <trkpt lat="43.20694" lon="5.71289">
        <ele>94.5</ele>
        <time>2021-04-21T13:49:03Z</time>
      </trkpt>
      <trkpt lat="43.20691" lon="5.71282">
        <ele>94.6</ele>
        <time>2021-04-21T13:49:09Z</time>
      </trkpt>
      <trkpt lat="43.20687" lon="5.71274">
        <ele>94.6</ele>
        <time>2021-04-21T13:49:15Z</time>
      </trkpt>
      <trkpt lat="43.20685" lon="5.71269">
        <ele>94.6</ele>
        <time>2021-04-21T13:49:19Z</time>
      </trkpt>
      <trkpt lat="43.20682" lon="5.71263">
        <ele>94.6</ele>
        <time>2021-04-21T13:49:23Z</time>
      </trkpt>
      <trkpt lat="43.20678" lon="5.71258">
        <ele>94.5</ele>
        <time>2021-04-21T13:49:27Z</time>
      </trkpt>
      <trkpt lat="43.20676" lon="5.71252">
        <ele>94.5</ele>
        <time>2021-04-21T13:49:31Z</time>
      </trkpt>
      <trkpt lat="43.20673" lon="5.71246">
        <ele>94.6</ele>
        <time>2021-04-21T13:49:35Z</time>
      </trkpt>
      <trkpt lat="43.2067" lon="5.71239">
        <ele>94.8</ele>
        <time>2021-04-21T13:49:41Z</time>
      </trkpt>
      <trkpt lat="43.20668" lon="5.71232">
        <ele>95.1</ele>
        <time>2021-04-21T13:49:47Z</time>
      </trkpt>
      <trkpt lat="43.20665" lon="5.71224">
        <ele>95.4</ele>
        <time>2021-04-21T13:49:53Z</time>
      </trkpt>
      <trkpt lat="43.20663" lon="5.71218">
        <ele>95.7</ele>
        <time>2021-04-21T13:49:57Z</time>
      </trkpt>
      <trkpt lat="43.20661" lon="5.7121">
        <ele>96.1</ele>
        <time>2021-04-21T13:50:03Z</time>
      </trkpt>
      <trkpt lat="43.20659" lon="5.71204">
        <ele>96.3</ele>
        <time>2021-04-21T13:50:07Z</time>
      </trkpt>
      <trkpt lat="43.20657" lon="5.71198">
        <ele>96.5</ele>
        <time>2021-04-21T13:50:11Z</time>
      </trkpt>
      <trkpt lat="43.20653" lon="5.71192">
        <ele>96.7</ele>
        <time>2021-04-21T13:50:15Z</time>
      </trkpt>
      <trkpt lat="43.2065" lon="5.71187">
        <ele>96.8</ele>
        <time>2021-04-21T13:50:19Z</time>
      </trkpt>
      <trkpt lat="43.20646" lon="5.7118">
        <ele>96.9</ele>
        <time>2021-04-21T13:50:25Z</time>
      </trkpt>
      <trkpt lat="43.20641" lon="5.71174">
        <ele>97</ele>
        <time>2021-04-21T13:50:31Z</time>
      </trkpt>
      <trkpt lat="43.20638" lon="5.71169">
        <ele>97.1</ele>
        <time>2021-04-21T13:50:35Z</time>
      </trkpt>
      <trkpt lat="43.20632" lon="5.71163">
        <ele>97</ele>
        <time>2021-04-21T13:50:41Z</time>
      </trkpt>
      <trkpt lat="43.20629" lon="5.71159">
        <ele>96.9</ele>
        <time>2021-04-21T13:50:45Z</time>
      </trkpt>
      <trkpt lat="43.20624" lon="5.71154">
        <ele>96.7</ele>
        <time>2021-04-21T13:50:51Z</time>
      </trkpt>
      <trkpt lat="43.20619" lon="5.71148">
        <ele>96.6</ele>
        <time>2021-04-21T13:50:57Z</time>
      </trkpt>
      <trkpt lat="43.20613" lon="5.71143">
        <ele>96.3</ele>
        <time>2021-04-21T13:51:03Z</time>
      </trkpt>
      <trkpt lat="43.20608" lon="5.7114">
        <ele>96.1</ele>
        <time>2021-04-21T13:51:07Z</time>
      </trkpt>
      <trkpt lat="43.20604" lon="5.71138">
        <ele>95.9</ele>
        <time>2021-04-21T13:51:11Z</time>
      </trkpt>
      <trkpt lat="43.206" lon="5.71135">
        <ele>95.7</ele>
        <time>2021-04-21T13:51:15Z</time>
      </trkpt>
      <trkpt lat="43.20595" lon="5.71132">
        <ele>95.5</ele>
        <time>2021-04-21T13:51:19Z</time>
      </trkpt>
      <trkpt lat="43.20591" lon="5.7113">
        <ele>95.3</ele>
        <time>2021-04-21T13:51:23Z</time>
      </trkpt>
      <trkpt lat="43.20586" lon="5.71129">
        <ele>95.1</ele>
        <time>2021-04-21T13:51:27Z</time>
      </trkpt>
      <trkpt lat="43.20581" lon="5.71129">
        <ele>94.8</ele>
        <time>2021-04-21T13:51:31Z</time>
      </trkpt>
      <trkpt lat="43.20576" lon="5.71128">
        <ele>94.5</ele>
        <time>2021-04-21T13:51:35Z</time>
      </trkpt>
      <trkpt lat="43.20572" lon="5.71127">
        <ele>94.3</ele>
        <time>2021-04-21T13:51:39Z</time>
      </trkpt>
      <trkpt lat="43.20567" lon="5.71126">
        <ele>94</ele>
        <time>2021-04-21T13:51:43Z</time>
      </trkpt>
      <trkpt lat="43.20561" lon="5.71125">
        <ele>93.7</ele>
        <time>2021-04-21T13:51:47Z</time>
      </trkpt>
      <trkpt lat="43.20557" lon="5.71125">
        <ele>93.4</ele>
        <time>2021-04-21T13:51:51Z</time>
      </trkpt>
      <trkpt lat="43.20552" lon="5.71123">
        <ele>93.2</ele>
        <time>2021-04-21T13:51:55Z</time>
      </trkpt>
      <trkpt lat="43.20546" lon="5.71121">
        <ele>92.8</ele>
        <time>2021-04-21T13:52:01Z</time>
      </trkpt>
      <trkpt lat="43.2054" lon="5.71119">
        <ele>92.5</ele>
        <time>2021-04-21T13:52:07Z</time>
      </trkpt>
      <trkpt lat="43.20534" lon="5.71116">
        <ele>92.1</ele>
        <time>2021-04-21T13:52:13Z</time>
      </trkpt>
      <trkpt lat="43.20529" lon="5.71115">
        <ele>91.8</ele>
        <time>2021-04-21T13:52:19Z</time>
      </trkpt>
      <trkpt lat="43.20523" lon="5.71112">
        <ele>91.4</ele>
        <time>2021-04-21T13:52:25Z</time>
      </trkpt>
      <trkpt lat="43.20519" lon="5.71108">
        <ele>91.2</ele>
        <time>2021-04-21T13:52:31Z</time>
      </trkpt>
      <trkpt lat="43.20517" lon="5.71102">
        <ele>91.1</ele>
        <time>2021-04-21T13:52:43Z</time>
      </trkpt>
      <trkpt lat="43.20512" lon="5.71099">
        <ele>90.8</ele>
        <time>2021-04-21T13:52:55Z</time>
      </trkpt>
      <trkpt lat="43.20506" lon="5.71099">
        <ele>90.4</ele>
        <time>2021-04-21T13:53:03Z</time>
      </trkpt>
      <trkpt lat="43.20502" lon="5.711">
        <ele>90.1</ele>
        <time>2021-04-21T13:53:11Z</time>
      </trkpt>
      <trkpt lat="43.20497" lon="5.71101">
        <ele>89.9</ele>
        <time>2021-04-21T13:53:17Z</time>
      </trkpt>
      <trkpt lat="43.20492" lon="5.71103">
        <ele>89.7</ele>
        <time>2021-04-21T13:53:25Z</time>
      </trkpt>
      <trkpt lat="43.20486" lon="5.71105">
        <ele>89.4</ele>
        <time>2021-04-21T13:53:33Z</time>
      </trkpt>
      <trkpt lat="43.2048" lon="5.71105">
        <ele>89.1</ele>
        <time>2021-04-21T13:53:37Z</time>
      </trkpt>
      <trkpt lat="43.20474" lon="5.71107">
        <ele>88.9</ele>
        <time>2021-04-21T13:53:43Z</time>
      </trkpt>
      <trkpt lat="43.20468" lon="5.71109">
        <ele>88.7</ele>
        <time>2021-04-21T13:53:49Z</time>
      </trkpt>
      <trkpt lat="43.20462" lon="5.7111">
        <ele>88.5</ele>
        <time>2021-04-21T13:53:55Z</time>
      </trkpt>
      <trkpt lat="43.20456" lon="5.71111">
        <ele>88.2</ele>
        <time>2021-04-21T13:53:59Z</time>
      </trkpt>
      <trkpt lat="43.20451" lon="5.71111">
        <ele>88</ele>
        <time>2021-04-21T13:54:03Z</time>
      </trkpt>
      <trkpt lat="43.20446" lon="5.71112">
        <ele>87.8</ele>
        <time>2021-04-21T13:54:09Z</time>
      </trkpt>
      <trkpt lat="43.20441" lon="5.71113">
        <ele>87.7</ele>
        <time>2021-04-21T13:54:13Z</time>
      </trkpt>
      <trkpt lat="43.20436" lon="5.71114">
        <ele>87.5</ele>
        <time>2021-04-21T13:54:17Z</time>
      </trkpt>
      <trkpt lat="43.2043" lon="5.71116">
        <ele>87.3</ele>
        <time>2021-04-21T13:54:23Z</time>
      </trkpt>
      <trkpt lat="43.20425" lon="5.71116">
        <ele>87.1</ele>
        <time>2021-04-21T13:54:29Z</time>
      </trkpt>
      <trkpt lat="43.2042" lon="5.71116">
        <ele>86.9</ele>
        <time>2021-04-21T13:54:33Z</time>
      </trkpt>
      <trkpt lat="43.20414" lon="5.71117">
        <ele>86.7</ele>
        <time>2021-04-21T13:54:37Z</time>
      </trkpt>
      <trkpt lat="43.20408" lon="5.71118">
        <ele>86.4</ele>
        <time>2021-04-21T13:54:43Z</time>
      </trkpt>
      <trkpt lat="43.20403" lon="5.71119">
        <ele>86.1</ele>
        <time>2021-04-21T13:54:47Z</time>
      </trkpt>
      <trkpt lat="43.20396" lon="5.71121">
        <ele>85.8</ele>
        <time>2021-04-21T13:54:53Z</time>
      </trkpt>
      <trkpt lat="43.2039" lon="5.71122">
        <ele>85.5</ele>
        <time>2021-04-21T13:54:57Z</time>
      </trkpt>
      <trkpt lat="43.20383" lon="5.71123">
        <ele>85.1</ele>
        <time>2021-04-21T13:55:03Z</time>
      </trkpt>
      <trkpt lat="43.20378" lon="5.71123">
        <ele>84.9</ele>
        <time>2021-04-21T13:55:09Z</time>
      </trkpt>
      <trkpt lat="43.20371" lon="5.71124">
        <ele>84.5</ele>
        <time>2021-04-21T13:55:15Z</time>
      </trkpt>
      <trkpt lat="43.20366" lon="5.71124">
        <ele>84.2</ele>
        <time>2021-04-21T13:55:21Z</time>
      </trkpt>
      <trkpt lat="43.20362" lon="5.71124">
        <ele>84</ele>
        <time>2021-04-21T13:55:25Z</time>
      </trkpt>
      <trkpt lat="43.20356" lon="5.71123">
        <ele>83.6</ele>
        <time>2021-04-21T13:55:31Z</time>
      </trkpt>
      <trkpt lat="43.2035" lon="5.71123">
        <ele>83.4</ele>
        <time>2021-04-21T13:55:37Z</time>
      </trkpt>
      <trkpt lat="43.20344" lon="5.71121">
        <ele>83</ele>
        <time>2021-04-21T13:55:43Z</time>
      </trkpt>
      <trkpt lat="43.20341" lon="5.71116">
        <ele>82.6</ele>
        <time>2021-04-21T13:55:55Z</time>
      </trkpt>
      <trkpt lat="43.20346" lon="5.71112">
        <ele>82.7</ele>
        <time>2021-04-21T13:56:03Z</time>
      </trkpt>
      <trkpt lat="43.2035" lon="5.71107">
        <ele>82.8</ele>
        <time>2021-04-21T13:56:09Z</time>
      </trkpt>
      <trkpt lat="43.20353" lon="5.71103">
        <ele>82.8</ele>
        <time>2021-04-21T13:56:15Z</time>
      </trkpt>
      <trkpt lat="43.20358" lon="5.71098">
        <ele>83</ele>
        <time>2021-04-21T13:56:21Z</time>
      </trkpt>
      <trkpt lat="43.20362" lon="5.71092">
        <ele>83</ele>
        <time>2021-04-21T13:56:27Z</time>
      </trkpt>
      <trkpt lat="43.20365" lon="5.71087">
        <ele>83</ele>
        <time>2021-04-21T13:56:31Z</time>
      </trkpt>
      <trkpt lat="43.20369" lon="5.71084">
        <ele>83.2</ele>
        <time>2021-04-21T13:56:35Z</time>
      </trkpt>
      <trkpt lat="43.20373" lon="5.71078">
        <ele>83.6</ele>
        <time>2021-04-21T13:56:41Z</time>
      </trkpt>
      <trkpt lat="43.20377" lon="5.71073">
        <ele>84</ele>
        <time>2021-04-21T13:56:47Z</time>
      </trkpt>
      <trkpt lat="43.20381" lon="5.71067">
        <ele>84.4</ele>
        <time>2021-04-21T13:56:53Z</time>
      </trkpt>
      <trkpt lat="43.20385" lon="5.71059">
        <ele>84.9</ele>
        <time>2021-04-21T13:56:59Z</time>
      </trkpt>
      <trkpt lat="43.20388" lon="5.71054">
        <ele>85.3</ele>
        <time>2021-04-21T13:57:03Z</time>
      </trkpt>
      <trkpt lat="43.20391" lon="5.71046">
        <ele>85.6</ele>
        <time>2021-04-21T13:57:09Z</time>
      </trkpt>
      <trkpt lat="43.20392" lon="5.7104">
        <ele>85.9</ele>
        <time>2021-04-21T13:57:15Z</time>
      </trkpt>
      <trkpt lat="43.20394" lon="5.71033">
        <ele>86.2</ele>
        <time>2021-04-21T13:57:21Z</time>
      </trkpt>
      <trkpt lat="43.20398" lon="5.71031">
        <ele>86.4</ele>
        <time>2021-04-21T13:57:25Z</time>
      </trkpt>
      <trkpt lat="43.20404" lon="5.71029">
        <ele>86.7</ele>
        <time>2021-04-21T13:57:29Z</time>
      </trkpt>
      <trkpt lat="43.20408" lon="5.71027">
        <ele>87</ele>
        <time>2021-04-21T13:57:33Z</time>
      </trkpt>
      <trkpt lat="43.20413" lon="5.71026">
        <ele>87.2</ele>
        <time>2021-04-21T13:57:37Z</time>
      </trkpt>
      <trkpt lat="43.20418" lon="5.71026">
        <ele>87.5</ele>
        <time>2021-04-21T13:57:41Z</time>
      </trkpt>
      <trkpt lat="43.20424" lon="5.71027">
        <ele>87.7</ele>
        <time>2021-04-21T13:57:47Z</time>
      </trkpt>
      <trkpt lat="43.2043" lon="5.71028">
        <ele>87.9</ele>
        <time>2021-04-21T13:57:53Z</time>
      </trkpt>
      <trkpt lat="43.20435" lon="5.71029">
        <ele>88.2</ele>
        <time>2021-04-21T13:57:59Z</time>
      </trkpt>
      <trkpt lat="43.20438" lon="5.71033">
        <ele>88.2</ele>
        <time>2021-04-21T13:58:09Z</time>
      </trkpt>
      <trkpt lat="43.20443" lon="5.71036">
        <ele>88.4</ele>
        <time>2021-04-21T13:58:17Z</time>
      </trkpt>
      <trkpt lat="43.20448" lon="5.71038">
        <ele>88.6</ele>
        <time>2021-04-21T13:58:25Z</time>
      </trkpt>
      <trkpt lat="43.20453" lon="5.71039">
        <ele>88.8</ele>
        <time>2021-04-21T13:58:31Z</time>
      </trkpt>
      <trkpt lat="43.20459" lon="5.71039">
        <ele>89.1</ele>
        <time>2021-04-21T13:58:37Z</time>
      </trkpt>
      <trkpt lat="43.20464" lon="5.71039">
        <ele>89.3</ele>
        <time>2021-04-21T13:58:41Z</time>
      </trkpt>
      <trkpt lat="43.20469" lon="5.71036">
        <ele>89.6</ele>
        <time>2021-04-21T13:58:45Z</time>
      </trkpt>
      <trkpt lat="43.20474" lon="5.71034">
        <ele>89.9</ele>
        <time>2021-04-21T13:58:49Z</time>
      </trkpt>
      <trkpt lat="43.20479" lon="5.71033">
        <ele>90.2</ele>
        <time>2021-04-21T13:58:53Z</time>
      </trkpt>
      <trkpt lat="43.20483" lon="5.71029">
        <ele>90.5</ele>
        <time>2021-04-21T13:58:57Z</time>
      </trkpt>
      <trkpt lat="43.20487" lon="5.71024">
        <ele>90.8</ele>
        <time>2021-04-21T13:59:01Z</time>
      </trkpt>
      <trkpt lat="43.20491" lon="5.7102">
        <ele>91.1</ele>
        <time>2021-04-21T13:59:05Z</time>
      </trkpt>
      <trkpt lat="43.20494" lon="5.71015">
        <ele>91.4</ele>
        <time>2021-04-21T13:59:15Z</time>
      </trkpt>
      <trkpt lat="43.20499" lon="5.71011">
        <ele>91.7</ele>
        <time>2021-04-21T13:59:21Z</time>
      </trkpt>
      <trkpt lat="43.20503" lon="5.71007">
        <ele>91.9</ele>
        <time>2021-04-21T13:59:29Z</time>
      </trkpt>
      <trkpt lat="43.2051" lon="5.71003">
        <ele>92.1</ele>
        <time>2021-04-21T13:59:39Z</time>
      </trkpt>
      <trkpt lat="43.20513" lon="5.70998">
        <ele>92.3</ele>
        <time>2021-04-21T13:59:43Z</time>
      </trkpt>
      <trkpt lat="43.20514" lon="5.70992">
        <ele>92.9</ele>
        <time>2021-04-21T14:00:07Z</time>
      </trkpt>
      <trkpt lat="43.20517" lon="5.70987">
        <ele>93.4</ele>
        <time>2021-04-21T14:00:29Z</time>
      </trkpt>
      <trkpt lat="43.20514" lon="5.70982">
        <ele>93.8</ele>
        <time>2021-04-21T14:02:15Z</time>
      </trkpt>
      <trkpt lat="43.20511" lon="5.70978">
        <ele>94.2</ele>
        <time>2021-04-21T14:03:19Z</time>
      </trkpt>
      <trkpt lat="43.20509" lon="5.70983">
        <ele>93.7</ele>
        <time>2021-04-21T14:03:53Z</time>
      </trkpt>
      <trkpt lat="43.20506" lon="5.70977">
        <ele>94.2</ele>
        <time>2021-04-21T14:04:39Z</time>
      </trkpt>
      <trkpt lat="43.20503" lon="5.70972">
        <ele>94.7</ele>
        <time>2021-04-21T14:04:45Z</time>
      </trkpt>
      <trkpt lat="43.20504" lon="5.70965">
        <ele>95.3</ele>
        <time>2021-04-21T14:04:53Z</time>
      </trkpt>
      <trkpt lat="43.20508" lon="5.70959">
        <ele>95.9</ele>
        <time>2021-04-21T14:05:01Z</time>
      </trkpt>
      <trkpt lat="43.20514" lon="5.70957">
        <ele>96.1</ele>
        <time>2021-04-21T14:05:05Z</time>
      </trkpt>
      <trkpt lat="43.20517" lon="5.70952">
        <ele>96.6</ele>
        <time>2021-04-21T14:05:11Z</time>
      </trkpt>
      <trkpt lat="43.20521" lon="5.70948">
        <ele>96.9</ele>
        <time>2021-04-21T14:05:15Z</time>
      </trkpt>
      <trkpt lat="43.20525" lon="5.70942">
        <ele>97.4</ele>
        <time>2021-04-21T14:05:21Z</time>
      </trkpt>
      <trkpt lat="43.20528" lon="5.70938">
        <ele>97.8</ele>
        <time>2021-04-21T14:05:27Z</time>
      </trkpt>
      <trkpt lat="43.20532" lon="5.70933">
        <ele>98.2</ele>
        <time>2021-04-21T14:05:33Z</time>
      </trkpt>
      <trkpt lat="43.20533" lon="5.70925">
        <ele>98.9</ele>
        <time>2021-04-21T14:05:41Z</time>
      </trkpt>
      <trkpt lat="43.20536" lon="5.70919">
        <ele>99.4</ele>
        <time>2021-04-21T14:05:45Z</time>
      </trkpt>
      <trkpt lat="43.2054" lon="5.70913">
        <ele>99.6</ele>
        <time>2021-04-21T14:05:49Z</time>
      </trkpt>
      <trkpt lat="43.20543" lon="5.70908">
        <ele>99.8</ele>
        <time>2021-04-21T14:05:53Z</time>
      </trkpt>
      <trkpt lat="43.20544" lon="5.709">
        <ele>100.1</ele>
        <time>2021-04-21T14:05:59Z</time>
      </trkpt>
      <trkpt lat="43.20546" lon="5.70893">
        <ele>100.4</ele>
        <time>2021-04-21T14:06:05Z</time>
      </trkpt>
      <trkpt lat="43.2055" lon="5.70888">
        <ele>100.6</ele>
        <time>2021-04-21T14:06:09Z</time>
      </trkpt>
      <trkpt lat="43.20552" lon="5.70882">
        <ele>100.8</ele>
        <time>2021-04-21T14:06:13Z</time>
      </trkpt>
      <trkpt lat="43.20555" lon="5.70875">
        <ele>101.2</ele>
        <time>2021-04-21T14:06:19Z</time>
      </trkpt>
      <trkpt lat="43.20558" lon="5.7087">
        <ele>101.4</ele>
        <time>2021-04-21T14:06:23Z</time>
      </trkpt>
      <trkpt lat="43.20561" lon="5.70866">
        <ele>101.7</ele>
        <time>2021-04-21T14:06:27Z</time>
      </trkpt>
      <trkpt lat="43.20565" lon="5.70862">
        <ele>101.9</ele>
        <time>2021-04-21T14:06:31Z</time>
      </trkpt>
      <trkpt lat="43.20569" lon="5.70858">
        <ele>102.2</ele>
        <time>2021-04-21T14:06:35Z</time>
      </trkpt>
      <trkpt lat="43.20573" lon="5.70852">
        <ele>102.6</ele>
        <time>2021-04-21T14:06:41Z</time>
      </trkpt>
      <trkpt lat="43.20577" lon="5.70846">
        <ele>103.1</ele>
        <time>2021-04-21T14:06:47Z</time>
      </trkpt>
      <trkpt lat="43.2058" lon="5.7084">
        <ele>103.5</ele>
        <time>2021-04-21T14:06:53Z</time>
      </trkpt>
      <trkpt lat="43.20584" lon="5.70835">
        <ele>103.9</ele>
        <time>2021-04-21T14:06:59Z</time>
      </trkpt>
      <trkpt lat="43.20588" lon="5.70829">
        <ele>104.1</ele>
        <time>2021-04-21T14:07:05Z</time>
      </trkpt>
      <trkpt lat="43.20591" lon="5.70824">
        <ele>104.3</ele>
        <time>2021-04-21T14:07:09Z</time>
      </trkpt>
      <trkpt lat="43.20594" lon="5.70818">
        <ele>104.5</ele>
        <time>2021-04-21T14:07:15Z</time>
      </trkpt>
      <trkpt lat="43.20595" lon="5.70811">
        <ele>104.8</ele>
        <time>2021-04-21T14:07:21Z</time>
      </trkpt>
      <trkpt lat="43.20597" lon="5.70804">
        <ele>105.1</ele>
        <time>2021-04-21T14:07:27Z</time>
      </trkpt>
      <trkpt lat="43.20601" lon="5.708">
        <ele>105.3</ele>
        <time>2021-04-21T14:07:31Z</time>
      </trkpt>
      <trkpt lat="43.20605" lon="5.70797">
        <ele>105.5</ele>
        <time>2021-04-21T14:07:35Z</time>
      </trkpt>
      <trkpt lat="43.20609" lon="5.70791">
        <ele>105.8</ele>
        <time>2021-04-21T14:07:41Z</time>
      </trkpt>
      <trkpt lat="43.2061" lon="5.70784">
        <ele>106.2</ele>
        <time>2021-04-21T14:07:47Z</time>
      </trkpt>
      <trkpt lat="43.2061" lon="5.70778">
        <ele>106.5</ele>
        <time>2021-04-21T14:07:53Z</time>
      </trkpt>
      <trkpt lat="43.2061" lon="5.70771">
        <ele>106.9</ele>
        <time>2021-04-21T14:08:05Z</time>
      </trkpt>
    </trkseg>
  </trk>
</gpx>